<?xml version="1.0" encoding="UTF-8" standalone="no" ?>
<gpx xmlns="http://www.topografix.com/GPX/1/1" xmlns:xsi="http://www.w3.org/2001/XMLSchema-instance" xsi:schemaLocation="http://www.topografix.com/GPX/1/1 http://www.topografix.com/GPX/1/1/gpx.xsd" version="1.1" creator="VisuGPX - https://www.visugpx.com">
  <metadata>
    <name>Jour 4 : St Thégonnec_Ploudaniel</name>
  </metadata>
  <trk>
    <name><![CDATA[D_GTB 2022-St Thégonnec_Ploudaniel]]></name>
    <trkseg>
      <trkpt lat="48.52002" lon="-3.94635">
        <ele>88.86082</ele>
        <time>2021-09-13T21:57:23.688Z</time>
      </trkpt>
      <trkpt lat="48.52003" lon="-3.9462">
        <ele>88.86082</ele>
        <time>2021-09-13T21:57:24.838Z</time>
      </trkpt>
      <trkpt lat="48.5203" lon="-3.9461">
        <ele>88.86082</ele>
        <time>2021-09-13T21:57:28.149Z</time>
      </trkpt>
      <trkpt lat="48.52036" lon="-3.94602">
        <ele>88.86082</ele>
        <time>2021-09-13T21:57:29.065Z</time>
      </trkpt>
      <trkpt lat="48.52049" lon="-3.9456">
        <ele>88.86082</ele>
        <time>2021-09-13T21:57:32.650Z</time>
      </trkpt>
      <trkpt lat="48.52065" lon="-3.94491">
        <ele>87.322764</ele>
        <time>2021-09-13T21:57:38.136Z</time>
      </trkpt>
      <trkpt lat="48.52071" lon="-3.94482">
        <ele>86.931027</ele>
        <time>2021-09-13T21:57:39.116Z</time>
      </trkpt>
      <trkpt lat="48.5208" lon="-3.94522">
        <ele>85.684772</ele>
        <time>2021-09-13T21:57:42.174Z</time>
      </trkpt>
      <trkpt lat="48.5209" lon="-3.94541">
        <ele>84.941596</ele>
        <time>2021-09-13T21:57:43.941Z</time>
      </trkpt>
      <trkpt lat="48.52099" lon="-3.94554">
        <ele>84.406482</ele>
        <time>2021-09-13T21:57:45.192Z</time>
      </trkpt>
      <trkpt lat="48.52124" lon="-3.94591">
        <ele>82.821257</ele>
        <time>2021-09-13T21:57:49.004Z</time>
      </trkpt>
      <trkpt lat="48.5215" lon="-3.9463">
        <ele>81.163166</ele>
        <time>2021-09-13T21:57:52.876Z</time>
      </trkpt>
      <trkpt lat="48.52169" lon="-3.94681">
        <ele>79.178411</ele>
        <time>2021-09-13T21:57:56.899Z</time>
      </trkpt>
      <trkpt lat="48.52172" lon="-3.94689">
        <ele>78.864007</ele>
        <time>2021-09-13T21:57:57.527Z</time>
      </trkpt>
      <trkpt lat="48.52287" lon="-3.94691">
        <ele>72.810652</ele>
        <time>2021-09-13T21:58:09.667Z</time>
      </trkpt>
      <trkpt lat="48.52298" lon="-3.947">
        <ele>72.179701</ele>
        <time>2021-09-13T21:58:10.925Z</time>
      </trkpt>
      <trkpt lat="48.52328" lon="-3.94785">
        <ele>69.585387</ele>
        <time>2021-09-13T21:58:17.859Z</time>
      </trkpt>
      <trkpt lat="48.52328" lon="-3.94798">
        <ele>69.265131</ele>
        <time>2021-09-13T21:58:19.569Z</time>
      </trkpt>
      <trkpt lat="48.52331" lon="-3.94802">
        <ele>69.105028</ele>
        <time>2021-09-13T21:58:20.457Z</time>
      </trkpt>
      <trkpt lat="48.52349" lon="-3.94819">
        <ele>68.349102</ele>
        <time>2021-09-13T21:58:24.743Z</time>
      </trkpt>
      <trkpt lat="48.52363" lon="-3.94844">
        <ele>67.566442</ele>
        <time>2021-09-13T21:58:29.124Z</time>
      </trkpt>
      <trkpt lat="48.52356" lon="-3.94928">
        <ele>65.530291</ele>
        <time>2021-09-13T21:58:41.143Z</time>
      </trkpt>
      <trkpt lat="48.52338" lon="-3.9505">
        <ele>63.056429</ele>
        <time>2021-09-13T21:58:58.456Z</time>
      </trkpt>
      <trkpt lat="48.52335" lon="-3.95112">
        <ele>61.894861</ele>
        <time>2021-09-13T21:59:07.139Z</time>
      </trkpt>
      <trkpt lat="48.52343" lon="-3.95251">
        <ele>59.392337</ele>
        <time>2021-09-13T21:59:26.380Z</time>
      </trkpt>
      <trkpt lat="48.52335" lon="-3.95434">
        <ele>56.574931</ele>
        <time>2021-09-13T21:59:52.581Z</time>
      </trkpt>
      <trkpt lat="48.52368" lon="-3.95562">
        <ele>55.346284</ele>
        <time>2021-09-13T22:00:12.653Z</time>
      </trkpt>
      <trkpt lat="48.52368" lon="-3.95587">
        <ele>55.268572</ele>
        <time>2021-09-13T22:00:16.206Z</time>
      </trkpt>
      <trkpt lat="48.52355" lon="-3.95644">
        <ele>55.074974</ele>
        <time>2021-09-13T22:00:24.996Z</time>
      </trkpt>
      <trkpt lat="48.5236" lon="-3.95668">
        <ele>54.991861</ele>
        <time>2021-09-13T22:00:29.002Z</time>
      </trkpt>
      <trkpt lat="48.52397" lon="-3.95755">
        <ele>55.219075</ele>
        <time>2021-09-13T22:00:49.855Z</time>
      </trkpt>
      <trkpt lat="48.52422" lon="-3.95726">
        <ele>56.867899</ele>
        <time>2021-09-13T22:00:59.235Z</time>
      </trkpt>
      <trkpt lat="48.52455" lon="-3.95718">
        <ele>58.608034</ele>
        <time>2021-09-13T22:01:10.444Z</time>
      </trkpt>
      <trkpt lat="48.52501" lon="-3.95699">
        <ele>61.07212</ele>
        <time>2021-09-13T22:01:29.226Z</time>
      </trkpt>
      <trkpt lat="48.52549" lon="-3.95668">
        <ele>63.789537</ele>
        <time>2021-09-13T22:01:51.606Z</time>
      </trkpt>
      <trkpt lat="48.52632" lon="-3.95614">
        <ele>69.379304</ele>
        <time>2021-09-13T22:02:34.455Z</time>
      </trkpt>
      <trkpt lat="48.52637" lon="-3.95583">
        <ele>70.69706</ele>
        <time>2021-09-13T22:02:44.238Z</time>
      </trkpt>
      <trkpt lat="48.52627" lon="-3.95483">
        <ele>74.907467</ele>
        <time>2021-09-13T22:03:08.499Z</time>
      </trkpt>
      <trkpt lat="48.52635" lon="-3.95463">
        <ele>75.541405</ele>
        <time>2021-09-13T22:03:12.463Z</time>
      </trkpt>
      <trkpt lat="48.52651" lon="-3.9545">
        <ele>75.964266</ele>
        <time>2021-09-13T22:03:17.176Z</time>
      </trkpt>
      <trkpt lat="48.5269" lon="-3.95454">
        <ele>76.891561</ele>
        <time>2021-09-13T22:03:26.540Z</time>
      </trkpt>
      <trkpt lat="48.52711" lon="-3.95468">
        <ele>77.421218</ele>
        <time>2021-09-13T22:03:31.839Z</time>
      </trkpt>
      <trkpt lat="48.5272" lon="-3.9554">
        <ele>78.557217</ele>
        <time>2021-09-13T22:03:43.351Z</time>
      </trkpt>
      <trkpt lat="48.52731" lon="-3.95564">
        <ele>79.004626</ele>
        <time>2021-09-13T22:03:47.937Z</time>
      </trkpt>
      <trkpt lat="48.52745" lon="-3.95576">
        <ele>79.377087</ele>
        <time>2021-09-13T22:03:51.743Z</time>
      </trkpt>
      <trkpt lat="48.52761" lon="-3.95581">
        <ele>79.750357</ele>
        <time>2021-09-13T22:03:55.602Z</time>
      </trkpt>
      <trkpt lat="48.52793" lon="-3.95574">
        <ele>80.464622</ele>
        <time>2021-09-13T22:04:02.722Z</time>
      </trkpt>
      <trkpt lat="48.52884" lon="-3.95545">
        <ele>82.536121</ele>
        <time>2021-09-13T22:04:33.673Z</time>
      </trkpt>
      <trkpt lat="48.52906" lon="-3.95525">
        <ele>83.117278</ele>
        <time>2021-09-13T22:04:43.452Z</time>
      </trkpt>
      <trkpt lat="48.52936" lon="-3.95468">
        <ele>84.224847</ele>
        <time>2021-09-13T22:05:02.512Z</time>
      </trkpt>
      <trkpt lat="48.5299" lon="-3.95446">
        <ele>85.517115</ele>
        <time>2021-09-13T22:05:22.639Z</time>
      </trkpt>
      <trkpt lat="48.53022" lon="-3.95413">
        <ele>86.412235</ele>
        <time>2021-09-13T22:05:35.900Z</time>
      </trkpt>
      <trkpt lat="48.53027" lon="-3.95365">
        <ele>87.163686</ele>
        <time>2021-09-13T22:05:46.922Z</time>
      </trkpt>
      <trkpt lat="48.53032" lon="-3.95353">
        <ele>87.382583</ele>
        <time>2021-09-13T22:05:49.787Z</time>
      </trkpt>
      <trkpt lat="48.53048" lon="-3.9535">
        <ele>87.74863</ele>
        <time>2021-09-13T22:05:54.928Z</time>
      </trkpt>
      <trkpt lat="48.53133" lon="-3.95344">
        <ele>88.165375</ele>
        <time>2021-09-13T22:06:19.253Z</time>
      </trkpt>
      <trkpt lat="48.53146" lon="-3.95325">
        <ele>88.255979</ele>
        <time>2021-09-13T22:06:24.115Z</time>
      </trkpt>
      <trkpt lat="48.53172" lon="-3.95305">
        <ele>88.397142</ele>
        <time>2021-09-13T22:06:31.208Z</time>
      </trkpt>
      <trkpt lat="48.53179" lon="-3.95268">
        <ele>88.524995</ele>
        <time>2021-09-13T22:06:37.379Z</time>
      </trkpt>
      <trkpt lat="48.53185" lon="-3.95259">
        <ele>88.564675</ele>
        <time>2021-09-13T22:06:39.648Z</time>
      </trkpt>
      <trkpt lat="48.53269" lon="-3.95261">
        <ele>89.453044</ele>
        <time>2021-09-13T22:07:02.650Z</time>
      </trkpt>
      <trkpt lat="48.53312" lon="-3.95245">
        <ele>89.964493</ele>
        <time>2021-09-13T22:07:16.198Z</time>
      </trkpt>
      <trkpt lat="48.53366" lon="-3.95221">
        <ele>90.608304</ele>
        <time>2021-09-13T22:07:35.541Z</time>
      </trkpt>
      <trkpt lat="48.53431" lon="-3.95204">
        <ele>90.393035</ele>
        <time>2021-09-13T22:07:50.655Z</time>
      </trkpt>
      <trkpt lat="48.53506" lon="-3.95202">
        <ele>89.999975</ele>
        <time>2021-09-13T22:08:05.491Z</time>
      </trkpt>
      <trkpt lat="48.53504" lon="-3.9529">
        <ele>88.68066</ele>
        <time>2021-09-13T22:08:12.431Z</time>
      </trkpt>
      <trkpt lat="48.53513" lon="-3.95395">
        <ele>82.452274</ele>
        <time>2021-09-13T22:08:19.797Z</time>
      </trkpt>
      <trkpt lat="48.5354" lon="-3.95477">
        <ele>76.994443</ele>
        <time>2021-09-13T22:08:25.931Z</time>
      </trkpt>
      <trkpt lat="48.5356" lon="-3.95546">
        <ele>72.375415</ele>
        <time>2021-09-13T22:08:34.297Z</time>
      </trkpt>
      <trkpt lat="48.53562" lon="-3.95581">
        <ele>69.991295</ele>
        <time>2021-09-13T22:08:38.045Z</time>
      </trkpt>
      <trkpt lat="48.53592" lon="-3.95752">
        <ele>57.931294</ele>
        <time>2021-09-13T22:08:57.872Z</time>
      </trkpt>
      <trkpt lat="48.53592" lon="-3.95756">
        <ele>57.66484</ele>
        <time>2021-09-13T22:08:58.361Z</time>
      </trkpt>
      <trkpt lat="48.53587" lon="-3.95769">
        <ele>56.619783</ele>
        <time>2021-09-13T22:09:00.068Z</time>
      </trkpt>
      <trkpt lat="48.53577" lon="-3.9577">
        <ele>55.556407</ele>
        <time>2021-09-13T22:09:02.056Z</time>
      </trkpt>
      <trkpt lat="48.53543" lon="-3.95738">
        <ele>53.733058</ele>
        <time>2021-09-13T22:09:09.546Z</time>
      </trkpt>
      <trkpt lat="48.53541" lon="-3.95753">
        <ele>53.341212</ele>
        <time>2021-09-13T22:09:11.752Z</time>
      </trkpt>
      <trkpt lat="48.5356" lon="-3.95795">
        <ele>52.063455</ele>
        <time>2021-09-13T22:09:18.077Z</time>
      </trkpt>
      <trkpt lat="48.53562" lon="-3.95799">
        <ele>51.92884</ele>
        <time>2021-09-13T22:09:18.909Z</time>
      </trkpt>
      <trkpt lat="48.53588" lon="-3.95842">
        <ele>50.428298</ele>
        <time>2021-09-13T22:09:26.785Z</time>
      </trkpt>
      <trkpt lat="48.53622" lon="-3.95863">
        <ele>48.995162</ele>
        <time>2021-09-13T22:09:35.061Z</time>
      </trkpt>
      <trkpt lat="48.53619" lon="-3.95872">
        <ele>48.734428</ele>
        <time>2021-09-13T22:09:36.335Z</time>
      </trkpt>
      <trkpt lat="48.53609" lon="-3.95874">
        <ele>48.345081</ele>
        <time>2021-09-13T22:09:39.137Z</time>
      </trkpt>
      <trkpt lat="48.53573" lon="-3.95857">
        <ele>47.914638</ele>
        <time>2021-09-13T22:09:48.461Z</time>
      </trkpt>
      <trkpt lat="48.53547" lon="-3.95822">
        <ele>47.66145</ele>
        <time>2021-09-13T22:09:56.718Z</time>
      </trkpt>
      <trkpt lat="48.5351" lon="-3.95739">
        <ele>47.169857</ele>
        <time>2021-09-13T22:10:12.385Z</time>
      </trkpt>
      <trkpt lat="48.53506" lon="-3.95749">
        <ele>47.116592</ele>
        <time>2021-09-13T22:10:14.206Z</time>
      </trkpt>
      <trkpt lat="48.53494" lon="-3.95787">
        <ele>46.908354</ele>
        <time>2021-09-13T22:10:21.317Z</time>
      </trkpt>
      <trkpt lat="48.53493" lon="-3.9581">
        <ele>46.925705</ele>
        <time>2021-09-13T22:10:25.349Z</time>
      </trkpt>
      <trkpt lat="48.53518" lon="-3.95885">
        <ele>47.961312</ele>
        <time>2021-09-13T22:10:38.533Z</time>
      </trkpt>
      <trkpt lat="48.53547" lon="-3.95949">
        <ele>48.921978</ele>
        <time>2021-09-13T22:10:52.322Z</time>
      </trkpt>
      <trkpt lat="48.53606" lon="-3.95975">
        <ele>50.07293</ele>
        <time>2021-09-13T22:11:17.274Z</time>
      </trkpt>
      <trkpt lat="48.53619" lon="-3.95972">
        <ele>50.829429</ele>
        <time>2021-09-13T22:11:25.174Z</time>
      </trkpt>
      <trkpt lat="48.53639" lon="-3.95954">
        <ele>52.955154</ele>
        <time>2021-09-13T22:11:36.765Z</time>
      </trkpt>
      <trkpt lat="48.53645" lon="-3.95979">
        <ele>54.535836</ele>
        <time>2021-09-13T22:11:46.360Z</time>
      </trkpt>
      <trkpt lat="48.53645" lon="-3.95997">
        <ele>55.660054</ele>
        <time>2021-09-13T22:11:52.675Z</time>
      </trkpt>
      <trkpt lat="48.53645" lon="-3.96005">
        <ele>56.140213</ele>
        <time>2021-09-13T22:11:55.478Z</time>
      </trkpt>
      <trkpt lat="48.53653" lon="-3.9607">
        <ele>60.154505</ele>
        <time>2021-09-13T22:12:23.670Z</time>
      </trkpt>
      <trkpt lat="48.53648" lon="-3.96102">
        <ele>62.123234</ele>
        <time>2021-09-13T22:12:38.864Z</time>
      </trkpt>
      <trkpt lat="48.5364" lon="-3.9612">
        <ele>63.436295</ele>
        <time>2021-09-13T22:12:49.591Z</time>
      </trkpt>
      <trkpt lat="48.53629" lon="-3.96183">
        <ele>67.328862</ele>
        <time>2021-09-13T22:13:20.648Z</time>
      </trkpt>
      <trkpt lat="48.53632" lon="-3.96246">
        <ele>70.782623</ele>
        <time>2021-09-13T22:13:51.489Z</time>
      </trkpt>
      <trkpt lat="48.5364" lon="-3.96268">
        <ele>72.162299</ele>
        <time>2021-09-13T22:14:05.353Z</time>
      </trkpt>
      <trkpt lat="48.53659" lon="-3.96301">
        <ele>74.580217</ele>
        <time>2021-09-13T22:14:23.919Z</time>
      </trkpt>
      <trkpt lat="48.53685" lon="-3.96327">
        <ele>77.114959</ele>
        <time>2021-09-13T22:14:39.171Z</time>
      </trkpt>
      <trkpt lat="48.53705" lon="-3.96337">
        <ele>78.848159</ele>
        <time>2021-09-13T22:14:48.642Z</time>
      </trkpt>
      <trkpt lat="48.53732" lon="-3.96329">
        <ele>81.049632</ele>
        <time>2021-09-13T22:15:00.980Z</time>
      </trkpt>
      <trkpt lat="48.53742" lon="-3.96293">
        <ele>81.682768</ele>
        <time>2021-09-13T22:15:10.457Z</time>
      </trkpt>
      <trkpt lat="48.53751" lon="-3.96292">
        <ele>81.767425</ele>
        <time>2021-09-13T22:15:15.232Z</time>
      </trkpt>
      <trkpt lat="48.53756" lon="-3.96276">
        <ele>81.879195</ele>
        <time>2021-09-13T22:15:17.507Z</time>
      </trkpt>
      <trkpt lat="48.53769" lon="-3.96236">
        <ele>82.160323</ele>
        <time>2021-09-13T22:15:23.501Z</time>
      </trkpt>
      <trkpt lat="48.53845" lon="-3.96101">
        <ele>83.285849</ele>
        <time>2021-09-13T22:15:41.130Z</time>
      </trkpt>
      <trkpt lat="48.53866" lon="-3.96012">
        <ele>83.882229</ele>
        <time>2021-09-13T22:15:51.685Z</time>
      </trkpt>
      <trkpt lat="48.5398" lon="-3.95961">
        <ele>85.134288</ele>
        <time>2021-09-13T22:16:18.641Z</time>
      </trkpt>
      <trkpt lat="48.54022" lon="-3.95974">
        <ele>85.981686</ele>
        <time>2021-09-13T22:16:29.253Z</time>
      </trkpt>
      <trkpt lat="48.54089" lon="-3.96018">
        <ele>87.462039</ele>
        <time>2021-09-13T22:16:47.067Z</time>
      </trkpt>
      <trkpt lat="48.54124" lon="-3.96043">
        <ele>88.230546</ele>
        <time>2021-09-13T22:16:56.276Z</time>
      </trkpt>
      <trkpt lat="48.54222" lon="-3.96137">
        <ele>91.186191</ele>
        <time>2021-09-13T22:17:25.273Z</time>
      </trkpt>
      <trkpt lat="48.54233" lon="-3.96148">
        <ele>91.525875</ele>
        <time>2021-09-13T22:17:28.897Z</time>
      </trkpt>
      <trkpt lat="48.54392" lon="-3.9627">
        <ele>96.389681</ele>
        <time>2021-09-13T22:18:20.856Z</time>
      </trkpt>
      <trkpt lat="48.5453" lon="-3.96394">
        <ele>99.451771</ele>
        <time>2021-09-13T22:19:00.023Z</time>
      </trkpt>
      <trkpt lat="48.54563" lon="-3.96401">
        <ele>99.87103</ele>
        <time>2021-09-13T22:19:06.380Z</time>
      </trkpt>
      <trkpt lat="48.54629" lon="-3.96392">
        <ele>100.63874</ele>
        <time>2021-09-13T22:19:18.000Z</time>
      </trkpt>
      <trkpt lat="48.54646" lon="-3.9639">
        <ele>100.756083</ele>
        <time>2021-09-13T22:19:20.831Z</time>
      </trkpt>
      <trkpt lat="48.54665" lon="-3.96403">
        <ele>100.894795</ele>
        <time>2021-09-13T22:19:24.625Z</time>
      </trkpt>
      <trkpt lat="48.54765" lon="-3.96342">
        <ele>101.608628</ele>
        <time>2021-09-13T22:19:54.539Z</time>
      </trkpt>
      <trkpt lat="48.54788" lon="-3.96338">
        <ele>101.792201</ele>
        <time>2021-09-13T22:20:01.350Z</time>
      </trkpt>
      <trkpt lat="48.54798" lon="-3.9635">
        <ele>102.010628</ele>
        <time>2021-09-13T22:20:05.529Z</time>
      </trkpt>
      <trkpt lat="48.54831" lon="-3.96324">
        <ele>102.665625</ele>
        <time>2021-09-13T22:20:13.151Z</time>
      </trkpt>
      <trkpt lat="48.5496" lon="-3.96292">
        <ele>104.945654</ele>
        <time>2021-09-13T22:20:43.465Z</time>
      </trkpt>
      <trkpt lat="48.54984" lon="-3.96268">
        <ele>105.431978</ele>
        <time>2021-09-13T22:20:50.650Z</time>
      </trkpt>
      <trkpt lat="48.55013" lon="-3.96277">
        <ele>105.929694</ele>
        <time>2021-09-13T22:20:57.770Z</time>
      </trkpt>
      <trkpt lat="48.55029" lon="-3.96303">
        <ele>106.318567</ele>
        <time>2021-09-13T22:21:03.389Z</time>
      </trkpt>
      <trkpt lat="48.55044" lon="-3.96281">
        <ele>106.674846</ele>
        <time>2021-09-13T22:21:08.134Z</time>
      </trkpt>
      <trkpt lat="48.5508" lon="-3.96253">
        <ele>107.350195</ele>
        <time>2021-09-13T22:21:16.861Z</time>
      </trkpt>
      <trkpt lat="48.55093" lon="-3.96244">
        <ele>107.596243</ele>
        <time>2021-09-13T22:21:19.939Z</time>
      </trkpt>
      <trkpt lat="48.55111" lon="-3.96217">
        <ele>107.910481</ele>
        <time>2021-09-13T22:21:24.844Z</time>
      </trkpt>
      <trkpt lat="48.55143" lon="-3.96168">
        <ele>107.888234</ele>
        <time>2021-09-13T22:21:32.598Z</time>
      </trkpt>
      <trkpt lat="48.55151" lon="-3.96157">
        <ele>107.882903</ele>
        <time>2021-09-13T22:21:34.222Z</time>
      </trkpt>
      <trkpt lat="48.5523" lon="-3.96047">
        <ele>107.830921</ele>
        <time>2021-09-13T22:21:49.689Z</time>
      </trkpt>
      <trkpt lat="48.55272" lon="-3.95988">
        <ele>107.872955</ele>
        <time>2021-09-13T22:21:57.768Z</time>
      </trkpt>
      <trkpt lat="48.55307" lon="-3.96056">
        <ele>107.92943</ele>
        <time>2021-09-13T22:22:06.589Z</time>
      </trkpt>
      <trkpt lat="48.5532" lon="-3.96109">
        <ele>107.96538</ele>
        <time>2021-09-13T22:22:12.779Z</time>
      </trkpt>
      <trkpt lat="48.55357" lon="-3.96179">
        <ele>108.166258</ele>
        <time>2021-09-13T22:22:23.817Z</time>
      </trkpt>
      <trkpt lat="48.55393" lon="-3.96235">
        <ele>108.550693</ele>
        <time>2021-09-13T22:22:38.924Z</time>
      </trkpt>
      <trkpt lat="48.55431" lon="-3.96277">
        <ele>108.902836</ele>
        <time>2021-09-13T22:22:52.535Z</time>
      </trkpt>
      <trkpt lat="48.55448" lon="-3.96336">
        <ele>109.217691</ele>
        <time>2021-09-13T22:23:04.684Z</time>
      </trkpt>
      <trkpt lat="48.55461" lon="-3.9644">
        <ele>109.27691</ele>
        <time>2021-09-13T22:23:23.373Z</time>
      </trkpt>
      <trkpt lat="48.55459" lon="-3.96448">
        <ele>109.269583</ele>
        <time>2021-09-13T22:23:25.172Z</time>
      </trkpt>
      <trkpt lat="48.55465" lon="-3.96539">
        <ele>109.198497</ele>
        <time>2021-09-13T22:23:40.372Z</time>
      </trkpt>
      <trkpt lat="48.55472" lon="-3.96554">
        <ele>109.184945</ele>
        <time>2021-09-13T22:23:43.364Z</time>
      </trkpt>
      <trkpt lat="48.55729" lon="-3.96669">
        <ele>107.248074</ele>
        <time>2021-09-13T22:24:22.310Z</time>
      </trkpt>
      <trkpt lat="48.55787" lon="-3.9668">
        <ele>106.793637</ele>
        <time>2021-09-13T22:24:30.705Z</time>
      </trkpt>
      <trkpt lat="48.55883" lon="-3.96668">
        <ele>106.095197</ele>
        <time>2021-09-13T22:24:44.889Z</time>
      </trkpt>
      <trkpt lat="48.56319" lon="-3.96551">
        <ele>104.297096</ele>
        <time>2021-09-13T22:25:52.800Z</time>
      </trkpt>
      <trkpt lat="48.56393" lon="-3.96552">
        <ele>104.071042</ele>
        <time>2021-09-13T22:26:04.459Z</time>
      </trkpt>
      <trkpt lat="48.56464" lon="-3.96563">
        <ele>103.743051</ele>
        <time>2021-09-13T22:26:15.484Z</time>
      </trkpt>
      <trkpt lat="48.56482" lon="-3.96567">
        <ele>103.655461</ele>
        <time>2021-09-13T22:26:18.272Z</time>
      </trkpt>
      <trkpt lat="48.56497" lon="-3.96555">
        <ele>103.572046</ele>
        <time>2021-09-13T22:26:20.935Z</time>
      </trkpt>
      <trkpt lat="48.56632" lon="-3.9647">
        <ele>102.451954</ele>
        <time>2021-09-13T22:26:42.539Z</time>
      </trkpt>
      <trkpt lat="48.56704" lon="-3.96442">
        <ele>101.629084</ele>
        <time>2021-09-13T22:26:52.863Z</time>
      </trkpt>
      <trkpt lat="48.56845" lon="-3.96433">
        <ele>99.587652</ele>
        <time>2021-09-13T22:27:12.158Z</time>
      </trkpt>
      <trkpt lat="48.56954" lon="-3.96408">
        <ele>97.760231</ele>
        <time>2021-09-13T22:27:27.007Z</time>
      </trkpt>
      <trkpt lat="48.56994" lon="-3.96406">
        <ele>97.014493</ele>
        <time>2021-09-13T22:27:32.408Z</time>
      </trkpt>
      <trkpt lat="48.57035" lon="-3.96416">
        <ele>96.246552</ele>
        <time>2021-09-13T22:27:37.951Z</time>
      </trkpt>
      <trkpt lat="48.57164" lon="-3.96481">
        <ele>93.408581</ele>
        <time>2021-09-13T22:27:55.776Z</time>
      </trkpt>
      <trkpt lat="48.57167" lon="-3.96484">
        <ele>93.312177</ele>
        <time>2021-09-13T22:27:56.319Z</time>
      </trkpt>
      <trkpt lat="48.57299" lon="-3.96573">
        <ele>89.895145</ele>
        <time>2021-09-13T22:28:14.696Z</time>
      </trkpt>
      <trkpt lat="48.57413" lon="-3.9659">
        <ele>87.066785</ele>
        <time>2021-09-13T22:28:29.162Z</time>
      </trkpt>
      <trkpt lat="48.57625" lon="-3.96644">
        <ele>82.571973</ele>
        <time>2021-09-13T22:28:57.320Z</time>
      </trkpt>
      <trkpt lat="48.57712" lon="-3.96629">
        <ele>81.430272</ele>
        <time>2021-09-13T22:29:09.260Z</time>
      </trkpt>
      <trkpt lat="48.57786" lon="-3.96598">
        <ele>80.431855</ele>
        <time>2021-09-13T22:29:20.229Z</time>
      </trkpt>
      <trkpt lat="48.57815" lon="-3.96587">
        <ele>80.230642</ele>
        <time>2021-09-13T22:29:24.607Z</time>
      </trkpt>
      <trkpt lat="48.57898" lon="-3.96571">
        <ele>79.865086</ele>
        <time>2021-09-13T22:29:37.291Z</time>
      </trkpt>
      <trkpt lat="48.57937" lon="-3.96549">
        <ele>79.686229</ele>
        <time>2021-09-13T22:29:43.731Z</time>
      </trkpt>
      <trkpt lat="48.57987" lon="-3.96493">
        <ele>79.612194</ele>
        <time>2021-09-13T22:29:53.781Z</time>
      </trkpt>
      <trkpt lat="48.58098" lon="-3.96462">
        <ele>79.882536</ele>
        <time>2021-09-13T22:30:12.913Z</time>
      </trkpt>
      <trkpt lat="48.58152" lon="-3.9645">
        <ele>80.119961</ele>
        <time>2021-09-13T22:30:22.594Z</time>
      </trkpt>
      <trkpt lat="48.5825" lon="-3.96411">
        <ele>81.035909</ele>
        <time>2021-09-13T22:30:42.296Z</time>
      </trkpt>
      <trkpt lat="48.58403" lon="-3.96312">
        <ele>82.838652</ele>
        <time>2021-09-13T22:31:17.640Z</time>
      </trkpt>
      <trkpt lat="48.58425" lon="-3.963">
        <ele>83.122948</ele>
        <time>2021-09-13T22:31:22.424Z</time>
      </trkpt>
      <trkpt lat="48.5845" lon="-3.96298">
        <ele>83.425225</ele>
        <time>2021-09-13T22:31:27.928Z</time>
      </trkpt>
      <trkpt lat="48.58527" lon="-3.96407">
        <ele>84.233628</ele>
        <time>2021-09-13T22:31:49.256Z</time>
      </trkpt>
      <trkpt lat="48.58549" lon="-3.96407">
        <ele>84.372003</ele>
        <time>2021-09-13T22:31:53.353Z</time>
      </trkpt>
      <trkpt lat="48.58583" lon="-3.96378">
        <ele>84.614995</ele>
        <time>2021-09-13T22:32:00.445Z</time>
      </trkpt>
      <trkpt lat="48.58695" lon="-3.96472">
        <ele>84.886605</ele>
        <time>2021-09-13T22:32:22.695Z</time>
      </trkpt>
      <trkpt lat="48.58704" lon="-3.96502">
        <ele>84.891945</ele>
        <time>2021-09-13T22:32:26.581Z</time>
      </trkpt>
      <trkpt lat="48.58704" lon="-3.96519">
        <ele>84.894701</ele>
        <time>2021-09-13T22:32:28.348Z</time>
      </trkpt>
      <trkpt lat="48.58716" lon="-3.96519">
        <ele>84.897535</ele>
        <time>2021-09-13T22:32:31.320Z</time>
      </trkpt>
      <trkpt lat="48.58822" lon="-3.96462">
        <ele>84.82578</ele>
        <time>2021-09-13T22:32:59.798Z</time>
      </trkpt>
      <trkpt lat="48.58848" lon="-3.9639">
        <ele>84.756676</ele>
        <time>2021-09-13T22:33:13.592Z</time>
      </trkpt>
      <trkpt lat="48.58853" lon="-3.96383">
        <ele>84.74773</ele>
        <time>2021-09-13T22:33:15.441Z</time>
      </trkpt>
      <trkpt lat="48.58891" lon="-3.96367">
        <ele>84.698188</ele>
        <time>2021-09-13T22:33:25.361Z</time>
      </trkpt>
      <trkpt lat="48.59075" lon="-3.96291">
        <ele>83.155919</ele>
        <time>2021-09-13T22:34:10.961Z</time>
      </trkpt>
      <trkpt lat="48.59131" lon="-3.96258">
        <ele>81.875382</ele>
        <time>2021-09-13T22:34:24.123Z</time>
      </trkpt>
      <trkpt lat="48.59253" lon="-3.96167">
        <ele>78.783599</ele>
        <time>2021-09-13T22:34:53.277Z</time>
      </trkpt>
      <trkpt lat="48.5926" lon="-3.96161">
        <ele>78.543218</ele>
        <time>2021-09-13T22:34:54.941Z</time>
      </trkpt>
      <trkpt lat="48.5932" lon="-3.96125">
        <ele>76.559239</ele>
        <time>2021-09-13T22:35:03.092Z</time>
      </trkpt>
      <trkpt lat="48.59427" lon="-3.96075">
        <ele>73.000223</ele>
        <time>2021-09-13T22:35:16.566Z</time>
      </trkpt>
      <trkpt lat="48.59496" lon="-3.96056">
        <ele>70.2807</ele>
        <time>2021-09-13T22:35:24.907Z</time>
      </trkpt>
      <trkpt lat="48.59571" lon="-3.96048">
        <ele>67.351961</ele>
        <time>2021-09-13T22:35:33.749Z</time>
      </trkpt>
      <trkpt lat="48.59648" lon="-3.9604">
        <ele>64.829548</ele>
        <time>2021-09-13T22:35:42.897Z</time>
      </trkpt>
      <trkpt lat="48.59817" lon="-3.95992">
        <ele>60.118333</ele>
        <time>2021-09-13T22:36:04.632Z</time>
      </trkpt>
      <trkpt lat="48.59856" lon="-3.9599">
        <ele>59.337211</ele>
        <time>2021-09-13T22:36:09.789Z</time>
      </trkpt>
      <trkpt lat="48.59898" lon="-3.95999">
        <ele>58.489306</ele>
        <time>2021-09-13T22:36:15.376Z</time>
      </trkpt>
      <trkpt lat="48.59957" lon="-3.96013">
        <ele>57.361591</ele>
        <time>2021-09-13T22:36:23.601Z</time>
      </trkpt>
      <trkpt lat="48.59992" lon="-3.96005">
        <ele>56.8123</ele>
        <time>2021-09-13T22:36:28.588Z</time>
      </trkpt>
      <trkpt lat="48.59993" lon="-3.96024">
        <ele>56.617455</ele>
        <time>2021-09-13T22:36:31.358Z</time>
      </trkpt>
      <trkpt lat="48.60003" lon="-3.96043">
        <ele>56.362602</ele>
        <time>2021-09-13T22:36:35.212Z</time>
      </trkpt>
      <trkpt lat="48.6002" lon="-3.96051">
        <ele>56.088408</ele>
        <time>2021-09-13T22:36:39.172Z</time>
      </trkpt>
      <trkpt lat="48.60131" lon="-3.9605">
        <ele>54.218793</ele>
        <time>2021-09-13T22:37:04.071Z</time>
      </trkpt>
      <trkpt lat="48.6029" lon="-3.96025">
        <ele>50.794376</ele>
        <time>2021-09-13T22:37:38.969Z</time>
      </trkpt>
      <trkpt lat="48.60377" lon="-3.96033">
        <ele>48.031063</ele>
        <time>2021-09-13T22:37:57.166Z</time>
      </trkpt>
      <trkpt lat="48.60475" lon="-3.96011">
        <ele>44.656966</ele>
        <time>2021-09-13T22:38:17.390Z</time>
      </trkpt>
      <trkpt lat="48.60504" lon="-3.96017">
        <ele>43.341423</ele>
        <time>2021-09-13T22:38:23.111Z</time>
      </trkpt>
      <trkpt lat="48.60561" lon="-3.96016">
        <ele>40.799069</ele>
        <time>2021-09-13T22:38:34.088Z</time>
      </trkpt>
      <trkpt lat="48.60652" lon="-3.95962">
        <ele>36.533181</ele>
        <time>2021-09-13T22:38:53.078Z</time>
      </trkpt>
      <trkpt lat="48.60683" lon="-3.95994">
        <ele>35.154704</ele>
        <time>2021-09-13T22:38:57.233Z</time>
      </trkpt>
      <trkpt lat="48.60702" lon="-3.95981">
        <ele>34.400449</ele>
        <time>2021-09-13T22:38:59.647Z</time>
      </trkpt>
      <trkpt lat="48.60801" lon="-3.95968">
        <ele>30.765868</ele>
        <time>2021-09-13T22:39:11.808Z</time>
      </trkpt>
      <trkpt lat="48.6087" lon="-3.95947">
        <ele>28.963066</ele>
        <time>2021-09-13T22:39:20.844Z</time>
      </trkpt>
      <trkpt lat="48.60959" lon="-3.95893">
        <ele>26.566458</ele>
        <time>2021-09-13T22:39:41.567Z</time>
      </trkpt>
      <trkpt lat="48.60976" lon="-3.95891">
        <ele>26.13226</ele>
        <time>2021-09-13T22:39:45.220Z</time>
      </trkpt>
      <trkpt lat="48.61022" lon="-3.95906">
        <ele>24.635561</ele>
        <time>2021-09-13T22:39:55.022Z</time>
      </trkpt>
      <trkpt lat="48.61046" lon="-3.95897">
        <ele>23.830677</ele>
        <time>2021-09-13T22:40:00.248Z</time>
      </trkpt>
      <trkpt lat="48.6107" lon="-3.95876">
        <ele>22.948229</ele>
        <time>2021-09-13T22:40:05.986Z</time>
      </trkpt>
      <trkpt lat="48.61098" lon="-3.95835">
        <ele>21.699599</ele>
        <time>2021-09-13T22:40:13.963Z</time>
      </trkpt>
      <trkpt lat="48.61153" lon="-3.95728">
        <ele>18.310756</ele>
        <time>2021-09-13T22:40:31.918Z</time>
      </trkpt>
      <trkpt lat="48.61163" lon="-3.95722">
        <ele>17.832675</ele>
        <time>2021-09-13T22:40:34.200Z</time>
      </trkpt>
      <trkpt lat="48.61293" lon="-3.95785">
        <ele>12.303286</ele>
        <time>2021-09-13T22:41:00.799Z</time>
      </trkpt>
      <trkpt lat="48.61299" lon="-3.95774">
        <ele>12.088202</ele>
        <time>2021-09-13T22:41:02.053Z</time>
      </trkpt>
      <trkpt lat="48.61307" lon="-3.95781">
        <ele>11.895617</ele>
        <time>2021-09-13T22:41:03.109Z</time>
      </trkpt>
      <trkpt lat="48.6135" lon="-3.95823">
        <ele>10.826895</ele>
        <time>2021-09-13T22:41:09.223Z</time>
      </trkpt>
      <trkpt lat="48.6136" lon="-3.95836">
        <ele>10.545783</ele>
        <time>2021-09-13T22:41:11.002Z</time>
      </trkpt>
      <trkpt lat="48.6138" lon="-3.95861">
        <ele>10.00664</ele>
        <time>2021-09-13T22:41:14.264Z</time>
      </trkpt>
      <trkpt lat="48.61402" lon="-3.9587">
        <ele>9.511526</ele>
        <time>2021-09-13T22:41:17.501Z</time>
      </trkpt>
      <trkpt lat="48.6156" lon="-3.95912">
        <ele>12.003828</ele>
        <time>2021-09-13T22:41:53.738Z</time>
      </trkpt>
      <trkpt lat="48.61635" lon="-3.95941">
        <ele>14.616106</ele>
        <time>2021-09-13T22:42:21.603Z</time>
      </trkpt>
      <trkpt lat="48.61709" lon="-3.95984">
        <ele>18.683166</ele>
        <time>2021-09-13T22:42:50.517Z</time>
      </trkpt>
      <trkpt lat="48.61717" lon="-3.95996">
        <ele>19.262565</ele>
        <time>2021-09-13T22:42:55.238Z</time>
      </trkpt>
      <trkpt lat="48.61729" lon="-3.95996">
        <ele>19.883778</ele>
        <time>2021-09-13T22:43:00.255Z</time>
      </trkpt>
      <trkpt lat="48.61829" lon="-3.96052">
        <ele>25.440329</ele>
        <time>2021-09-13T22:43:39.438Z</time>
      </trkpt>
      <trkpt lat="48.61865" lon="-3.96068">
        <ele>27.381857</ele>
        <time>2021-09-13T22:43:56.800Z</time>
      </trkpt>
      <trkpt lat="48.61913" lon="-3.96103">
        <ele>30.20699</ele>
        <time>2021-09-13T22:44:21.166Z</time>
      </trkpt>
      <trkpt lat="48.61954" lon="-3.96124">
        <ele>32.505874</ele>
        <time>2021-09-13T22:44:42.443Z</time>
      </trkpt>
      <trkpt lat="48.62147" lon="-3.96157">
        <ele>41.488619</ele>
        <time>2021-09-13T22:46:12.205Z</time>
      </trkpt>
      <trkpt lat="48.6216" lon="-3.96159">
        <ele>41.732802</ele>
        <time>2021-09-13T22:46:17.510Z</time>
      </trkpt>
      <trkpt lat="48.6235" lon="-3.96113">
        <ele>43.432512</ele>
        <time>2021-09-13T22:47:13.051Z</time>
      </trkpt>
      <trkpt lat="48.62418" lon="-3.96104">
        <ele>42.189284</ele>
        <time>2021-09-13T22:47:28.067Z</time>
      </trkpt>
      <trkpt lat="48.62446" lon="-3.96107">
        <ele>41.670252</ele>
        <time>2021-09-13T22:47:34.071Z</time>
      </trkpt>
      <trkpt lat="48.62531" lon="-3.96139">
        <ele>37.745651</ele>
        <time>2021-09-13T22:47:51.259Z</time>
      </trkpt>
      <trkpt lat="48.62598" lon="-3.96177">
        <ele>33.343481</ele>
        <time>2021-09-13T22:48:04.457Z</time>
      </trkpt>
      <trkpt lat="48.6264" lon="-3.96185">
        <ele>30.784447</ele>
        <time>2021-09-13T22:48:11.862Z</time>
      </trkpt>
      <trkpt lat="48.62688" lon="-3.96131">
        <ele>27.756665</ele>
        <time>2021-09-13T22:48:18.372Z</time>
      </trkpt>
      <trkpt lat="48.62713" lon="-3.96126">
        <ele>26.602462</ele>
        <time>2021-09-13T22:48:21.020Z</time>
      </trkpt>
      <trkpt lat="48.62762" lon="-3.96162">
        <ele>24.01392</ele>
        <time>2021-09-13T22:48:26.930Z</time>
      </trkpt>
      <trkpt lat="48.6278" lon="-3.9618">
        <ele>23.02358</ele>
        <time>2021-09-13T22:48:29.221Z</time>
      </trkpt>
      <trkpt lat="48.62784" lon="-3.96166">
        <ele>22.544555</ele>
        <time>2021-09-13T22:48:31.618Z</time>
      </trkpt>
      <trkpt lat="48.62773" lon="-3.96095">
        <ele>22.399162</ele>
        <time>2021-09-13T22:48:42.044Z</time>
      </trkpt>
      <trkpt lat="48.62779" lon="-3.95983">
        <ele>24.774984</ele>
        <time>2021-09-13T22:49:10.362Z</time>
      </trkpt>
      <trkpt lat="48.62802" lon="-3.95903">
        <ele>26.607936</ele>
        <time>2021-09-13T22:49:38.557Z</time>
      </trkpt>
      <trkpt lat="48.62821" lon="-3.95861">
        <ele>28.080307</ele>
        <time>2021-09-13T22:49:55.111Z</time>
      </trkpt>
      <trkpt lat="48.62824" lon="-3.95869">
        <ele>28.481548</ele>
        <time>2021-09-13T22:49:59.499Z</time>
      </trkpt>
      <trkpt lat="48.62831" lon="-3.95869">
        <ele>28.938108</ele>
        <time>2021-09-13T22:50:02.812Z</time>
      </trkpt>
      <trkpt lat="48.62877" lon="-3.95853">
        <ele>31.912581</ele>
        <time>2021-09-13T22:50:26.285Z</time>
      </trkpt>
      <trkpt lat="48.62899" lon="-3.95944">
        <ele>35.932116</ele>
        <time>2021-09-13T22:51:00.539Z</time>
      </trkpt>
      <trkpt lat="48.62905" lon="-3.95948">
        <ele>36.329937</ele>
        <time>2021-09-13T22:51:03.579Z</time>
      </trkpt>
      <trkpt lat="48.62928" lon="-3.9591">
        <ele>38.45529</ele>
        <time>2021-09-13T22:51:21.290Z</time>
      </trkpt>
      <trkpt lat="48.62948" lon="-3.95861">
        <ele>40.177631</ele>
        <time>2021-09-13T22:51:38.606Z</time>
      </trkpt>
      <trkpt lat="48.62971" lon="-3.95852">
        <ele>41.22327</ele>
        <time>2021-09-13T22:51:48.828Z</time>
      </trkpt>
      <trkpt lat="48.63007" lon="-3.95788">
        <ele>43.696283</ele>
        <time>2021-09-13T22:52:12.067Z</time>
      </trkpt>
      <trkpt lat="48.63057" lon="-3.95744">
        <ele>46.288284</ele>
        <time>2021-09-13T22:52:30.802Z</time>
      </trkpt>
      <trkpt lat="48.63075" lon="-3.958">
        <ele>47.637617</ele>
        <time>2021-09-13T22:52:43.345Z</time>
      </trkpt>
      <trkpt lat="48.63091" lon="-3.95833">
        <ele>48.448324</ele>
        <time>2021-09-13T22:52:51.189Z</time>
      </trkpt>
      <trkpt lat="48.63122" lon="-3.95932">
        <ele>50.681171</ele>
        <time>2021-09-13T22:53:11.224Z</time>
      </trkpt>
      <trkpt lat="48.6315" lon="-3.95997">
        <ele>52.173731</ele>
        <time>2021-09-13T22:53:24.241Z</time>
      </trkpt>
      <trkpt lat="48.6319" lon="-3.96044">
        <ele>53.088592</ele>
        <time>2021-09-13T22:53:36.676Z</time>
      </trkpt>
      <trkpt lat="48.63215" lon="-3.96025">
        <ele>53.595598</ele>
        <time>2021-09-13T22:53:45.917Z</time>
      </trkpt>
      <trkpt lat="48.6327" lon="-3.95984">
        <ele>54.694284</ele>
        <time>2021-09-13T22:54:05.268Z</time>
      </trkpt>
      <trkpt lat="48.63338" lon="-3.95955">
        <ele>55.422939</ele>
        <time>2021-09-13T22:54:26.905Z</time>
      </trkpt>
      <trkpt lat="48.63359" lon="-3.95948">
        <ele>55.49305</ele>
        <time>2021-09-13T22:54:32.907Z</time>
      </trkpt>
      <trkpt lat="48.63391" lon="-3.95922">
        <ele>55.607435</ele>
        <time>2021-09-13T22:54:42.418Z</time>
      </trkpt>
      <trkpt lat="48.63434" lon="-3.95866">
        <ele>55.792893</ele>
        <time>2021-09-13T22:54:56.798Z</time>
      </trkpt>
      <trkpt lat="48.63541" lon="-3.95799">
        <ele>55.701631</ele>
        <time>2021-09-13T22:55:25.416Z</time>
      </trkpt>
      <trkpt lat="48.63563" lon="-3.95772">
        <ele>55.644443</ele>
        <time>2021-09-13T22:55:32.175Z</time>
      </trkpt>
      <trkpt lat="48.63574" lon="-3.95784">
        <ele>55.61448</ele>
        <time>2021-09-13T22:55:36.066Z</time>
      </trkpt>
      <trkpt lat="48.63587" lon="-3.9581">
        <ele>55.570481</ele>
        <time>2021-09-13T22:55:41.283Z</time>
      </trkpt>
      <trkpt lat="48.63634" lon="-3.95949">
        <ele>54.912161</ele>
        <time>2021-09-13T22:56:07.512Z</time>
      </trkpt>
      <trkpt lat="48.63672" lon="-3.96035">
        <ele>54.363294</ele>
        <time>2021-09-13T22:56:23.558Z</time>
      </trkpt>
      <trkpt lat="48.63705" lon="-3.96054">
        <ele>54.079353</ele>
        <time>2021-09-13T22:56:31.414Z</time>
      </trkpt>
      <trkpt lat="48.63723" lon="-3.96095">
        <ele>53.313648</ele>
        <time>2021-09-13T22:56:38.502Z</time>
      </trkpt>
      <trkpt lat="48.6374" lon="-3.96088">
        <ele>52.88281</ele>
        <time>2021-09-13T22:56:42.181Z</time>
      </trkpt>
      <trkpt lat="48.63762" lon="-3.96078">
        <ele>52.318574</ele>
        <time>2021-09-13T22:56:47.275Z</time>
      </trkpt>
      <trkpt lat="48.63772" lon="-3.96057">
        <ele>51.901198</ele>
        <time>2021-09-13T22:56:50.716Z</time>
      </trkpt>
      <trkpt lat="48.63773" lon="-3.96035">
        <ele>51.536212</ele>
        <time>2021-09-13T22:56:54.009Z</time>
      </trkpt>
      <trkpt lat="48.63754" lon="-3.95919">
        <ele>49.572504</ele>
        <time>2021-09-13T22:57:10.710Z</time>
      </trkpt>
      <trkpt lat="48.63746" lon="-3.95771">
        <ele>46.495818</ele>
        <time>2021-09-13T22:57:31.220Z</time>
      </trkpt>
      <trkpt lat="48.63723" lon="-3.95752">
        <ele>45.661165</ele>
        <time>2021-09-13T22:57:36.876Z</time>
      </trkpt>
      <trkpt lat="48.63735" lon="-3.95645">
        <ele>43.063006</ele>
        <time>2021-09-13T22:57:51.431Z</time>
      </trkpt>
      <trkpt lat="48.6378" lon="-3.95392">
        <ele>33.751711</ele>
        <time>2021-09-13T22:58:24.519Z</time>
      </trkpt>
      <trkpt lat="48.63793" lon="-3.95343">
        <ele>31.050404</ele>
        <time>2021-09-13T22:58:30.772Z</time>
      </trkpt>
      <trkpt lat="48.63821" lon="-3.95301">
        <ele>27.9626</ele>
        <time>2021-09-13T22:58:37.846Z</time>
      </trkpt>
      <trkpt lat="48.63908" lon="-3.95189">
        <ele>19.25335</ele>
        <time>2021-09-13T22:58:57.935Z</time>
      </trkpt>
      <trkpt lat="48.63932" lon="-3.95137">
        <ele>16.378686</ele>
        <time>2021-09-13T22:59:05.332Z</time>
      </trkpt>
      <trkpt lat="48.6393" lon="-3.9513">
        <ele>16.060839</ele>
        <time>2021-09-13T22:59:06.154Z</time>
      </trkpt>
      <trkpt lat="48.63938" lon="-3.95111">
        <ele>15.018976</ele>
        <time>2021-09-13T22:59:08.896Z</time>
      </trkpt>
      <trkpt lat="48.63987" lon="-3.95024">
        <ele>9.856033</ele>
        <time>2021-09-13T22:59:22.794Z</time>
      </trkpt>
      <trkpt lat="48.64032" lon="-3.9503">
        <ele>7.962361</ele>
        <time>2021-09-13T22:59:31.746Z</time>
      </trkpt>
      <trkpt lat="48.64047" lon="-3.95032">
        <ele>7.729791</ele>
        <time>2021-09-13T22:59:34.792Z</time>
      </trkpt>
      <trkpt lat="48.6408" lon="-3.95053">
        <ele>7.154381</ele>
        <time>2021-09-13T22:59:42.522Z</time>
      </trkpt>
      <trkpt lat="48.64091" lon="-3.9507">
        <ele>6.910751</ele>
        <time>2021-09-13T22:59:45.940Z</time>
      </trkpt>
      <trkpt lat="48.6411" lon="-3.95068">
        <ele>6.602265</ele>
        <time>2021-09-13T22:59:50.466Z</time>
      </trkpt>
      <trkpt lat="48.64184" lon="-3.95124">
        <ele>5.635393</ele>
        <time>2021-09-13T23:00:13.172Z</time>
      </trkpt>
      <trkpt lat="48.6421" lon="-3.95142">
        <ele>6.02059</ele>
        <time>2021-09-13T23:00:21.631Z</time>
      </trkpt>
      <trkpt lat="48.64222" lon="-3.95162">
        <ele>6.264591</ele>
        <time>2021-09-13T23:00:26.981Z</time>
      </trkpt>
      <trkpt lat="48.64326" lon="-3.95251">
        <ele>7.893243</ele>
        <time>2021-09-13T23:01:04.860Z</time>
      </trkpt>
      <trkpt lat="48.64383" lon="-3.95259">
        <ele>8.961431</ele>
        <time>2021-09-13T23:01:23.638Z</time>
      </trkpt>
      <trkpt lat="48.64418" lon="-3.95276">
        <ele>9.651701</ele>
        <time>2021-09-13T23:01:36.201Z</time>
      </trkpt>
      <trkpt lat="48.64423" lon="-3.95289">
        <ele>9.844787</ele>
        <time>2021-09-13T23:01:40.179Z</time>
      </trkpt>
      <trkpt lat="48.64416" lon="-3.95301">
        <ele>10.040287</ele>
        <time>2021-09-13T23:01:43.540Z</time>
      </trkpt>
      <trkpt lat="48.64432" lon="-3.95318">
        <ele>10.408809</ele>
        <time>2021-09-13T23:01:48.301Z</time>
      </trkpt>
      <trkpt lat="48.64465" lon="-3.95323">
        <ele>11.029771</ele>
        <time>2021-09-13T23:01:55.879Z</time>
      </trkpt>
      <trkpt lat="48.6447" lon="-3.9534">
        <ele>11.256017</ele>
        <time>2021-09-13T23:01:58.932Z</time>
      </trkpt>
      <trkpt lat="48.64474" lon="-3.95342">
        <ele>11.322441</ele>
        <time>2021-09-13T23:01:59.738Z</time>
      </trkpt>
      <trkpt lat="48.64487" lon="-3.95371">
        <ele>11.298885</ele>
        <time>2021-09-13T23:02:05.034Z</time>
      </trkpt>
      <trkpt lat="48.64557" lon="-3.95485">
        <ele>11.195328</ele>
        <time>2021-09-13T23:02:22.237Z</time>
      </trkpt>
      <trkpt lat="48.64651" lon="-3.95621">
        <ele>10.047825</ele>
        <time>2021-09-13T23:02:39.728Z</time>
      </trkpt>
      <trkpt lat="48.64653" lon="-3.95622">
        <ele>10.012699</ele>
        <time>2021-09-13T23:02:40.054Z</time>
      </trkpt>
      <trkpt lat="48.64668" lon="-3.95632">
        <ele>9.78288</ele>
        <time>2021-09-13T23:02:42.367Z</time>
      </trkpt>
      <trkpt lat="48.64734" lon="-3.95645">
        <ele>8.845088</ele>
        <time>2021-09-13T23:02:52.081Z</time>
      </trkpt>
      <trkpt lat="48.64761" lon="-3.9567">
        <ele>8.361152</ele>
        <time>2021-09-13T23:02:56.231Z</time>
      </trkpt>
      <trkpt lat="48.64774" lon="-3.95696">
        <ele>7.996139</ele>
        <time>2021-09-13T23:02:58.863Z</time>
      </trkpt>
      <trkpt lat="48.64789" lon="-3.95773">
        <ele>7.093095</ele>
        <time>2021-09-13T23:03:05.981Z</time>
      </trkpt>
      <trkpt lat="48.64819" lon="-3.95791">
        <ele>6.555327</ele>
        <time>2021-09-13T23:03:11.342Z</time>
      </trkpt>
      <trkpt lat="48.64827" lon="-3.95756">
        <ele>6.14002</ele>
        <time>2021-09-13T23:03:16.549Z</time>
      </trkpt>
      <trkpt lat="48.6488" lon="-3.95624">
        <ele>5.718545</ele>
        <time>2021-09-13T23:03:41.679Z</time>
      </trkpt>
      <trkpt lat="48.64911" lon="-3.95639">
        <ele>5.798867</ele>
        <time>2021-09-13T23:03:46.431Z</time>
      </trkpt>
      <trkpt lat="48.64921" lon="-3.95653">
        <ele>5.830682</ele>
        <time>2021-09-13T23:03:48.337Z</time>
      </trkpt>
      <trkpt lat="48.64928" lon="-3.95679">
        <ele>5.875941</ele>
        <time>2021-09-13T23:03:52.169Z</time>
      </trkpt>
      <trkpt lat="48.64944" lon="-3.95707">
        <ele>5.936292</ele>
        <time>2021-09-13T23:03:57.277Z</time>
      </trkpt>
      <trkpt lat="48.64948" lon="-3.95724">
        <ele>5.965412</ele>
        <time>2021-09-13T23:04:00.344Z</time>
      </trkpt>
      <trkpt lat="48.64954" lon="-3.95748">
        <ele>6.129199</ele>
        <time>2021-09-13T23:04:04.454Z</time>
      </trkpt>
      <trkpt lat="48.65" lon="-3.95784">
        <ele>7.424831</ele>
        <time>2021-09-13T23:04:22.449Z</time>
      </trkpt>
      <trkpt lat="48.65037" lon="-3.95789">
        <ele>8.384752</ele>
        <time>2021-09-13T23:04:36.474Z</time>
      </trkpt>
      <trkpt lat="48.65047" lon="-3.95781">
        <ele>8.648975</ele>
        <time>2021-09-13T23:04:40.211Z</time>
      </trkpt>
      <trkpt lat="48.65056" lon="-3.95778">
        <ele>8.891784</ele>
        <time>2021-09-13T23:04:43.642Z</time>
      </trkpt>
      <trkpt lat="48.65076" lon="-3.95783">
        <ele>9.400097</ele>
        <time>2021-09-13T23:04:51.306Z</time>
      </trkpt>
      <trkpt lat="48.65087" lon="-3.95788">
        <ele>9.705639</ele>
        <time>2021-09-13T23:04:55.235Z</time>
      </trkpt>
      <trkpt lat="48.65095" lon="-3.95759">
        <ele>10.231648</ele>
        <time>2021-09-13T23:05:00.496Z</time>
      </trkpt>
      <trkpt lat="48.65144" lon="-3.95758">
        <ele>11.299858</ele>
        <time>2021-09-13T23:05:12.810Z</time>
      </trkpt>
      <trkpt lat="48.65161" lon="-3.95825">
        <ele>12.283726</ele>
        <time>2021-09-13T23:05:24.516Z</time>
      </trkpt>
      <trkpt lat="48.65167" lon="-3.95872">
        <ele>12.945269</ele>
        <time>2021-09-13T23:05:32.601Z</time>
      </trkpt>
      <trkpt lat="48.6522" lon="-3.95838">
        <ele>14.129792</ele>
        <time>2021-09-13T23:05:46.310Z</time>
      </trkpt>
      <trkpt lat="48.65343" lon="-3.95747">
        <ele>15.192357</ele>
        <time>2021-09-13T23:06:14.764Z</time>
      </trkpt>
      <trkpt lat="48.65471" lon="-3.95652">
        <ele>14.938969</ele>
        <time>2021-09-13T23:06:36.113Z</time>
      </trkpt>
      <trkpt lat="48.65492" lon="-3.95634">
        <ele>14.779066</ele>
        <time>2021-09-13T23:06:39.576Z</time>
      </trkpt>
      <trkpt lat="48.65508" lon="-3.95625">
        <ele>14.664839</ele>
        <time>2021-09-13T23:06:42.134Z</time>
      </trkpt>
      <trkpt lat="48.6553" lon="-3.9561">
        <ele>14.5102</ele>
        <time>2021-09-13T23:06:45.536Z</time>
      </trkpt>
      <trkpt lat="48.65629" lon="-3.95594">
        <ele>14.116975</ele>
        <time>2021-09-13T23:07:00.403Z</time>
      </trkpt>
      <trkpt lat="48.65742" lon="-3.95527">
        <ele>13.928271</ele>
        <time>2021-09-13T23:07:19.692Z</time>
      </trkpt>
      <trkpt lat="48.65773" lon="-3.95508">
        <ele>14.178218</ele>
        <time>2021-09-13T23:07:25.605Z</time>
      </trkpt>
      <trkpt lat="48.65837" lon="-3.95437">
        <ele>14.76935</ele>
        <time>2021-09-13T23:07:41.132Z</time>
      </trkpt>
      <trkpt lat="48.65872" lon="-3.95428">
        <ele>15.03159</ele>
        <time>2021-09-13T23:07:48.411Z</time>
      </trkpt>
      <trkpt lat="48.65933" lon="-3.95432">
        <ele>16.154889</ele>
        <time>2021-09-13T23:08:01.415Z</time>
      </trkpt>
      <trkpt lat="48.65965" lon="-3.95457">
        <ele>16.906859</ele>
        <time>2021-09-13T23:08:09.574Z</time>
      </trkpt>
      <trkpt lat="48.65971" lon="-3.9546">
        <ele>17.050735</ele>
        <time>2021-09-13T23:08:11.261Z</time>
      </trkpt>
      <trkpt lat="48.66075" lon="-3.95519">
        <ele>19.359527</ele>
        <time>2021-09-13T23:08:42.529Z</time>
      </trkpt>
      <trkpt lat="48.66089" lon="-3.95544">
        <ele>19.744684</ele>
        <time>2021-09-13T23:08:47.764Z</time>
      </trkpt>
      <trkpt lat="48.66101" lon="-3.95627">
        <ele>20.789377</ele>
        <time>2021-09-13T23:09:01.179Z</time>
      </trkpt>
      <trkpt lat="48.66116" lon="-3.95653">
        <ele>21.222675</ele>
        <time>2021-09-13T23:09:06.334Z</time>
      </trkpt>
      <trkpt lat="48.66246" lon="-3.9576">
        <ele>23.343177</ele>
        <time>2021-09-13T23:09:37.546Z</time>
      </trkpt>
      <trkpt lat="48.66266" lon="-3.9579">
        <ele>23.665841</ele>
        <time>2021-09-13T23:09:42.541Z</time>
      </trkpt>
      <trkpt lat="48.66294" lon="-3.95858">
        <ele>24.282389</ele>
        <time>2021-09-13T23:09:52.919Z</time>
      </trkpt>
      <trkpt lat="48.6638" lon="-3.96055">
        <ele>26.933856</ele>
        <time>2021-09-13T23:10:29.937Z</time>
      </trkpt>
      <trkpt lat="48.66411" lon="-3.96147">
        <ele>27.843987</ele>
        <time>2021-09-13T23:10:45.797Z</time>
      </trkpt>
      <trkpt lat="48.66493" lon="-3.96249">
        <ele>28.873569</ele>
        <time>2021-09-13T23:11:07.488Z</time>
      </trkpt>
      <trkpt lat="48.66546" lon="-3.96269">
        <ele>29.093331</ele>
        <time>2021-09-13T23:11:16.734Z</time>
      </trkpt>
      <trkpt lat="48.66588" lon="-3.9632">
        <ele>28.600505</ele>
        <time>2021-09-13T23:11:25.159Z</time>
      </trkpt>
      <trkpt lat="48.66649" lon="-3.96377">
        <ele>27.936878</ele>
        <time>2021-09-13T23:11:35.637Z</time>
      </trkpt>
      <trkpt lat="48.66704" lon="-3.9648">
        <ele>25.918994</ele>
        <time>2021-09-13T23:11:46.719Z</time>
      </trkpt>
      <trkpt lat="48.66725" lon="-3.965">
        <ele>25.075799</ele>
        <time>2021-09-13T23:11:49.821Z</time>
      </trkpt>
      <trkpt lat="48.66765" lon="-3.9651">
        <ele>23.693328</ele>
        <time>2021-09-13T23:11:54.787Z</time>
      </trkpt>
      <trkpt lat="48.66784" lon="-3.96524">
        <ele>22.982605</ele>
        <time>2021-09-13T23:11:57.168Z</time>
      </trkpt>
      <trkpt lat="48.66846" lon="-3.96615">
        <ele>20.143828</ele>
        <time>2021-09-13T23:12:07.366Z</time>
      </trkpt>
      <trkpt lat="48.66859" lon="-3.96654">
        <ele>19.219642</ele>
        <time>2021-09-13T23:12:10.729Z</time>
      </trkpt>
      <trkpt lat="48.66863" lon="-3.96683">
        <ele>18.582894</ele>
        <time>2021-09-13T23:12:13.052Z</time>
      </trkpt>
      <trkpt lat="48.66873" lon="-3.96705">
        <ele>18.027105</ele>
        <time>2021-09-13T23:12:15.185Z</time>
      </trkpt>
      <trkpt lat="48.6694" lon="-3.9678">
        <ele>15.515973</ele>
        <time>2021-09-13T23:12:25.984Z</time>
      </trkpt>
      <trkpt lat="48.66953" lon="-3.96788">
        <ele>15.263333</ele>
        <time>2021-09-13T23:12:27.765Z</time>
      </trkpt>
      <trkpt lat="48.67005" lon="-3.96798">
        <ele>14.313152</ele>
        <time>2021-09-13T23:12:34.744Z</time>
      </trkpt>
      <trkpt lat="48.67015" lon="-3.96806">
        <ele>14.107185</ele>
        <time>2021-09-13T23:12:36.313Z</time>
      </trkpt>
      <trkpt lat="48.67048" lon="-3.96892">
        <ele>12.929278</ele>
        <time>2021-09-13T23:12:45.263Z</time>
      </trkpt>
      <trkpt lat="48.67057" lon="-3.96915">
        <ele>12.602041</ele>
        <time>2021-09-13T23:12:47.714Z</time>
      </trkpt>
      <trkpt lat="48.67098" lon="-3.9701">
        <ele>11.402113</ele>
        <time>2021-09-13T23:12:57.823Z</time>
      </trkpt>
      <trkpt lat="48.67153" lon="-3.97169">
        <ele>9.621602</ele>
        <time>2021-09-13T23:13:13.581Z</time>
      </trkpt>
      <trkpt lat="48.67219" lon="-3.97348">
        <ele>9.378835</ele>
        <time>2021-09-13T23:13:34.720Z</time>
      </trkpt>
      <trkpt lat="48.67221" lon="-3.97353">
        <ele>9.372004</ele>
        <time>2021-09-13T23:13:35.346Z</time>
      </trkpt>
      <trkpt lat="48.67232" lon="-3.97374">
        <ele>9.340394</ele>
        <time>2021-09-13T23:13:39.137Z</time>
      </trkpt>
      <trkpt lat="48.6727" lon="-3.97421">
        <ele>9.765964</ele>
        <time>2021-09-13T23:13:48.456Z</time>
      </trkpt>
      <trkpt lat="48.67356" lon="-3.97498">
        <ele>11.103873</ele>
        <time>2021-09-13T23:14:11.557Z</time>
      </trkpt>
      <trkpt lat="48.67469" lon="-3.97602">
        <ele>12.604899</ele>
        <time>2021-09-13T23:14:39.406Z</time>
      </trkpt>
      <trkpt lat="48.67543" lon="-3.97722">
        <ele>13.727942</ele>
        <time>2021-09-13T23:15:00.356Z</time>
      </trkpt>
      <trkpt lat="48.67631" lon="-3.97937">
        <ele>15.750572</ele>
        <time>2021-09-13T23:15:34.933Z</time>
      </trkpt>
      <trkpt lat="48.67632" lon="-3.97939">
        <ele>15.782214</ele>
        <time>2021-09-13T23:15:35.805Z</time>
      </trkpt>
      <trkpt lat="48.67643" lon="-3.9801">
        <ele>16.987712</ele>
        <time>2021-09-13T23:15:47.039Z</time>
      </trkpt>
      <trkpt lat="48.67641" lon="-3.98077">
        <ele>18.098573</ele>
        <time>2021-09-13T23:15:58.235Z</time>
      </trkpt>
      <trkpt lat="48.67835" lon="-3.98124">
        <ele>23.494686</ele>
        <time>2021-09-13T23:16:53.577Z</time>
      </trkpt>
      <trkpt lat="48.6793" lon="-3.98183">
        <ele>25.845726</ele>
        <time>2021-09-13T23:17:20.164Z</time>
      </trkpt>
      <trkpt lat="48.67981" lon="-3.98221">
        <ele>26.444622</ele>
        <time>2021-09-13T23:17:32.417Z</time>
      </trkpt>
      <trkpt lat="48.67993" lon="-3.98233">
        <ele>26.59556</ele>
        <time>2021-09-13T23:17:35.069Z</time>
      </trkpt>
      <trkpt lat="48.68107" lon="-3.98166">
        <ele>26.629941</ele>
        <time>2021-09-13T23:17:54.466Z</time>
      </trkpt>
      <trkpt lat="48.68061" lon="-3.98109">
        <ele>25.750932</ele>
        <time>2021-09-13T23:18:02.488Z</time>
      </trkpt>
      <trkpt lat="48.67944" lon="-3.97715">
        <ele>19.692524</ele>
        <time>2021-09-13T23:18:39.073Z</time>
      </trkpt>
      <trkpt lat="48.67937" lon="-3.97688">
        <ele>19.256458</ele>
        <time>2021-09-13T23:18:41.697Z</time>
      </trkpt>
      <trkpt lat="48.67873" lon="-3.97452">
        <ele>15.224613</ele>
        <time>2021-09-13T23:19:03.533Z</time>
      </trkpt>
      <trkpt lat="48.67868" lon="-3.97414">
        <ele>14.509665</ele>
        <time>2021-09-13T23:19:06.721Z</time>
      </trkpt>
      <trkpt lat="48.67824" lon="-3.97091">
        <ele>8.208782</ele>
        <time>2021-09-13T23:19:33.501Z</time>
      </trkpt>
      <trkpt lat="48.67819" lon="-3.97047">
        <ele>7.33946</ele>
        <time>2021-09-13T23:19:37.084Z</time>
      </trkpt>
      <trkpt lat="48.67819" lon="-3.96921">
        <ele>5.46301</ele>
        <time>2021-09-13T23:19:47.567Z</time>
      </trkpt>
      <trkpt lat="48.67858" lon="-3.96929">
        <ele>4.920293</ele>
        <time>2021-09-13T23:19:52.695Z</time>
      </trkpt>
      <trkpt lat="48.67888" lon="-3.96922">
        <ele>4.514828</ele>
        <time>2021-09-13T23:19:56.556Z</time>
      </trkpt>
      <trkpt lat="48.67937" lon="-3.9693">
        <ele>3.838573</ele>
        <time>2021-09-13T23:20:04.040Z</time>
      </trkpt>
      <trkpt lat="48.67964" lon="-3.96934">
        <ele>3.563309</ele>
        <time>2021-09-13T23:20:09.029Z</time>
      </trkpt>
      <trkpt lat="48.68008" lon="-3.96923">
        <ele>4.034806</ele>
        <time>2021-09-13T23:20:18.917Z</time>
      </trkpt>
      <trkpt lat="48.68036" lon="-3.96893">
        <ele>4.394201</ele>
        <time>2021-09-13T23:20:26.166Z</time>
      </trkpt>
      <trkpt lat="48.68108" lon="-3.96959">
        <ele>5.288774</ele>
        <time>2021-09-13T23:20:44.310Z</time>
      </trkpt>
      <trkpt lat="48.68133" lon="-3.96986">
        <ele>5.44131</ele>
        <time>2021-09-13T23:20:50.292Z</time>
      </trkpt>
      <trkpt lat="48.6816" lon="-3.97009">
        <ele>5.482561</ele>
        <time>2021-09-13T23:20:55.965Z</time>
      </trkpt>
      <trkpt lat="48.68207" lon="-3.97042">
        <ele>5.553028</ele>
        <time>2021-09-13T23:21:05.634Z</time>
      </trkpt>
      <trkpt lat="48.68238" lon="-3.97055">
        <ele>5.595993</ele>
        <time>2021-09-13T23:21:10.565Z</time>
      </trkpt>
      <trkpt lat="48.68264" lon="-3.97079">
        <ele>5.637215</ele>
        <time>2021-09-13T23:21:15.059Z</time>
      </trkpt>
      <trkpt lat="48.68275" lon="-3.97089">
        <ele>5.655029</ele>
        <time>2021-09-13T23:21:16.953Z</time>
      </trkpt>
      <trkpt lat="48.68298" lon="-3.97111">
        <ele>5.475999</ele>
        <time>2021-09-13T23:21:20.884Z</time>
      </trkpt>
      <trkpt lat="48.68328" lon="-3.97126">
        <ele>5.239151</ele>
        <time>2021-09-13T23:21:25.410Z</time>
      </trkpt>
      <trkpt lat="48.68359" lon="-3.97127">
        <ele>5.002419</ele>
        <time>2021-09-13T23:21:29.929Z</time>
      </trkpt>
      <trkpt lat="48.68371" lon="-3.97127">
        <ele>4.906655</ele>
        <time>2021-09-13T23:21:31.723Z</time>
      </trkpt>
      <trkpt lat="48.68441" lon="-3.97098">
        <ele>4.352563</ele>
        <time>2021-09-13T23:21:42.580Z</time>
      </trkpt>
      <trkpt lat="48.68576" lon="-3.97068">
        <ele>3.226941</ele>
        <time>2021-09-13T23:22:02.518Z</time>
      </trkpt>
      <trkpt lat="48.68606" lon="-3.97071">
        <ele>2.972873</ele>
        <time>2021-09-13T23:22:06.884Z</time>
      </trkpt>
      <trkpt lat="48.68632" lon="-3.9707">
        <ele>2.77731</ele>
        <time>2021-09-13T23:22:10.557Z</time>
      </trkpt>
      <trkpt lat="48.68667" lon="-3.97055">
        <ele>2.653588</ele>
        <time>2021-09-13T23:22:15.809Z</time>
      </trkpt>
      <trkpt lat="48.68703" lon="-3.97026">
        <ele>2.518586</ele>
        <time>2021-09-13T23:22:21.753Z</time>
      </trkpt>
      <trkpt lat="48.68752" lon="-3.96987">
        <ele>2.329246</ele>
        <time>2021-09-13T23:22:30.340Z</time>
      </trkpt>
      <trkpt lat="48.68756" lon="-3.96984">
        <ele>2.315327</ele>
        <time>2021-09-13T23:22:30.968Z</time>
      </trkpt>
      <trkpt lat="48.68825" lon="-3.9693">
        <ele>2.477369</ele>
        <time>2021-09-13T23:22:44.890Z</time>
      </trkpt>
      <trkpt lat="48.68833" lon="-3.96926">
        <ele>2.541918</ele>
        <time>2021-09-13T23:22:46.938Z</time>
      </trkpt>
      <trkpt lat="48.68932" lon="-3.96883">
        <ele>3.340414</ele>
        <time>2021-09-13T23:23:08.073Z</time>
      </trkpt>
      <trkpt lat="48.68942" lon="-3.96878">
        <ele>3.424102</ele>
        <time>2021-09-13T23:23:10.399Z</time>
      </trkpt>
      <trkpt lat="48.68968" lon="-3.96863">
        <ele>3.594801</ele>
        <time>2021-09-13T23:23:15.231Z</time>
      </trkpt>
      <trkpt lat="48.68981" lon="-3.96852">
        <ele>3.634174</ele>
        <time>2021-09-13T23:23:18.080Z</time>
      </trkpt>
      <trkpt lat="48.69031" lon="-3.96809">
        <ele>3.775585</ele>
        <time>2021-09-13T23:23:27.209Z</time>
      </trkpt>
      <trkpt lat="48.69029" lon="-3.96792">
        <ele>3.804365</ele>
        <time>2021-09-13T23:23:29.087Z</time>
      </trkpt>
      <trkpt lat="48.69021" lon="-3.96699">
        <ele>3.955946</ele>
        <time>2021-09-13T23:23:39.186Z</time>
      </trkpt>
      <trkpt lat="48.68989" lon="-3.96656">
        <ele>4.115314</ele>
        <time>2021-09-13T23:23:46.123Z</time>
      </trkpt>
      <trkpt lat="48.69021" lon="-3.96699">
        <ele>4.355223</ele>
        <time>2021-09-13T23:23:52.846Z</time>
      </trkpt>
      <trkpt lat="48.69029" lon="-3.96792">
        <ele>4.70023</ele>
        <time>2021-09-13T23:24:02.835Z</time>
      </trkpt>
      <trkpt lat="48.69031" lon="-3.96809">
        <ele>4.765737</ele>
        <time>2021-09-13T23:24:05.079Z</time>
      </trkpt>
      <trkpt lat="48.69046" lon="-3.96796">
        <ele>4.862619</ele>
        <time>2021-09-13T23:24:08.596Z</time>
      </trkpt>
      <trkpt lat="48.69063" lon="-3.96781">
        <ele>4.973043</ele>
        <time>2021-09-13T23:24:12.861Z</time>
      </trkpt>
      <trkpt lat="48.69078" lon="-3.96787">
        <ele>5.064029</ele>
        <time>2021-09-13T23:24:16.321Z</time>
      </trkpt>
      <trkpt lat="48.69105" lon="-3.96836">
        <ele>5.328082</ele>
        <time>2021-09-13T23:24:25.573Z</time>
      </trkpt>
      <trkpt lat="48.69138" lon="-3.96817">
        <ele>5.548225</ele>
        <time>2021-09-13T23:24:32.986Z</time>
      </trkpt>
      <trkpt lat="48.69207" lon="-3.96775">
        <ele>6.017042</ele>
        <time>2021-09-13T23:24:46.009Z</time>
      </trkpt>
      <trkpt lat="48.69257" lon="-3.96754">
        <ele>5.934978</ele>
        <time>2021-09-13T23:24:54.026Z</time>
      </trkpt>
      <trkpt lat="48.69281" lon="-3.96754">
        <ele>5.748179</ele>
        <time>2021-09-13T23:24:57.735Z</time>
      </trkpt>
      <trkpt lat="48.69304" lon="-3.96767">
        <ele>5.557555</ele>
        <time>2021-09-13T23:25:01.355Z</time>
      </trkpt>
      <trkpt lat="48.6933" lon="-3.96843">
        <ele>5.116626</ele>
        <time>2021-09-13T23:25:09.555Z</time>
      </trkpt>
      <trkpt lat="48.69341" lon="-3.96875">
        <ele>4.936125</ele>
        <time>2021-09-13T23:25:12.795Z</time>
      </trkpt>
      <trkpt lat="48.69391" lon="-3.96993">
        <ele>5.205072</ele>
        <time>2021-09-13T23:25:25.873Z</time>
      </trkpt>
      <trkpt lat="48.69459" lon="-3.97101">
        <ele>5.798452</ele>
        <time>2021-09-13T23:25:47.032Z</time>
      </trkpt>
      <trkpt lat="48.69481" lon="-3.97136">
        <ele>6.755199</ele>
        <time>2021-09-13T23:25:55.512Z</time>
      </trkpt>
      <trkpt lat="48.69481" lon="-3.97149">
        <ele>7.120063</ele>
        <time>2021-09-13T23:25:58.214Z</time>
      </trkpt>
      <trkpt lat="48.69452" lon="-3.97244">
        <ele>9.981773</ele>
        <time>2021-09-13T23:26:18.638Z</time>
      </trkpt>
      <trkpt lat="48.6941" lon="-3.97292">
        <ele>12.172844</ele>
        <time>2021-09-13T23:26:39.013Z</time>
      </trkpt>
      <trkpt lat="48.69337" lon="-3.97382">
        <ele>16.995292</ele>
        <time>2021-09-13T23:27:16.181Z</time>
      </trkpt>
      <trkpt lat="48.6938" lon="-3.97349">
        <ele>19.638733</ele>
        <time>2021-09-13T23:27:32.861Z</time>
      </trkpt>
      <trkpt lat="48.69434" lon="-3.97335">
        <ele>22.682159</ele>
        <time>2021-09-13T23:27:56.318Z</time>
      </trkpt>
      <trkpt lat="48.6944" lon="-3.97354">
        <ele>23.360355</ele>
        <time>2021-09-13T23:28:01.499Z</time>
      </trkpt>
      <trkpt lat="48.69454" lon="-3.9745">
        <ele>25.034439</ele>
        <time>2021-09-13T23:28:25.184Z</time>
      </trkpt>
      <trkpt lat="48.69458" lon="-3.97477">
        <ele>25.500011</ele>
        <time>2021-09-13T23:28:28.269Z</time>
      </trkpt>
      <trkpt lat="48.69469" lon="-3.97491">
        <ele>25.875841</ele>
        <time>2021-09-13T23:28:33.894Z</time>
      </trkpt>
      <trkpt lat="48.69502" lon="-3.97537">
        <ele>27.008412</ele>
        <time>2021-09-13T23:28:40.938Z</time>
      </trkpt>
      <trkpt lat="48.69514" lon="-3.97545">
        <ele>27.351219</ele>
        <time>2021-09-13T23:28:42.763Z</time>
      </trkpt>
      <trkpt lat="48.69537" lon="-3.97545">
        <ele>27.863727</ele>
        <time>2021-09-13T23:28:47.634Z</time>
      </trkpt>
      <trkpt lat="48.69557" lon="-3.97514">
        <ele>27.627648</ele>
        <time>2021-09-13T23:28:53.646Z</time>
      </trkpt>
      <trkpt lat="48.69571" lon="-3.97507">
        <ele>27.503754</ele>
        <time>2021-09-13T23:28:55.516Z</time>
      </trkpt>
      <trkpt lat="48.6958" lon="-3.97513">
        <ele>27.422414</ele>
        <time>2021-09-13T23:28:57.794Z</time>
      </trkpt>
      <trkpt lat="48.69593" lon="-3.97535">
        <ele>27.259826</ele>
        <time>2021-09-13T23:29:00.976Z</time>
      </trkpt>
      <trkpt lat="48.69602" lon="-3.97571">
        <ele>27.054559</ele>
        <time>2021-09-13T23:29:06.246Z</time>
      </trkpt>
      <trkpt lat="48.69593" lon="-3.97585">
        <ele>26.949751</ele>
        <time>2021-09-13T23:29:08.934Z</time>
      </trkpt>
      <trkpt lat="48.69592" lon="-3.97594">
        <ele>26.897194</ele>
        <time>2021-09-13T23:29:10.404Z</time>
      </trkpt>
      <trkpt lat="48.69592" lon="-3.97603">
        <ele>26.84734</ele>
        <time>2021-09-13T23:29:11.819Z</time>
      </trkpt>
      <trkpt lat="48.69598" lon="-3.97656">
        <ele>26.558475</ele>
        <time>2021-09-13T23:29:19.574Z</time>
      </trkpt>
      <trkpt lat="48.69644" lon="-3.97813">
        <ele>26.46972</ele>
        <time>2021-09-13T23:29:48.046Z</time>
      </trkpt>
      <trkpt lat="48.69649" lon="-3.97887">
        <ele>26.507935</ele>
        <time>2021-09-13T23:30:00.673Z</time>
      </trkpt>
      <trkpt lat="48.69646" lon="-3.97944">
        <ele>26.539009</ele>
        <time>2021-09-13T23:30:11.201Z</time>
      </trkpt>
      <trkpt lat="48.69625" lon="-3.98021">
        <ele>26.704425</ele>
        <time>2021-09-13T23:30:28.585Z</time>
      </trkpt>
      <trkpt lat="48.69601" lon="-3.98085">
        <ele>26.848806</ele>
        <time>2021-09-13T23:30:44.068Z</time>
      </trkpt>
      <trkpt lat="48.69545" lon="-3.98252">
        <ele>26.497817</ele>
        <time>2021-09-13T23:31:12.871Z</time>
      </trkpt>
      <trkpt lat="48.69597" lon="-3.98276">
        <ele>25.851685</ele>
        <time>2021-09-13T23:31:19.863Z</time>
      </trkpt>
      <trkpt lat="48.69623" lon="-3.98279">
        <ele>25.535352</ele>
        <time>2021-09-13T23:31:23.363Z</time>
      </trkpt>
      <trkpt lat="48.69651" lon="-3.98275">
        <ele>25.198138</ele>
        <time>2021-09-13T23:31:27.435Z</time>
      </trkpt>
      <trkpt lat="48.69672" lon="-3.9828">
        <ele>24.940485</ele>
        <time>2021-09-13T23:31:31.028Z</time>
      </trkpt>
      <trkpt lat="48.69678" lon="-3.98282">
        <ele>25.016388</ele>
        <time>2021-09-13T23:31:32.060Z</time>
      </trkpt>
      <trkpt lat="48.69726" lon="-3.98264">
        <ele>26.092879</ele>
        <time>2021-09-13T23:31:40.054Z</time>
      </trkpt>
      <trkpt lat="48.69696" lon="-3.98336">
        <ele>27.324195</ele>
        <time>2021-09-13T23:31:54.301Z</time>
      </trkpt>
      <trkpt lat="48.69692" lon="-3.98363">
        <ele>27.711448</ele>
        <time>2021-09-13T23:31:58.508Z</time>
      </trkpt>
      <trkpt lat="48.69696" lon="-3.9844">
        <ele>28.827521</ele>
        <time>2021-09-13T23:32:15.936Z</time>
      </trkpt>
      <trkpt lat="48.69697" lon="-3.98459">
        <ele>29.328484</ele>
        <time>2021-09-13T23:32:19.720Z</time>
      </trkpt>
      <trkpt lat="48.69701" lon="-3.98505">
        <ele>30.57448</ele>
        <time>2021-09-13T23:32:31.886Z</time>
      </trkpt>
      <trkpt lat="48.69693" lon="-3.98545">
        <ele>31.671544</ele>
        <time>2021-09-13T23:32:42.148Z</time>
      </trkpt>
      <trkpt lat="48.69654" lon="-3.98612">
        <ele>34.045565</ele>
        <time>2021-09-13T23:33:01.477Z</time>
      </trkpt>
      <trkpt lat="48.69614" lon="-3.98771">
        <ele>37.794448</ele>
        <time>2021-09-13T23:33:32.582Z</time>
      </trkpt>
      <trkpt lat="48.69588" lon="-3.98778">
        <ele>38.497059</ele>
        <time>2021-09-13T23:33:39.326Z</time>
      </trkpt>
      <trkpt lat="48.69589" lon="-3.98783">
        <ele>38.590872</ele>
        <time>2021-09-13T23:33:40.300Z</time>
      </trkpt>
      <trkpt lat="48.69602" lon="-3.98842">
        <ele>39.709059</ele>
        <time>2021-09-13T23:33:51.780Z</time>
      </trkpt>
      <trkpt lat="48.69603" lon="-3.98868">
        <ele>40.187222</ele>
        <time>2021-09-13T23:33:56.585Z</time>
      </trkpt>
      <trkpt lat="48.6954" lon="-3.99049">
        <ele>42.37494</ele>
        <time>2021-09-13T23:34:29.490Z</time>
      </trkpt>
      <trkpt lat="48.69511" lon="-3.99121">
        <ele>43.098305</ele>
        <time>2021-09-13T23:34:39.595Z</time>
      </trkpt>
      <trkpt lat="48.69553" lon="-3.99137">
        <ele>43.202116</ele>
        <time>2021-09-13T23:34:50.739Z</time>
      </trkpt>
      <trkpt lat="48.69555" lon="-3.99163">
        <ele>43.095732</ele>
        <time>2021-09-13T23:34:54.951Z</time>
      </trkpt>
      <trkpt lat="48.69571" lon="-3.99221">
        <ele>42.836349</ele>
        <time>2021-09-13T23:35:05.115Z</time>
      </trkpt>
      <trkpt lat="48.69687" lon="-3.9947">
        <ele>41.426848</ele>
        <time>2021-09-13T23:35:52.001Z</time>
      </trkpt>
      <trkpt lat="48.69708" lon="-3.99529">
        <ele>41.080507</ele>
        <time>2021-09-13T23:36:02.704Z</time>
      </trkpt>
      <trkpt lat="48.69653" lon="-3.99605">
        <ele>40.7777</ele>
        <time>2021-09-13T23:36:20.897Z</time>
      </trkpt>
      <trkpt lat="48.6961" lon="-3.99649">
        <ele>40.709767</ele>
        <time>2021-09-13T23:36:33.520Z</time>
      </trkpt>
      <trkpt lat="48.69628" lon="-3.9969">
        <ele>40.666682</ele>
        <time>2021-09-13T23:36:38.634Z</time>
      </trkpt>
      <trkpt lat="48.69641" lon="-3.99706">
        <ele>40.644779</ele>
        <time>2021-09-13T23:36:41.361Z</time>
      </trkpt>
      <trkpt lat="48.69663" lon="-3.99717">
        <ele>40.613523</ele>
        <time>2021-09-13T23:36:45.390Z</time>
      </trkpt>
      <trkpt lat="48.69566" lon="-3.99798">
        <ele>41.314379</ele>
        <time>2021-09-13T23:37:05.810Z</time>
      </trkpt>
      <trkpt lat="48.6959" lon="-3.99914">
        <ele>41.900306</ele>
        <time>2021-09-13T23:37:20.809Z</time>
      </trkpt>
      <trkpt lat="48.696" lon="-3.99982">
        <ele>42.163233</ele>
        <time>2021-09-13T23:37:29.553Z</time>
      </trkpt>
      <trkpt lat="48.69612" lon="-4.00071">
        <ele>42.505726</ele>
        <time>2021-09-13T23:37:40.711Z</time>
      </trkpt>
      <trkpt lat="48.69637" lon="-4.00151">
        <ele>42.842255</ele>
        <time>2021-09-13T23:37:50.831Z</time>
      </trkpt>
      <trkpt lat="48.69649" lon="-4.00316">
        <ele>42.466118</ele>
        <time>2021-09-13T23:38:06.903Z</time>
      </trkpt>
      <trkpt lat="48.69655" lon="-4.00388">
        <ele>42.22409</ele>
        <time>2021-09-13T23:38:13.624Z</time>
      </trkpt>
      <trkpt lat="48.69673" lon="-4.00495">
        <ele>41.569534</ele>
        <time>2021-09-13T23:38:23.453Z</time>
      </trkpt>
      <trkpt lat="48.69676" lon="-4.00558">
        <ele>40.997785</ele>
        <time>2021-09-13T23:38:29.001Z</time>
      </trkpt>
      <trkpt lat="48.69668" lon="-4.00673">
        <ele>39.963464</ele>
        <time>2021-09-13T23:38:38.800Z</time>
      </trkpt>
      <trkpt lat="48.69668" lon="-4.00794">
        <ele>38.858313</ele>
        <time>2021-09-13T23:38:48.929Z</time>
      </trkpt>
      <trkpt lat="48.69658" lon="-4.00841">
        <ele>38.395816</ele>
        <time>2021-09-13T23:38:53.163Z</time>
      </trkpt>
      <trkpt lat="48.69651" lon="-4.00843">
        <ele>38.288428</ele>
        <time>2021-09-13T23:38:54.219Z</time>
      </trkpt>
      <trkpt lat="48.69667" lon="-4.01062">
        <ele>36.216589</ele>
        <time>2021-09-13T23:39:13.240Z</time>
      </trkpt>
      <trkpt lat="48.69668" lon="-4.01084">
        <ele>36.000555</ele>
        <time>2021-09-13T23:39:15.206Z</time>
      </trkpt>
      <trkpt lat="48.69647" lon="-4.01148">
        <ele>35.318337</ele>
        <time>2021-09-13T23:39:21.349Z</time>
      </trkpt>
      <trkpt lat="48.69619" lon="-4.0127">
        <ele>34.12028</ele>
        <time>2021-09-13T23:39:32.193Z</time>
      </trkpt>
      <trkpt lat="48.69609" lon="-4.0131">
        <ele>33.762359</ele>
        <time>2021-09-13T23:39:38.405Z</time>
      </trkpt>
      <trkpt lat="48.69608" lon="-4.01432">
        <ele>32.731664</ele>
        <time>2021-09-13T23:39:56.806Z</time>
      </trkpt>
      <trkpt lat="48.69617" lon="-4.01464">
        <ele>32.440472</ele>
        <time>2021-09-13T23:40:02.017Z</time>
      </trkpt>
      <trkpt lat="48.69598" lon="-4.01449">
        <ele>32.176339</ele>
        <time>2021-09-13T23:40:07.092Z</time>
      </trkpt>
      <trkpt lat="48.69532" lon="-4.01451">
        <ele>32.238014</ele>
        <time>2021-09-13T23:40:23.619Z</time>
      </trkpt>
      <trkpt lat="48.69493" lon="-4.01451">
        <ele>32.29622</ele>
        <time>2021-09-13T23:40:33.499Z</time>
      </trkpt>
      <trkpt lat="48.69434" lon="-4.01437">
        <ele>32.387245</ele>
        <time>2021-09-13T23:40:50.165Z</time>
      </trkpt>
      <trkpt lat="48.69407" lon="-4.01489">
        <ele>32.64331</ele>
        <time>2021-09-13T23:41:02.757Z</time>
      </trkpt>
      <trkpt lat="48.69368" lon="-4.01531">
        <ele>33.066052</ele>
        <time>2021-09-13T23:41:17.075Z</time>
      </trkpt>
      <trkpt lat="48.6936" lon="-4.0157">
        <ele>33.303359</ele>
        <time>2021-09-13T23:41:25.161Z</time>
      </trkpt>
      <trkpt lat="48.69353" lon="-4.01589">
        <ele>33.429383</ele>
        <time>2021-09-13T23:41:29.339Z</time>
      </trkpt>
      <trkpt lat="48.69309" lon="-4.01597">
        <ele>33.816331</ele>
        <time>2021-09-13T23:41:42.252Z</time>
      </trkpt>
      <trkpt lat="48.69299" lon="-4.01609">
        <ele>33.926235</ele>
        <time>2021-09-13T23:41:45.982Z</time>
      </trkpt>
      <trkpt lat="48.69288" lon="-4.01643">
        <ele>33.906568</ele>
        <time>2021-09-13T23:41:52.811Z</time>
      </trkpt>
      <trkpt lat="48.69256" lon="-4.01695">
        <ele>33.680511</ele>
        <time>2021-09-13T23:42:05.489Z</time>
      </trkpt>
      <trkpt lat="48.69189" lon="-4.01742">
        <ele>33.329933</ele>
        <time>2021-09-13T23:42:23.714Z</time>
      </trkpt>
      <trkpt lat="48.6906" lon="-4.01859">
        <ele>29.513483</ele>
        <time>2021-09-13T23:42:56.236Z</time>
      </trkpt>
      <trkpt lat="48.69057" lon="-4.01866">
        <ele>29.342898</ele>
        <time>2021-09-13T23:42:57.280Z</time>
      </trkpt>
      <trkpt lat="48.69061" lon="-4.01893">
        <ele>28.729103</ele>
        <time>2021-09-13T23:43:00.750Z</time>
      </trkpt>
      <trkpt lat="48.6904" lon="-4.01929">
        <ele>27.690441</ele>
        <time>2021-09-13T23:43:06.756Z</time>
      </trkpt>
      <trkpt lat="48.68967" lon="-4.02031">
        <ele>22.904684</ele>
        <time>2021-09-13T23:43:26.024Z</time>
      </trkpt>
      <trkpt lat="48.68958" lon="-4.02036">
        <ele>22.442484</ele>
        <time>2021-09-13T23:43:27.604Z</time>
      </trkpt>
      <trkpt lat="48.6892" lon="-4.02068">
        <ele>20.21501</ele>
        <time>2021-09-13T23:43:36.000Z</time>
      </trkpt>
      <trkpt lat="48.68782" lon="-4.02216">
        <ele>13.07433</ele>
        <time>2021-09-13T23:44:09.152Z</time>
      </trkpt>
      <trkpt lat="48.68789" lon="-4.02264">
        <ele>11.814415</ele>
        <time>2021-09-13T23:44:12.881Z</time>
      </trkpt>
      <trkpt lat="48.68784" lon="-4.0227">
        <ele>11.57633</ele>
        <time>2021-09-13T23:44:13.634Z</time>
      </trkpt>
      <trkpt lat="48.68694" lon="-4.02405">
        <ele>9.781765</ele>
        <time>2021-09-13T23:44:30.988Z</time>
      </trkpt>
      <trkpt lat="48.68646" lon="-4.02438">
        <ele>9.218884</ele>
        <time>2021-09-13T23:44:39.152Z</time>
      </trkpt>
      <trkpt lat="48.68632" lon="-4.02451">
        <ele>9.056858</ele>
        <time>2021-09-13T23:44:41.945Z</time>
      </trkpt>
      <trkpt lat="48.6863" lon="-4.02454">
        <ele>9.077031</ele>
        <time>2021-09-13T23:44:42.464Z</time>
      </trkpt>
      <trkpt lat="48.68662" lon="-4.02485">
        <ele>9.342054</ele>
        <time>2021-09-13T23:44:49.296Z</time>
      </trkpt>
      <trkpt lat="48.68671" lon="-4.02507">
        <ele>9.464834</ele>
        <time>2021-09-13T23:44:52.612Z</time>
      </trkpt>
      <trkpt lat="48.68674" lon="-4.02535">
        <ele>9.593245</ele>
        <time>2021-09-13T23:44:56.334Z</time>
      </trkpt>
      <trkpt lat="48.68632" lon="-4.02801">
        <ele>10.954953</ele>
        <time>2021-09-13T23:45:32.061Z</time>
      </trkpt>
      <trkpt lat="48.68617" lon="-4.02924">
        <ele>11.63966</ele>
        <time>2021-09-13T23:45:48.011Z</time>
      </trkpt>
      <trkpt lat="48.68589" lon="-4.03054">
        <ele>12.131462</ele>
        <time>2021-09-13T23:46:05.074Z</time>
      </trkpt>
      <trkpt lat="48.68568" lon="-4.03117">
        <ele>12.347185</ele>
        <time>2021-09-13T23:46:13.513Z</time>
      </trkpt>
      <trkpt lat="48.68556" lon="-4.03162">
        <ele>12.49632</ele>
        <time>2021-09-13T23:46:19.201Z</time>
      </trkpt>
      <trkpt lat="48.6852" lon="-4.03419">
        <ele>12.703188</ele>
        <time>2021-09-13T23:46:48.392Z</time>
      </trkpt>
      <trkpt lat="48.6851" lon="-4.0343">
        <ele>12.709095</ele>
        <time>2021-09-13T23:46:50.228Z</time>
      </trkpt>
      <trkpt lat="48.68494" lon="-4.03469">
        <ele>12.694488</ele>
        <time>2021-09-13T23:46:54.652Z</time>
      </trkpt>
      <trkpt lat="48.68452" lon="-4.03554">
        <ele>12.407237</ele>
        <time>2021-09-13T23:47:04.650Z</time>
      </trkpt>
      <trkpt lat="48.68439" lon="-4.03608">
        <ele>12.251313</ele>
        <time>2021-09-13T23:47:10.089Z</time>
      </trkpt>
      <trkpt lat="48.68478" lon="-4.03685">
        <ele>11.987213</ele>
        <time>2021-09-13T23:47:19.848Z</time>
      </trkpt>
      <trkpt lat="48.68435" lon="-4.03839">
        <ele>11.919848</ele>
        <time>2021-09-13T23:47:37.314Z</time>
      </trkpt>
      <trkpt lat="48.6843" lon="-4.03875">
        <ele>11.906078</ele>
        <time>2021-09-13T23:47:41.339Z</time>
      </trkpt>
      <trkpt lat="48.68433" lon="-4.03969">
        <ele>11.860123</ele>
        <time>2021-09-13T23:47:51.897Z</time>
      </trkpt>
      <trkpt lat="48.68422" lon="-4.04034">
        <ele>11.805943</ele>
        <time>2021-09-13T23:47:59.282Z</time>
      </trkpt>
      <trkpt lat="48.68416" lon="-4.04076">
        <ele>11.771451</ele>
        <time>2021-09-13T23:48:03.718Z</time>
      </trkpt>
      <trkpt lat="48.6842" lon="-4.04131">
        <ele>11.726466</ele>
        <time>2021-09-13T23:48:09.534Z</time>
      </trkpt>
      <trkpt lat="48.68454" lon="-4.04237">
        <ele>11.582762</ele>
        <time>2021-09-13T23:48:21.566Z</time>
      </trkpt>
      <trkpt lat="48.68462" lon="-4.04295">
        <ele>11.451584</ele>
        <time>2021-09-13T23:48:27.371Z</time>
      </trkpt>
      <trkpt lat="48.68474" lon="-4.04355">
        <ele>11.310869</ele>
        <time>2021-09-13T23:48:33.733Z</time>
      </trkpt>
      <trkpt lat="48.68499" lon="-4.04412">
        <ele>11.157965</ele>
        <time>2021-09-13T23:48:40.729Z</time>
      </trkpt>
      <trkpt lat="48.68507" lon="-4.04441">
        <ele>11.089373</ele>
        <time>2021-09-13T23:48:43.896Z</time>
      </trkpt>
      <trkpt lat="48.6852" lon="-4.04537">
        <ele>11.130426</ele>
        <time>2021-09-13T23:48:54.404Z</time>
      </trkpt>
      <trkpt lat="48.68533" lon="-4.04697">
        <ele>11.284376</ele>
        <time>2021-09-13T23:49:12.652Z</time>
      </trkpt>
      <trkpt lat="48.6854" lon="-4.04787">
        <ele>11.361474</ele>
        <time>2021-09-13T23:49:22.910Z</time>
      </trkpt>
      <trkpt lat="48.68538" lon="-4.04799">
        <ele>11.371118</ele>
        <time>2021-09-13T23:49:24.252Z</time>
      </trkpt>
      <trkpt lat="48.68536" lon="-4.04814">
        <ele>11.384052</ele>
        <time>2021-09-13T23:49:26.006Z</time>
      </trkpt>
      <trkpt lat="48.68504" lon="-4.04917">
        <ele>11.47481</ele>
        <time>2021-09-13T23:49:38.727Z</time>
      </trkpt>
      <trkpt lat="48.68489" lon="-4.05015">
        <ele>11.416497</ele>
        <time>2021-09-13T23:49:49.571Z</time>
      </trkpt>
      <trkpt lat="48.6844" lon="-4.05145">
        <ele>10.848817</ele>
        <time>2021-09-13T23:50:04.720Z</time>
      </trkpt>
      <trkpt lat="48.6841" lon="-4.05206">
        <ele>10.56073</ele>
        <time>2021-09-13T23:50:12.153Z</time>
      </trkpt>
      <trkpt lat="48.68444" lon="-4.05366">
        <ele>9.346157</ele>
        <time>2021-09-13T23:50:27.250Z</time>
      </trkpt>
      <trkpt lat="48.68456" lon="-4.05454">
        <ele>8.660281</ele>
        <time>2021-09-13T23:50:35.568Z</time>
      </trkpt>
      <trkpt lat="48.68451" lon="-4.05463">
        <ele>8.571019</ele>
        <time>2021-09-13T23:50:36.569Z</time>
      </trkpt>
      <trkpt lat="48.68476" lon="-4.05491">
        <ele>8.536142</ele>
        <time>2021-09-13T23:50:41.093Z</time>
      </trkpt>
      <trkpt lat="48.68491" lon="-4.05511">
        <ele>8.653566</ele>
        <time>2021-09-13T23:50:44.204Z</time>
      </trkpt>
      <trkpt lat="48.68497" lon="-4.05521">
        <ele>8.706005</ele>
        <time>2021-09-13T23:50:45.847Z</time>
      </trkpt>
      <trkpt lat="48.685" lon="-4.05553">
        <ele>8.824244</ele>
        <time>2021-09-13T23:50:49.133Z</time>
      </trkpt>
      <trkpt lat="48.68458" lon="-4.05648">
        <ele>9.259313</ele>
        <time>2021-09-13T23:51:03.993Z</time>
      </trkpt>
      <trkpt lat="48.6844" lon="-4.05691">
        <ele>9.450918</ele>
        <time>2021-09-13T23:51:11.301Z</time>
      </trkpt>
      <trkpt lat="48.68431" lon="-4.05723">
        <ele>9.710844</ele>
        <time>2021-09-13T23:51:16.559Z</time>
      </trkpt>
      <trkpt lat="48.68419" lon="-4.05766">
        <ele>10.08006</ele>
        <time>2021-09-13T23:51:23.807Z</time>
      </trkpt>
      <trkpt lat="48.68419" lon="-4.05766">
        <ele>10.08006</ele>
        <time>2021-09-13T23:51:23.842Z</time>
      </trkpt>
      <trkpt lat="48.68416" lon="-4.05774">
        <ele>10.157063</ele>
        <time>2021-09-13T23:51:25.400Z</time>
      </trkpt>
      <trkpt lat="48.68402" lon="-4.05809">
        <ele>10.47872</ele>
        <time>2021-09-13T23:51:31.476Z</time>
      </trkpt>
      <trkpt lat="48.68369" lon="-4.05877">
        <ele>11.137636</ele>
        <time>2021-09-13T23:51:43.362Z</time>
      </trkpt>
      <trkpt lat="48.68345" lon="-4.0591">
        <ele>11.533252</ele>
        <time>2021-09-13T23:51:49.449Z</time>
      </trkpt>
      <trkpt lat="48.6832" lon="-4.05937">
        <ele>11.570602</ele>
        <time>2021-09-13T23:51:54.527Z</time>
      </trkpt>
      <trkpt lat="48.68257" lon="-4.05866">
        <ele>11.466521</ele>
        <time>2021-09-13T23:52:06.732Z</time>
      </trkpt>
      <trkpt lat="48.68174" lon="-4.05784">
        <ele>11.341868</ele>
        <time>2021-09-13T23:52:31.230Z</time>
      </trkpt>
      <trkpt lat="48.68094" lon="-4.05719">
        <ele>11.253153</ele>
        <time>2021-09-13T23:52:53.724Z</time>
      </trkpt>
      <trkpt lat="48.68015" lon="-4.05684">
        <ele>11.313375</ele>
        <time>2021-09-13T23:53:15.133Z</time>
      </trkpt>
      <trkpt lat="48.68004" lon="-4.05679">
        <ele>11.415769</ele>
        <time>2021-09-13T23:53:18.404Z</time>
      </trkpt>
      <trkpt lat="48.67946" lon="-4.05649">
        <ele>11.922645</ele>
        <time>2021-09-13T23:53:35.049Z</time>
      </trkpt>
      <trkpt lat="48.67776" lon="-4.0551">
        <ele>14.673783</ele>
        <time>2021-09-13T23:54:33.876Z</time>
      </trkpt>
      <trkpt lat="48.67759" lon="-4.05512">
        <ele>15.011594</ele>
        <time>2021-09-13T23:54:39.788Z</time>
      </trkpt>
      <trkpt lat="48.67692" lon="-4.05459">
        <ele>16.735871</ele>
        <time>2021-09-13T23:54:59.933Z</time>
      </trkpt>
      <trkpt lat="48.67641" lon="-4.0542">
        <ele>18.806937</ele>
        <time>2021-09-13T23:55:18.451Z</time>
      </trkpt>
      <trkpt lat="48.67626" lon="-4.05419">
        <ele>19.349249</ele>
        <time>2021-09-13T23:55:23.453Z</time>
      </trkpt>
      <trkpt lat="48.67592" lon="-4.05414">
        <ele>20.576029</ele>
        <time>2021-09-13T23:55:34.814Z</time>
      </trkpt>
      <trkpt lat="48.6756" lon="-4.05392">
        <ele>21.86911</ele>
        <time>2021-09-13T23:55:46.393Z</time>
      </trkpt>
      <trkpt lat="48.67483" lon="-4.05362">
        <ele>22.993526</ele>
        <time>2021-09-13T23:56:08.936Z</time>
      </trkpt>
      <trkpt lat="48.67467" lon="-4.05425">
        <ele>23.197807</ele>
        <time>2021-09-13T23:56:17.758Z</time>
      </trkpt>
      <trkpt lat="48.67448" lon="-4.05455">
        <ele>23.324551</ele>
        <time>2021-09-13T23:56:22.182Z</time>
      </trkpt>
      <trkpt lat="48.67413" lon="-4.05469">
        <ele>23.49134</ele>
        <time>2021-09-13T23:56:27.146Z</time>
      </trkpt>
      <trkpt lat="48.6735" lon="-4.05509">
        <ele>21.293282</ele>
        <time>2021-09-13T23:56:35.414Z</time>
      </trkpt>
      <trkpt lat="48.67321" lon="-4.0551">
        <ele>20.023839</ele>
        <time>2021-09-13T23:56:38.780Z</time>
      </trkpt>
      <trkpt lat="48.67292" lon="-4.05536">
        <ele>18.559881</ele>
        <time>2021-09-13T23:56:42.566Z</time>
      </trkpt>
      <trkpt lat="48.67259" lon="-4.05548">
        <ele>17.084004</ele>
        <time>2021-09-13T23:56:46.343Z</time>
      </trkpt>
      <trkpt lat="48.67257" lon="-4.05546">
        <ele>16.957556</ele>
        <time>2021-09-13T23:56:46.687Z</time>
      </trkpt>
      <trkpt lat="48.67206" lon="-4.05529">
        <ele>14.932111</ele>
        <time>2021-09-13T23:56:52.493Z</time>
      </trkpt>
      <trkpt lat="48.67184" lon="-4.0553">
        <ele>14.191707</ele>
        <time>2021-09-13T23:56:55.035Z</time>
      </trkpt>
      <trkpt lat="48.67171" lon="-4.05543">
        <ele>13.659319</ele>
        <time>2021-09-13T23:56:56.863Z</time>
      </trkpt>
      <trkpt lat="48.67092" lon="-4.05537">
        <ele>11.01556</ele>
        <time>2021-09-13T23:57:06.597Z</time>
      </trkpt>
      <trkpt lat="48.67065" lon="-4.05537">
        <ele>10.120599</ele>
        <time>2021-09-13T23:57:10.058Z</time>
      </trkpt>
      <trkpt lat="48.67022" lon="-4.05523">
        <ele>9.768511</ele>
        <time>2021-09-13T23:57:15.927Z</time>
      </trkpt>
      <trkpt lat="48.66987" lon="-4.05514">
        <ele>9.88033</ele>
        <time>2021-09-13T23:57:21.165Z</time>
      </trkpt>
      <trkpt lat="48.66928" lon="-4.05485">
        <ele>10.079001</ele>
        <time>2021-09-13T23:57:32.252Z</time>
      </trkpt>
      <trkpt lat="48.66915" lon="-4.05463">
        <ele>10.141951</ele>
        <time>2021-09-13T23:57:36.599Z</time>
      </trkpt>
      <trkpt lat="48.66912" lon="-4.05471">
        <ele>10.160226</ele>
        <time>2021-09-13T23:57:37.953Z</time>
      </trkpt>
      <trkpt lat="48.66909" lon="-4.05485">
        <ele>10.191644</ele>
        <time>2021-09-13T23:57:40.302Z</time>
      </trkpt>
      <trkpt lat="48.66908" lon="-4.05495">
        <ele>10.212225</ele>
        <time>2021-09-13T23:57:41.847Z</time>
      </trkpt>
      <trkpt lat="48.66904" lon="-4.05512">
        <ele>10.365704</ele>
        <time>2021-09-13T23:57:45.385Z</time>
      </trkpt>
      <trkpt lat="48.66872" lon="-4.05651">
        <ele>15.053161</ele>
        <time>2021-09-13T23:58:15.921Z</time>
      </trkpt>
      <trkpt lat="48.66868" lon="-4.05692">
        <ele>16.370086</ele>
        <time>2021-09-13T23:58:26.633Z</time>
      </trkpt>
      <trkpt lat="48.66827" lon="-4.05754">
        <ele>19.288714</ele>
        <time>2021-09-13T23:58:57.371Z</time>
      </trkpt>
      <trkpt lat="48.6671" lon="-4.0597">
        <ele>32.174931</ele>
        <time>2021-09-14T00:00:39.728Z</time>
      </trkpt>
      <trkpt lat="48.66764" lon="-4.06125">
        <ele>37.248274</ele>
        <time>2021-09-14T00:01:30.754Z</time>
      </trkpt>
      <trkpt lat="48.66774" lon="-4.06163">
        <ele>38.42668</ele>
        <time>2021-09-14T00:01:40.911Z</time>
      </trkpt>
      <trkpt lat="48.6678" lon="-4.06214">
        <ele>39.779801</ele>
        <time>2021-09-14T00:01:52.589Z</time>
      </trkpt>
      <trkpt lat="48.66777" lon="-4.06303">
        <ele>41.089944</ele>
        <time>2021-09-14T00:02:07.233Z</time>
      </trkpt>
      <trkpt lat="48.6672" lon="-4.0648">
        <ele>43.776364</ele>
        <time>2021-09-14T00:02:39.825Z</time>
      </trkpt>
      <trkpt lat="48.66709" lon="-4.0655">
        <ele>44.248023</ele>
        <time>2021-09-14T00:02:50.111Z</time>
      </trkpt>
      <trkpt lat="48.66709" lon="-4.06554">
        <ele>44.274997</ele>
        <time>2021-09-14T00:02:50.705Z</time>
      </trkpt>
      <trkpt lat="48.66762" lon="-4.06559">
        <ele>44.808634</ele>
        <time>2021-09-14T00:03:01.866Z</time>
      </trkpt>
      <trkpt lat="48.66942" lon="-4.06533">
        <ele>44.544303</ele>
        <time>2021-09-14T00:03:31.629Z</time>
      </trkpt>
      <trkpt lat="48.66954" lon="-4.06582">
        <ele>44.301555</ele>
        <time>2021-09-14T00:03:36.184Z</time>
      </trkpt>
      <trkpt lat="48.66963" lon="-4.0662">
        <ele>44.082678</ele>
        <time>2021-09-14T00:03:39.621Z</time>
      </trkpt>
      <trkpt lat="48.66972" lon="-4.06639">
        <ele>43.652143</ele>
        <time>2021-09-14T00:03:41.624Z</time>
      </trkpt>
      <trkpt lat="48.67097" lon="-4.06822">
        <ele>39.069612</ele>
        <time>2021-09-14T00:04:03.182Z</time>
      </trkpt>
      <trkpt lat="48.67066" lon="-4.06909">
        <ele>38.076138</ele>
        <time>2021-09-14T00:04:11.528Z</time>
      </trkpt>
      <trkpt lat="48.67059" lon="-4.06972">
        <ele>37.426892</ele>
        <time>2021-09-14T00:04:17.258Z</time>
      </trkpt>
      <trkpt lat="48.67046" lon="-4.07021">
        <ele>36.889259</ele>
        <time>2021-09-14T00:04:22.427Z</time>
      </trkpt>
      <trkpt lat="48.67057" lon="-4.07029">
        <ele>36.696777</ele>
        <time>2021-09-14T00:04:24.155Z</time>
      </trkpt>
      <trkpt lat="48.67097" lon="-4.07032">
        <ele>36.693953</ele>
        <time>2021-09-14T00:04:30.999Z</time>
      </trkpt>
      <trkpt lat="48.67109" lon="-4.07043">
        <ele>36.799229</ele>
        <time>2021-09-14T00:04:33.908Z</time>
      </trkpt>
      <trkpt lat="48.67149" lon="-4.07084">
        <ele>37.17331</ele>
        <time>2021-09-14T00:04:43.103Z</time>
      </trkpt>
      <trkpt lat="48.67154" lon="-4.07094">
        <ele>37.237413</ele>
        <time>2021-09-14T00:04:44.433Z</time>
      </trkpt>
      <trkpt lat="48.67153" lon="-4.07107">
        <ele>37.306552</ele>
        <time>2021-09-14T00:04:46.758Z</time>
      </trkpt>
      <trkpt lat="48.67105" lon="-4.07257">
        <ele>38.265894</ele>
        <time>2021-09-14T00:05:09.749Z</time>
      </trkpt>
      <trkpt lat="48.67072" lon="-4.07361">
        <ele>39.078037</ele>
        <time>2021-09-14T00:05:26.278Z</time>
      </trkpt>
      <trkpt lat="48.67034" lon="-4.0748">
        <ele>39.820432</ele>
        <time>2021-09-14T00:05:43.516Z</time>
      </trkpt>
      <trkpt lat="48.66985" lon="-4.07635">
        <ele>39.928368</ele>
        <time>2021-09-14T00:06:02.207Z</time>
      </trkpt>
      <trkpt lat="48.67058" lon="-4.0768">
        <ele>39.730353</ele>
        <time>2021-09-14T00:06:14.372Z</time>
      </trkpt>
      <trkpt lat="48.67097" lon="-4.07722">
        <ele>39.372273</ele>
        <time>2021-09-14T00:06:21.407Z</time>
      </trkpt>
      <trkpt lat="48.67216" lon="-4.07801">
        <ele>38.314287</ele>
        <time>2021-09-14T00:06:40.116Z</time>
      </trkpt>
      <trkpt lat="48.6732" lon="-4.07844">
        <ele>37.238047</ele>
        <time>2021-09-14T00:06:55.616Z</time>
      </trkpt>
      <trkpt lat="48.67374" lon="-4.0784">
        <ele>36.585738</ele>
        <time>2021-09-14T00:07:03.367Z</time>
      </trkpt>
      <trkpt lat="48.67396" lon="-4.07846">
        <ele>36.166329</ele>
        <time>2021-09-14T00:07:06.491Z</time>
      </trkpt>
      <trkpt lat="48.67424" lon="-4.07875">
        <ele>35.53416</ele>
        <time>2021-09-14T00:07:10.934Z</time>
      </trkpt>
      <trkpt lat="48.67466" lon="-4.07943">
        <ele>34.377374</ele>
        <time>2021-09-14T00:07:18.946Z</time>
      </trkpt>
      <trkpt lat="48.67521" lon="-4.0793">
        <ele>33.207934</ele>
        <time>2021-09-14T00:07:26.515Z</time>
      </trkpt>
      <trkpt lat="48.67533" lon="-4.07922">
        <ele>32.715548</ele>
        <time>2021-09-14T00:07:28.143Z</time>
      </trkpt>
      <trkpt lat="48.67577" lon="-4.07893">
        <ele>30.884175</ele>
        <time>2021-09-14T00:07:34.099Z</time>
      </trkpt>
      <trkpt lat="48.67587" lon="-4.07897">
        <ele>30.513822</ele>
        <time>2021-09-14T00:07:35.258Z</time>
      </trkpt>
      <trkpt lat="48.67592" lon="-4.07908">
        <ele>30.177982</ele>
        <time>2021-09-14T00:07:36.261Z</time>
      </trkpt>
      <trkpt lat="48.67609" lon="-4.07972">
        <ele>28.405234</ele>
        <time>2021-09-14T00:07:41.549Z</time>
      </trkpt>
      <trkpt lat="48.67649" lon="-4.07971">
        <ele>26.898723</ele>
        <time>2021-09-14T00:07:46.023Z</time>
      </trkpt>
      <trkpt lat="48.67665" lon="-4.07959">
        <ele>26.131804</ele>
        <time>2021-09-14T00:07:48.121Z</time>
      </trkpt>
      <trkpt lat="48.67724" lon="-4.07914">
        <ele>23.158192</ele>
        <time>2021-09-14T00:08:00.987Z</time>
      </trkpt>
      <trkpt lat="48.67773" lon="-4.07892">
        <ele>20.822465</ele>
        <time>2021-09-14T00:08:10.924Z</time>
      </trkpt>
      <trkpt lat="48.67843" lon="-4.07847">
        <ele>17.823796</ele>
        <time>2021-09-14T00:08:25.767Z</time>
      </trkpt>
      <trkpt lat="48.67894" lon="-4.07804">
        <ele>16.397131</ele>
        <time>2021-09-14T00:08:38.069Z</time>
      </trkpt>
      <trkpt lat="48.68044" lon="-4.07939">
        <ele>13.219746</ele>
        <time>2021-09-14T00:09:17.363Z</time>
      </trkpt>
      <trkpt lat="48.68111" lon="-4.07989">
        <ele>12.475</ele>
        <time>2021-09-14T00:09:35.263Z</time>
      </trkpt>
      <trkpt lat="48.6814" lon="-4.08048">
        <ele>12.127065</ele>
        <time>2021-09-14T00:09:47.001Z</time>
      </trkpt>
      <trkpt lat="48.6815" lon="-4.08056">
        <ele>12.095966</ele>
        <time>2021-09-14T00:09:49.908Z</time>
      </trkpt>
      <trkpt lat="48.68212" lon="-4.08033">
        <ele>11.930188</ele>
        <time>2021-09-14T00:10:05.681Z</time>
      </trkpt>
      <trkpt lat="48.6826" lon="-4.08025">
        <ele>11.803122</ele>
        <time>2021-09-14T00:10:17.842Z</time>
      </trkpt>
      <trkpt lat="48.68273" lon="-4.08029">
        <ele>11.767541</ele>
        <time>2021-09-14T00:10:21.259Z</time>
      </trkpt>
      <trkpt lat="48.68289" lon="-4.08051">
        <ele>11.712146</ele>
        <time>2021-09-14T00:10:26.596Z</time>
      </trkpt>
      <trkpt lat="48.68316" lon="-4.08146">
        <ele>11.651742</ele>
        <time>2021-09-14T00:10:43.667Z</time>
      </trkpt>
      <trkpt lat="48.68341" lon="-4.0813">
        <ele>11.629709</ele>
        <time>2021-09-14T00:10:48.031Z</time>
      </trkpt>
      <trkpt lat="48.68387" lon="-4.08114">
        <ele>11.592389</ele>
        <time>2021-09-14T00:10:55.531Z</time>
      </trkpt>
      <trkpt lat="48.68441" lon="-4.08113">
        <ele>11.661972</ele>
        <time>2021-09-14T00:11:04.295Z</time>
      </trkpt>
      <trkpt lat="48.68546" lon="-4.08113">
        <ele>12.39056</ele>
        <time>2021-09-14T00:11:23.038Z</time>
      </trkpt>
      <trkpt lat="48.68639" lon="-4.0814">
        <ele>13.241771</ele>
        <time>2021-09-14T00:11:43.725Z</time>
      </trkpt>
      <trkpt lat="48.6866" lon="-4.08142">
        <ele>13.495255</ele>
        <time>2021-09-14T00:11:48.298Z</time>
      </trkpt>
      <trkpt lat="48.68663" lon="-4.0814">
        <ele>13.545085</ele>
        <time>2021-09-14T00:11:49.105Z</time>
      </trkpt>
      <trkpt lat="48.68671" lon="-4.08143">
        <ele>13.643881</ele>
        <time>2021-09-14T00:11:50.755Z</time>
      </trkpt>
      <trkpt lat="48.68677" lon="-4.08164">
        <ele>13.830367</ele>
        <time>2021-09-14T00:11:53.997Z</time>
      </trkpt>
      <trkpt lat="48.68692" lon="-4.08213">
        <ele>14.275751</ele>
        <time>2021-09-14T00:12:01.403Z</time>
      </trkpt>
      <trkpt lat="48.68692" lon="-4.08255">
        <ele>14.626772</ele>
        <time>2021-09-14T00:12:06.976Z</time>
      </trkpt>
      <trkpt lat="48.68692" lon="-4.08328">
        <ele>15.084823</ele>
        <time>2021-09-14T00:12:16.242Z</time>
      </trkpt>
      <trkpt lat="48.68693" lon="-4.08424">
        <ele>15.217405</ele>
        <time>2021-09-14T00:12:27.227Z</time>
      </trkpt>
      <trkpt lat="48.68694" lon="-4.08445">
        <ele>15.247492</ele>
        <time>2021-09-14T00:12:29.535Z</time>
      </trkpt>
      <trkpt lat="48.68694" lon="-4.08506">
        <ele>15.331074</ele>
        <time>2021-09-14T00:12:35.654Z</time>
      </trkpt>
      <trkpt lat="48.68692" lon="-4.08547">
        <ele>15.388448</ele>
        <time>2021-09-14T00:12:39.717Z</time>
      </trkpt>
      <trkpt lat="48.6869" lon="-4.08597">
        <ele>15.430782</ele>
        <time>2021-09-14T00:12:44.506Z</time>
      </trkpt>
      <trkpt lat="48.68709" lon="-4.08603">
        <ele>15.425523</ele>
        <time>2021-09-14T00:12:47.440Z</time>
      </trkpt>
      <trkpt lat="48.68776" lon="-4.08627">
        <ele>15.406238</ele>
        <time>2021-09-14T00:12:57.935Z</time>
      </trkpt>
      <trkpt lat="48.6883" lon="-4.0882">
        <ele>15.387327</ele>
        <time>2021-09-14T00:13:35.172Z</time>
      </trkpt>
      <trkpt lat="48.68861" lon="-4.08871">
        <ele>15.39034</ele>
        <time>2021-09-14T00:13:42.870Z</time>
      </trkpt>
      <trkpt lat="48.68873" lon="-4.08885">
        <ele>15.391276</ele>
        <time>2021-09-14T00:13:45.321Z</time>
      </trkpt>
      <trkpt lat="48.68882" lon="-4.08912">
        <ele>15.392571</ele>
        <time>2021-09-14T00:13:48.521Z</time>
      </trkpt>
      <trkpt lat="48.68903" lon="-4.08905">
        <ele>15.393983</ele>
        <time>2021-09-14T00:13:51.970Z</time>
      </trkpt>
      <trkpt lat="48.68945" lon="-4.08874">
        <ele>15.318483</ele>
        <time>2021-09-14T00:13:58.909Z</time>
      </trkpt>
      <trkpt lat="48.68954" lon="-4.08866">
        <ele>15.286762</ele>
        <time>2021-09-14T00:14:00.357Z</time>
      </trkpt>
      <trkpt lat="48.68999" lon="-4.08856">
        <ele>15.155393</ele>
        <time>2021-09-14T00:14:07.354Z</time>
      </trkpt>
      <trkpt lat="48.69039" lon="-4.08833">
        <ele>15.031708</ele>
        <time>2021-09-14T00:14:14.803Z</time>
      </trkpt>
      <trkpt lat="48.69097" lon="-4.08792">
        <ele>14.87395</ele>
        <time>2021-09-14T00:14:30.148Z</time>
      </trkpt>
      <trkpt lat="48.69104" lon="-4.08799">
        <ele>14.875877</ele>
        <time>2021-09-14T00:14:36.289Z</time>
      </trkpt>
      <trkpt lat="48.69115" lon="-4.08826">
        <ele>14.880427</ele>
        <time>2021-09-14T00:14:50.715Z</time>
      </trkpt>
      <trkpt lat="48.69116" lon="-4.08829">
        <ele>14.88091</ele>
        <time>2021-09-14T00:14:52.229Z</time>
      </trkpt>
      <trkpt lat="48.69118" lon="-4.08845">
        <ele>14.88323</ele>
        <time>2021-09-14T00:14:56.050Z</time>
      </trkpt>
      <trkpt lat="48.69109" lon="-4.08905">
        <ele>14.89218</ele>
        <time>2021-09-14T00:15:06.331Z</time>
      </trkpt>
      <trkpt lat="48.69081" lon="-4.09004">
        <ele>14.907682</ele>
        <time>2021-09-14T00:15:25.661Z</time>
      </trkpt>
      <trkpt lat="48.69078" lon="-4.09072">
        <ele>14.492246</ele>
        <time>2021-09-14T00:15:37.395Z</time>
      </trkpt>
      <trkpt lat="48.69072" lon="-4.09079">
        <ele>14.383679</ele>
        <time>2021-09-14T00:15:39.106Z</time>
      </trkpt>
      <trkpt lat="48.69023" lon="-4.09108">
        <ele>13.614133</ele>
        <time>2021-09-14T00:15:50.684Z</time>
      </trkpt>
      <trkpt lat="48.69012" lon="-4.0913">
        <ele>13.349958</ele>
        <time>2021-09-14T00:15:54.745Z</time>
      </trkpt>
      <trkpt lat="48.68978" lon="-4.09139">
        <ele>12.840554</ele>
        <time>2021-09-14T00:16:02.304Z</time>
      </trkpt>
      <trkpt lat="48.68977" lon="-4.09165">
        <ele>12.585982</ele>
        <time>2021-09-14T00:16:04.477Z</time>
      </trkpt>
      <trkpt lat="48.68957" lon="-4.09201">
        <ele>12.093111</ele>
        <time>2021-09-14T00:16:08.459Z</time>
      </trkpt>
      <trkpt lat="48.68952" lon="-4.0927">
        <ele>11.182884</ele>
        <time>2021-09-14T00:16:14.407Z</time>
      </trkpt>
      <trkpt lat="48.68943" lon="-4.09271">
        <ele>10.9987</ele>
        <time>2021-09-14T00:16:15.695Z</time>
      </trkpt>
      <trkpt lat="48.68916" lon="-4.09271">
        <ele>10.463067</ele>
        <time>2021-09-14T00:16:19.169Z</time>
      </trkpt>
      <trkpt lat="48.6888" lon="-4.09283">
        <ele>9.740203</ele>
        <time>2021-09-14T00:16:23.930Z</time>
      </trkpt>
      <trkpt lat="48.6886" lon="-4.09301">
        <ele>9.281568</ele>
        <time>2021-09-14T00:16:27.090Z</time>
      </trkpt>
      <trkpt lat="48.68801" lon="-4.09374">
        <ele>8.022268</ele>
        <time>2021-09-14T00:16:37.583Z</time>
      </trkpt>
      <trkpt lat="48.68764" lon="-4.09392">
        <ele>7.460882</ele>
        <time>2021-09-14T00:16:43.018Z</time>
      </trkpt>
      <trkpt lat="48.6875" lon="-4.09395">
        <ele>7.255772</ele>
        <time>2021-09-14T00:16:44.979Z</time>
      </trkpt>
      <trkpt lat="48.68732" lon="-4.09398">
        <ele>6.994996</ele>
        <time>2021-09-14T00:16:47.464Z</time>
      </trkpt>
      <trkpt lat="48.68691" lon="-4.09394">
        <ele>6.391916</ele>
        <time>2021-09-14T00:16:53.111Z</time>
      </trkpt>
      <trkpt lat="48.68601" lon="-4.09409">
        <ele>5.270791</ele>
        <time>2021-09-14T00:17:05.263Z</time>
      </trkpt>
      <trkpt lat="48.68518" lon="-4.09417">
        <ele>4.285579</ele>
        <time>2021-09-14T00:17:16.992Z</time>
      </trkpt>
      <trkpt lat="48.68488" lon="-4.09503">
        <ele>4.040594</ele>
        <time>2021-09-14T00:17:26.229Z</time>
      </trkpt>
      <trkpt lat="48.68447" lon="-4.09606">
        <ele>4.192642</ele>
        <time>2021-09-14T00:17:38.338Z</time>
      </trkpt>
      <trkpt lat="48.68444" lon="-4.09632">
        <ele>4.226923</ele>
        <time>2021-09-14T00:17:41.451Z</time>
      </trkpt>
      <trkpt lat="48.68447" lon="-4.09657">
        <ele>4.25872</ele>
        <time>2021-09-14T00:17:44.424Z</time>
      </trkpt>
      <trkpt lat="48.68521" lon="-4.09754">
        <ele>5.550669</ele>
        <time>2021-09-14T00:18:04.631Z</time>
      </trkpt>
      <trkpt lat="48.68545" lon="-4.09804">
        <ele>6.269023</ele>
        <time>2021-09-14T00:18:13.849Z</time>
      </trkpt>
      <trkpt lat="48.6861" lon="-4.09778">
        <ele>7.471094</ele>
        <time>2021-09-14T00:18:30.370Z</time>
      </trkpt>
      <trkpt lat="48.68747" lon="-4.09801">
        <ele>10.769669</ele>
        <time>2021-09-14T00:19:07.725Z</time>
      </trkpt>
      <trkpt lat="48.68769" lon="-4.09829">
        <ele>11.453295</ele>
        <time>2021-09-14T00:19:15.152Z</time>
      </trkpt>
      <trkpt lat="48.68786" lon="-4.09836">
        <ele>11.857566</ele>
        <time>2021-09-14T00:19:19.215Z</time>
      </trkpt>
      <trkpt lat="48.68876" lon="-4.09838">
        <ele>12.644412</ele>
        <time>2021-09-14T00:19:38.371Z</time>
      </trkpt>
      <trkpt lat="48.68881" lon="-4.09885">
        <ele>12.917703</ele>
        <time>2021-09-14T00:19:44.042Z</time>
      </trkpt>
      <trkpt lat="48.68898" lon="-4.09939">
        <ele>13.267593</ele>
        <time>2021-09-14T00:19:54.514Z</time>
      </trkpt>
      <trkpt lat="48.68952" lon="-4.09948">
        <ele>13.420601</ele>
        <time>2021-09-14T00:20:08.451Z</time>
      </trkpt>
      <trkpt lat="48.68983" lon="-4.09972">
        <ele>13.410895</ele>
        <time>2021-09-14T00:20:17.131Z</time>
      </trkpt>
      <trkpt lat="48.68994" lon="-4.10028">
        <ele>13.400264</ele>
        <time>2021-09-14T00:20:26.547Z</time>
      </trkpt>
      <trkpt lat="48.69009" lon="-4.1004">
        <ele>13.395452</ele>
        <time>2021-09-14T00:20:30.895Z</time>
      </trkpt>
      <trkpt lat="48.69064" lon="-4.10052">
        <ele>13.388461</ele>
        <time>2021-09-14T00:20:40.247Z</time>
      </trkpt>
      <trkpt lat="48.69072" lon="-4.10062">
        <ele>13.418268</ele>
        <time>2021-09-14T00:20:41.999Z</time>
      </trkpt>
      <trkpt lat="48.69087" lon="-4.10157">
        <ele>13.610114</ele>
        <time>2021-09-14T00:20:53.428Z</time>
      </trkpt>
      <trkpt lat="48.69094" lon="-4.10181">
        <ele>13.661757</ele>
        <time>2021-09-14T00:20:56.611Z</time>
      </trkpt>
      <trkpt lat="48.69111" lon="-4.10232">
        <ele>13.771983</ele>
        <time>2021-09-14T00:21:03.127Z</time>
      </trkpt>
      <trkpt lat="48.69121" lon="-4.10348">
        <ele>13.800781</ele>
        <time>2021-09-14T00:21:16.471Z</time>
      </trkpt>
      <trkpt lat="48.69119" lon="-4.10412">
        <ele>13.639161</ele>
        <time>2021-09-14T00:21:27.435Z</time>
      </trkpt>
      <trkpt lat="48.69125" lon="-4.10438">
        <ele>13.570942</ele>
        <time>2021-09-14T00:21:31.929Z</time>
      </trkpt>
      <trkpt lat="48.69136" lon="-4.1045">
        <ele>13.516876</ele>
        <time>2021-09-14T00:21:35.431Z</time>
      </trkpt>
      <trkpt lat="48.6926" lon="-4.10446">
        <ele>12.659865</ele>
        <time>2021-09-14T00:22:04.337Z</time>
      </trkpt>
      <trkpt lat="48.69259" lon="-4.10485">
        <ele>12.356787</ele>
        <time>2021-09-14T00:22:10.058Z</time>
      </trkpt>
      <trkpt lat="48.69258" lon="-4.10538">
        <ele>11.939243</ele>
        <time>2021-09-14T00:22:17.999Z</time>
      </trkpt>
      <trkpt lat="48.6929" lon="-4.10623">
        <ele>11.16322</ele>
        <time>2021-09-14T00:22:32.926Z</time>
      </trkpt>
      <trkpt lat="48.69293" lon="-4.10635">
        <ele>11.0735</ele>
        <time>2021-09-14T00:22:34.093Z</time>
      </trkpt>
      <trkpt lat="48.6932" lon="-4.10691">
        <ele>10.875602</ele>
        <time>2021-09-14T00:22:40.620Z</time>
      </trkpt>
      <trkpt lat="48.69346" lon="-4.10744">
        <ele>10.68477</ele>
        <time>2021-09-14T00:22:47.181Z</time>
      </trkpt>
      <trkpt lat="48.69421" lon="-4.10997">
        <ele>10.024696</ele>
        <time>2021-09-14T00:23:16.917Z</time>
      </trkpt>
      <trkpt lat="48.69432" lon="-4.11045">
        <ele>9.925048</ele>
        <time>2021-09-14T00:23:22.092Z</time>
      </trkpt>
      <trkpt lat="48.69431" lon="-4.11055">
        <ele>9.90534</ele>
        <time>2021-09-14T00:23:23.201Z</time>
      </trkpt>
      <trkpt lat="48.69441" lon="-4.11083">
        <ele>9.844249</ele>
        <time>2021-09-14T00:23:28.076Z</time>
      </trkpt>
      <trkpt lat="48.69445" lon="-4.11124">
        <ele>9.746546</ele>
        <time>2021-09-14T00:23:34.713Z</time>
      </trkpt>
      <trkpt lat="48.69443" lon="-4.11243">
        <ele>9.007597</ele>
        <time>2021-09-14T00:23:53.215Z</time>
      </trkpt>
      <trkpt lat="48.69432" lon="-4.11291">
        <ele>8.693419</ele>
        <time>2021-09-14T00:24:01.006Z</time>
      </trkpt>
      <trkpt lat="48.69376" lon="-4.11384">
        <ele>7.900348</ele>
        <time>2021-09-14T00:24:20.395Z</time>
      </trkpt>
      <trkpt lat="48.69373" lon="-4.11398">
        <ele>7.793988</ele>
        <time>2021-09-14T00:24:22.740Z</time>
      </trkpt>
      <trkpt lat="48.69395" lon="-4.11419">
        <ele>7.522733</ele>
        <time>2021-09-14T00:24:28.836Z</time>
      </trkpt>
      <trkpt lat="48.69398" lon="-4.11431">
        <ele>7.434777</ele>
        <time>2021-09-14T00:24:30.796Z</time>
      </trkpt>
      <trkpt lat="48.69391" lon="-4.1156">
        <ele>6.536195</ele>
        <time>2021-09-14T00:24:50.947Z</time>
      </trkpt>
      <trkpt lat="48.69394" lon="-4.11589">
        <ele>6.332011</ele>
        <time>2021-09-14T00:24:55.313Z</time>
      </trkpt>
      <trkpt lat="48.69352" lon="-4.11651">
        <ele>5.678807</ele>
        <time>2021-09-14T00:25:03.433Z</time>
      </trkpt>
      <trkpt lat="48.69346" lon="-4.11668">
        <ele>5.532387</ele>
        <time>2021-09-14T00:25:05.140Z</time>
      </trkpt>
      <trkpt lat="48.69313" lon="-4.11829">
        <ele>4.267408</ele>
        <time>2021-09-14T00:25:20.855Z</time>
      </trkpt>
      <trkpt lat="48.69303" lon="-4.11961">
        <ele>4.205617</ele>
        <time>2021-09-14T00:25:42.106Z</time>
      </trkpt>
      <trkpt lat="48.69305" lon="-4.12042">
        <ele>4.242769</ele>
        <time>2021-09-14T00:25:56.005Z</time>
      </trkpt>
      <trkpt lat="48.69312" lon="-4.12208">
        <ele>4.886267</ele>
        <time>2021-09-14T00:26:29.006Z</time>
      </trkpt>
      <trkpt lat="48.69323" lon="-4.12243">
        <ele>5.139117</ele>
        <time>2021-09-14T00:26:36.673Z</time>
      </trkpt>
      <trkpt lat="48.69319" lon="-4.12245">
        <ele>5.18122</ele>
        <time>2021-09-14T00:26:37.702Z</time>
      </trkpt>
      <trkpt lat="48.69307" lon="-4.12249">
        <ele>5.306404</ele>
        <time>2021-09-14T00:26:40.728Z</time>
      </trkpt>
      <trkpt lat="48.6931" lon="-4.123">
        <ele>5.636811</ele>
        <time>2021-09-14T00:26:47.326Z</time>
      </trkpt>
      <trkpt lat="48.69306" lon="-4.12305">
        <ele>5.68649</ele>
        <time>2021-09-14T00:26:48.323Z</time>
      </trkpt>
      <trkpt lat="48.69311" lon="-4.12401">
        <ele>6.276935</ele>
        <time>2021-09-14T00:27:06.678Z</time>
      </trkpt>
      <trkpt lat="48.69313" lon="-4.1241">
        <ele>6.325825</ele>
        <time>2021-09-14T00:27:08.387Z</time>
      </trkpt>
      <trkpt lat="48.69326" lon="-4.12495">
        <ele>6.801547</ele>
        <time>2021-09-14T00:27:25.146Z</time>
      </trkpt>
      <trkpt lat="48.69329" lon="-4.12573">
        <ele>7.230302</ele>
        <time>2021-09-14T00:27:39.740Z</time>
      </trkpt>
      <trkpt lat="48.6935" lon="-4.12675">
        <ele>7.6859</ele>
        <time>2021-09-14T00:28:00.000Z</time>
      </trkpt>
      <trkpt lat="48.69361" lon="-4.12777">
        <ele>7.972302</ele>
        <time>2021-09-14T00:28:13.333Z</time>
      </trkpt>
      <trkpt lat="48.69387" lon="-4.12852">
        <ele>8.203788</ele>
        <time>2021-09-14T00:28:22.858Z</time>
      </trkpt>
      <trkpt lat="48.69366" lon="-4.12877">
        <ele>8.290702</ele>
        <time>2021-09-14T00:28:27.145Z</time>
      </trkpt>
      <trkpt lat="48.69399" lon="-4.12909">
        <ele>8.05115</ele>
        <time>2021-09-14T00:28:32.888Z</time>
      </trkpt>
      <trkpt lat="48.69414" lon="-4.12958">
        <ele>7.832629</ele>
        <time>2021-09-14T00:28:38.015Z</time>
      </trkpt>
      <trkpt lat="48.69423" lon="-4.13023">
        <ele>7.556956</ele>
        <time>2021-09-14T00:28:44.422Z</time>
      </trkpt>
      <trkpt lat="48.69429" lon="-4.13144">
        <ele>7.219398</ele>
        <time>2021-09-14T00:28:56.295Z</time>
      </trkpt>
      <trkpt lat="48.69429" lon="-4.13177">
        <ele>7.250077</ele>
        <time>2021-09-14T00:28:59.689Z</time>
      </trkpt>
      <trkpt lat="48.69424" lon="-4.13213">
        <ele>7.284854</ele>
        <time>2021-09-14T00:29:03.508Z</time>
      </trkpt>
      <trkpt lat="48.6942" lon="-4.13306">
        <ele>7.371269</ele>
        <time>2021-09-14T00:29:14.167Z</time>
      </trkpt>
      <trkpt lat="48.69409" lon="-4.13382">
        <ele>7.443354</ele>
        <time>2021-09-14T00:29:24.048Z</time>
      </trkpt>
      <trkpt lat="48.69392" lon="-4.13434">
        <ele>7.547856</ele>
        <time>2021-09-14T00:29:31.680Z</time>
      </trkpt>
      <trkpt lat="48.69384" lon="-4.1345">
        <ele>7.581282</ele>
        <time>2021-09-14T00:29:34.085Z</time>
      </trkpt>
      <trkpt lat="48.69352" lon="-4.13482">
        <ele>7.684049</ele>
        <time>2021-09-14T00:29:40.757Z</time>
      </trkpt>
      <trkpt lat="48.69282" lon="-4.13593">
        <ele>7.926029</ele>
        <time>2021-09-14T00:29:56.994Z</time>
      </trkpt>
      <trkpt lat="48.69279" lon="-4.13598">
        <ele>7.925207</ele>
        <time>2021-09-14T00:29:57.783Z</time>
      </trkpt>
      <trkpt lat="48.69264" lon="-4.13608">
        <ele>7.922518</ele>
        <time>2021-09-14T00:30:00.235Z</time>
      </trkpt>
      <trkpt lat="48.69203" lon="-4.13614">
        <ele>7.912207</ele>
        <time>2021-09-14T00:30:10.164Z</time>
      </trkpt>
      <trkpt lat="48.69174" lon="-4.13585">
        <ele>7.906384</ele>
        <time>2021-09-14T00:30:16.007Z</time>
      </trkpt>
      <trkpt lat="48.69169" lon="-4.13581">
        <ele>7.905442</ele>
        <time>2021-09-14T00:30:16.892Z</time>
      </trkpt>
      <trkpt lat="48.69102" lon="-4.13545">
        <ele>7.81486</ele>
        <time>2021-09-14T00:30:28.426Z</time>
      </trkpt>
      <trkpt lat="48.69045" lon="-4.13526">
        <ele>7.621192</ele>
        <time>2021-09-14T00:30:37.731Z</time>
      </trkpt>
      <trkpt lat="48.69044" lon="-4.13533">
        <ele>7.604838</ele>
        <time>2021-09-14T00:30:38.444Z</time>
      </trkpt>
      <trkpt lat="48.69033" lon="-4.13599">
        <ele>7.455563</ele>
        <time>2021-09-14T00:30:44.977Z</time>
      </trkpt>
      <trkpt lat="48.69012" lon="-4.13718">
        <ele>6.992576</ele>
        <time>2021-09-14T00:30:56.360Z</time>
      </trkpt>
      <trkpt lat="48.69003" lon="-4.13772">
        <ele>6.667033</ele>
        <time>2021-09-14T00:31:01.280Z</time>
      </trkpt>
      <trkpt lat="48.6898" lon="-4.13847">
        <ele>6.185321</ele>
        <time>2021-09-14T00:31:08.587Z</time>
      </trkpt>
      <trkpt lat="48.68911" lon="-4.1399">
        <ele>5.237939</ele>
        <time>2021-09-14T00:31:24.638Z</time>
      </trkpt>
      <trkpt lat="48.68906" lon="-4.14005">
        <ele>5.153749</ele>
        <time>2021-09-14T00:31:26.201Z</time>
      </trkpt>
      <trkpt lat="48.68896" lon="-4.14039">
        <ele>4.973305</ele>
        <time>2021-09-14T00:31:29.639Z</time>
      </trkpt>
      <trkpt lat="48.68893" lon="-4.14069">
        <ele>4.826575</ele>
        <time>2021-09-14T00:31:32.345Z</time>
      </trkpt>
      <trkpt lat="48.68901" lon="-4.14156">
        <ele>4.396519</ele>
        <time>2021-09-14T00:31:40.587Z</time>
      </trkpt>
      <trkpt lat="48.68915" lon="-4.14225">
        <ele>4.202234</ele>
        <time>2021-09-14T00:31:47.349Z</time>
      </trkpt>
      <trkpt lat="48.68933" lon="-4.14224">
        <ele>4.131796</ele>
        <time>2021-09-14T00:31:50.218Z</time>
      </trkpt>
      <trkpt lat="48.68939" lon="-4.1425">
        <ele>4.06272</ele>
        <time>2021-09-14T00:31:52.884Z</time>
      </trkpt>
      <trkpt lat="48.68964" lon="-4.14305">
        <ele>3.893958</ele>
        <time>2021-09-14T00:31:59.664Z</time>
      </trkpt>
      <trkpt lat="48.69089" lon="-4.14553">
        <ele>3.750712</ele>
        <time>2021-09-14T00:32:32.703Z</time>
      </trkpt>
      <trkpt lat="48.69094" lon="-4.14584">
        <ele>3.759459</ele>
        <time>2021-09-14T00:32:36.301Z</time>
      </trkpt>
      <trkpt lat="48.69095" lon="-4.14621">
        <ele>3.817428</ele>
        <time>2021-09-14T00:32:40.720Z</time>
      </trkpt>
      <trkpt lat="48.69103" lon="-4.14886">
        <ele>4.385604</ele>
        <time>2021-09-14T00:33:11.518Z</time>
      </trkpt>
      <trkpt lat="48.69105" lon="-4.14979">
        <ele>4.653069</ele>
        <time>2021-09-14T00:33:22.065Z</time>
      </trkpt>
      <trkpt lat="48.69102" lon="-4.14997">
        <ele>4.707586</ele>
        <time>2021-09-14T00:33:24.278Z</time>
      </trkpt>
      <trkpt lat="48.69136" lon="-4.15058">
        <ele>4.934669</ele>
        <time>2021-09-14T00:33:33.229Z</time>
      </trkpt>
      <trkpt lat="48.69149" lon="-4.15079">
        <ele>5.016677</ele>
        <time>2021-09-14T00:33:36.776Z</time>
      </trkpt>
      <trkpt lat="48.69176" lon="-4.151">
        <ele>5.225283</ele>
        <time>2021-09-14T00:33:42.304Z</time>
      </trkpt>
      <trkpt lat="48.69144" lon="-4.15203">
        <ele>6.289377</ele>
        <time>2021-09-14T00:34:05.155Z</time>
      </trkpt>
      <trkpt lat="48.69141" lon="-4.1525">
        <ele>6.732578</ele>
        <time>2021-09-14T00:34:15.285Z</time>
      </trkpt>
      <trkpt lat="48.6914" lon="-4.15259">
        <ele>6.815621</ele>
        <time>2021-09-14T00:34:17.339Z</time>
      </trkpt>
      <trkpt lat="48.69122" lon="-4.15318">
        <ele>7.425655</ele>
        <time>2021-09-14T00:34:31.409Z</time>
      </trkpt>
      <trkpt lat="48.6912" lon="-4.15326">
        <ele>7.50814</ele>
        <time>2021-09-14T00:34:33.269Z</time>
      </trkpt>
      <trkpt lat="48.69097" lon="-4.15405">
        <ele>8.22572</ele>
        <time>2021-09-14T00:34:51.202Z</time>
      </trkpt>
      <trkpt lat="48.69052" lon="-4.15478">
        <ele>9.014959</ele>
        <time>2021-09-14T00:35:06.154Z</time>
      </trkpt>
      <trkpt lat="48.68971" lon="-4.15501">
        <ele>9.790314</ele>
        <time>2021-09-14T00:35:22.006Z</time>
      </trkpt>
      <trkpt lat="48.6897" lon="-4.15505">
        <ele>9.780016</ele>
        <time>2021-09-14T00:35:22.426Z</time>
      </trkpt>
      <trkpt lat="48.68968" lon="-4.15538">
        <ele>9.697627</ele>
        <time>2021-09-14T00:35:25.818Z</time>
      </trkpt>
      <trkpt lat="48.68958" lon="-4.15585">
        <ele>9.574541</ele>
        <time>2021-09-14T00:35:30.480Z</time>
      </trkpt>
      <trkpt lat="48.68903" lon="-4.15786">
        <ele>8.922924</ele>
        <time>2021-09-14T00:35:50.571Z</time>
      </trkpt>
      <trkpt lat="48.6889" lon="-4.15876">
        <ele>8.509716</ele>
        <time>2021-09-14T00:35:58.825Z</time>
      </trkpt>
      <trkpt lat="48.68885" lon="-4.15936">
        <ele>8.235822</ele>
        <time>2021-09-14T00:36:04.453Z</time>
      </trkpt>
      <trkpt lat="48.68875" lon="-4.16004">
        <ele>7.928756</ele>
        <time>2021-09-14T00:36:10.983Z</time>
      </trkpt>
      <trkpt lat="48.68872" lon="-4.16028">
        <ele>7.87372</ele>
        <time>2021-09-14T00:36:13.369Z</time>
      </trkpt>
      <trkpt lat="48.68863" lon="-4.16083">
        <ele>7.749818</ele>
        <time>2021-09-14T00:36:18.719Z</time>
      </trkpt>
      <trkpt lat="48.6885" lon="-4.16167">
        <ele>7.558422</ele>
        <time>2021-09-14T00:36:27.059Z</time>
      </trkpt>
      <trkpt lat="48.68849" lon="-4.16177">
        <ele>7.536571</ele>
        <time>2021-09-14T00:36:28.042Z</time>
      </trkpt>
      <trkpt lat="48.68839" lon="-4.16233">
        <ele>7.408159</ele>
        <time>2021-09-14T00:36:33.741Z</time>
      </trkpt>
      <trkpt lat="48.68777" lon="-4.16598">
        <ele>6.692436</ele>
        <time>2021-09-14T00:37:10.352Z</time>
      </trkpt>
      <trkpt lat="48.6877" lon="-4.1664">
        <ele>6.609849</ele>
        <time>2021-09-14T00:37:14.516Z</time>
      </trkpt>
      <trkpt lat="48.68772" lon="-4.16643">
        <ele>6.601366</ele>
        <time>2021-09-14T00:37:14.947Z</time>
      </trkpt>
      <trkpt lat="48.68768" lon="-4.16652">
        <ele>6.579293</ele>
        <time>2021-09-14T00:37:16.039Z</time>
      </trkpt>
      <trkpt lat="48.68769" lon="-4.1666">
        <ele>6.564327</ele>
        <time>2021-09-14T00:37:16.837Z</time>
      </trkpt>
      <trkpt lat="48.68768" lon="-4.16669">
        <ele>6.547617</ele>
        <time>2021-09-14T00:37:17.716Z</time>
      </trkpt>
      <trkpt lat="48.68766" lon="-4.16705">
        <ele>6.47689</ele>
        <time>2021-09-14T00:37:21.451Z</time>
      </trkpt>
      <trkpt lat="48.68753" lon="-4.16765">
        <ele>6.354917</ele>
        <time>2021-09-14T00:37:27.973Z</time>
      </trkpt>
      <trkpt lat="48.68739" lon="-4.1681">
        <ele>6.242326</ele>
        <time>2021-09-14T00:37:33.163Z</time>
      </trkpt>
      <trkpt lat="48.68731" lon="-4.16836">
        <ele>6.168553</ele>
        <time>2021-09-14T00:37:36.063Z</time>
      </trkpt>
      <trkpt lat="48.68707" lon="-4.16887">
        <ele>6.006376</ele>
        <time>2021-09-14T00:37:42.382Z</time>
      </trkpt>
      <trkpt lat="48.68688" lon="-4.16918">
        <ele>5.898035</ele>
        <time>2021-09-14T00:37:46.576Z</time>
      </trkpt>
      <trkpt lat="48.68686" lon="-4.16923">
        <ele>5.882104</ele>
        <time>2021-09-14T00:37:47.189Z</time>
      </trkpt>
      <trkpt lat="48.68672" lon="-4.16932">
        <ele>5.823764</ele>
        <time>2021-09-14T00:37:49.477Z</time>
      </trkpt>
      <trkpt lat="48.68671" lon="-4.16942">
        <ele>5.797713</ele>
        <time>2021-09-14T00:37:50.481Z</time>
      </trkpt>
      <trkpt lat="48.68658" lon="-4.16981">
        <ele>5.684403</ele>
        <time>2021-09-14T00:37:54.869Z</time>
      </trkpt>
      <trkpt lat="48.68637" lon="-4.17034">
        <ele>5.592219</ele>
        <time>2021-09-14T00:38:01.041Z</time>
      </trkpt>
      <trkpt lat="48.68598" lon="-4.17104">
        <ele>5.580634</ele>
        <time>2021-09-14T00:38:10.391Z</time>
      </trkpt>
      <trkpt lat="48.68587" lon="-4.17135">
        <ele>5.576258</ele>
        <time>2021-09-14T00:38:14.029Z</time>
      </trkpt>
      <trkpt lat="48.68566" lon="-4.17255">
        <ele>5.598754</ele>
        <time>2021-09-14T00:38:28.282Z</time>
      </trkpt>
      <trkpt lat="48.68555" lon="-4.17293">
        <ele>5.83631</ele>
        <time>2021-09-14T00:38:33.177Z</time>
      </trkpt>
      <trkpt lat="48.68532" lon="-4.17299">
        <ele>6.036699</ele>
        <time>2021-09-14T00:38:37.468Z</time>
      </trkpt>
      <trkpt lat="48.68455" lon="-4.17272">
        <ele>6.735929</ele>
        <time>2021-09-14T00:38:53.046Z</time>
      </trkpt>
      <trkpt lat="48.68379" lon="-4.17245">
        <ele>7.635761</ele>
        <time>2021-09-14T00:39:10.346Z</time>
      </trkpt>
      <trkpt lat="48.6833" lon="-4.17249">
        <ele>8.412584</ele>
        <time>2021-09-14T00:39:21.264Z</time>
      </trkpt>
      <trkpt lat="48.68309" lon="-4.17321">
        <ele>9.221753</ele>
        <time>2021-09-14T00:39:32.764Z</time>
      </trkpt>
      <trkpt lat="48.68276" lon="-4.17391">
        <ele>10.137414</ele>
        <time>2021-09-14T00:39:45.832Z</time>
      </trkpt>
      <trkpt lat="48.68251" lon="-4.17444">
        <ele>10.917491</ele>
        <time>2021-09-14T00:39:56.149Z</time>
      </trkpt>
      <trkpt lat="48.68234" lon="-4.17501">
        <ele>11.66251</ele>
        <time>2021-09-14T00:40:06.025Z</time>
      </trkpt>
      <trkpt lat="48.68223" lon="-4.1756">
        <ele>12.397721</ele>
        <time>2021-09-14T00:40:15.607Z</time>
      </trkpt>
      <trkpt lat="48.68212" lon="-4.17582">
        <ele>12.727511</ele>
        <time>2021-09-14T00:40:20.014Z</time>
      </trkpt>
      <trkpt lat="48.68159" lon="-4.17657">
        <ele>13.870167</ele>
        <time>2021-09-14T00:40:36.296Z</time>
      </trkpt>
      <trkpt lat="48.68101" lon="-4.17697">
        <ele>14.779752</ele>
        <time>2021-09-14T00:40:50.230Z</time>
      </trkpt>
      <trkpt lat="48.68153" lon="-4.17729">
        <ele>15.576329</ele>
        <time>2021-09-14T00:41:01.831Z</time>
      </trkpt>
      <trkpt lat="48.68166" lon="-4.17745">
        <ele>15.798098</ele>
        <time>2021-09-14T00:41:05.262Z</time>
      </trkpt>
      <trkpt lat="48.6818" lon="-4.17767">
        <ele>15.907483</ele>
        <time>2021-09-14T00:41:09.246Z</time>
      </trkpt>
      <trkpt lat="48.68197" lon="-4.17842">
        <ele>16.185919</ele>
        <time>2021-09-14T00:41:19.327Z</time>
      </trkpt>
      <trkpt lat="48.68208" lon="-4.17895">
        <ele>16.382155</ele>
        <time>2021-09-14T00:41:25.753Z</time>
      </trkpt>
      <trkpt lat="48.68225" lon="-4.17953">
        <ele>16.605607</ele>
        <time>2021-09-14T00:41:32.447Z</time>
      </trkpt>
      <trkpt lat="48.68229" lon="-4.17983">
        <ele>16.715236</ele>
        <time>2021-09-14T00:41:35.785Z</time>
      </trkpt>
      <trkpt lat="48.68247" lon="-4.18096">
        <ele>15.867741</ele>
        <time>2021-09-14T00:41:46.818Z</time>
      </trkpt>
      <trkpt lat="48.68252" lon="-4.18109">
        <ele>15.735455</ele>
        <time>2021-09-14T00:41:48.160Z</time>
      </trkpt>
      <trkpt lat="48.68286" lon="-4.18115">
        <ele>15.300866</ele>
        <time>2021-09-14T00:41:52.549Z</time>
      </trkpt>
      <trkpt lat="48.68289" lon="-4.1813">
        <ele>15.170598</ele>
        <time>2021-09-14T00:41:53.838Z</time>
      </trkpt>
      <trkpt lat="48.68285" lon="-4.18182">
        <ele>14.729295</ele>
        <time>2021-09-14T00:41:58.115Z</time>
      </trkpt>
      <trkpt lat="48.68274" lon="-4.1833">
        <ele>13.068465</ele>
        <time>2021-09-14T00:42:10.726Z</time>
      </trkpt>
      <trkpt lat="48.68257" lon="-4.18468">
        <ele>11.403005</ele>
        <time>2021-09-14T00:42:23.346Z</time>
      </trkpt>
      <trkpt lat="48.68242" lon="-4.18539">
        <ele>11.051334</ele>
        <time>2021-09-14T00:42:30.382Z</time>
      </trkpt>
      <trkpt lat="48.68222" lon="-4.18588">
        <ele>10.877586</ele>
        <time>2021-09-14T00:42:36.015Z</time>
      </trkpt>
      <trkpt lat="48.6821" lon="-4.18611">
        <ele>10.792093</ele>
        <time>2021-09-14T00:42:38.894Z</time>
      </trkpt>
      <trkpt lat="48.68189" lon="-4.18649">
        <ele>10.642004</ele>
        <time>2021-09-14T00:42:44.201Z</time>
      </trkpt>
      <trkpt lat="48.68175" lon="-4.18685">
        <ele>10.51849</ele>
        <time>2021-09-14T00:42:48.848Z</time>
      </trkpt>
      <trkpt lat="48.68161" lon="-4.18744">
        <ele>10.388557</ele>
        <time>2021-09-14T00:42:55.980Z</time>
      </trkpt>
      <trkpt lat="48.68145" lon="-4.18769">
        <ele>10.354592</ele>
        <time>2021-09-14T00:42:59.736Z</time>
      </trkpt>
      <trkpt lat="48.68111" lon="-4.18781">
        <ele>10.304045</ele>
        <time>2021-09-14T00:43:05.122Z</time>
      </trkpt>
      <trkpt lat="48.6811" lon="-4.18782">
        <ele>10.30309</ele>
        <time>2021-09-14T00:43:05.292Z</time>
      </trkpt>
      <trkpt lat="48.68079" lon="-4.18802">
        <ele>10.253778</ele>
        <time>2021-09-14T00:43:10.487Z</time>
      </trkpt>
      <trkpt lat="48.68082" lon="-4.18816">
        <ele>10.238888</ele>
        <time>2021-09-14T00:43:12.091Z</time>
      </trkpt>
      <trkpt lat="48.68076" lon="-4.18837">
        <ele>10.217498</ele>
        <time>2021-09-14T00:43:14.377Z</time>
      </trkpt>
      <trkpt lat="48.68087" lon="-4.18871">
        <ele>10.181311</ele>
        <time>2021-09-14T00:43:18.287Z</time>
      </trkpt>
      <trkpt lat="48.6809" lon="-4.18876">
        <ele>10.174376</ele>
        <time>2021-09-14T00:43:19.018Z</time>
      </trkpt>
      <trkpt lat="48.681" lon="-4.18897">
        <ele>10.153597</ele>
        <time>2021-09-14T00:43:21.694Z</time>
      </trkpt>
      <trkpt lat="48.68124" lon="-4.18918">
        <ele>10.14934</ele>
        <time>2021-09-14T00:43:28.684Z</time>
      </trkpt>
      <trkpt lat="48.68135" lon="-4.18939">
        <ele>10.146651</ele>
        <time>2021-09-14T00:43:33.131Z</time>
      </trkpt>
      <trkpt lat="48.68141" lon="-4.18962">
        <ele>10.14418</ele>
        <time>2021-09-14T00:43:37.183Z</time>
      </trkpt>
      <trkpt lat="48.68136" lon="-4.18983">
        <ele>10.14191</ele>
        <time>2021-09-14T00:43:40.895Z</time>
      </trkpt>
      <trkpt lat="48.68111" lon="-4.19025">
        <ele>10.136143</ele>
        <time>2021-09-14T00:43:50.313Z</time>
      </trkpt>
      <trkpt lat="48.68075" lon="-4.19084">
        <ele>10.128111</ele>
        <time>2021-09-14T00:44:03.621Z</time>
      </trkpt>
      <trkpt lat="48.68059" lon="-4.19142">
        <ele>10.295667</ele>
        <time>2021-09-14T00:44:14.914Z</time>
      </trkpt>
      <trkpt lat="48.68058" lon="-4.19171">
        <ele>10.397615</ele>
        <time>2021-09-14T00:44:20.228Z</time>
      </trkpt>
      <trkpt lat="48.68074" lon="-4.19211">
        <ele>10.564785</ele>
        <time>2021-09-14T00:44:28.995Z</time>
      </trkpt>
      <trkpt lat="48.68045" lon="-4.19212">
        <ele>10.724462</ele>
        <time>2021-09-14T00:44:34.561Z</time>
      </trkpt>
      <trkpt lat="48.68014" lon="-4.1921">
        <ele>10.887555</ele>
        <time>2021-09-14T00:44:40.253Z</time>
      </trkpt>
      <trkpt lat="48.67978" lon="-4.19241">
        <ele>11.095767</ele>
        <time>2021-09-14T00:44:48.102Z</time>
      </trkpt>
      <trkpt lat="48.67943" lon="-4.19282">
        <ele>11.12334</ele>
        <time>2021-09-14T00:44:56.220Z</time>
      </trkpt>
      <trkpt lat="48.6794" lon="-4.19289">
        <ele>11.126889</ele>
        <time>2021-09-14T00:44:57.204Z</time>
      </trkpt>
      <trkpt lat="48.67893" lon="-4.19368">
        <ele>11.171121</ele>
        <time>2021-09-14T00:45:09.084Z</time>
      </trkpt>
      <trkpt lat="48.67806" lon="-4.19488">
        <ele>10.442081</ele>
        <time>2021-09-14T00:45:25.342Z</time>
      </trkpt>
      <trkpt lat="48.67791" lon="-4.19513">
        <ele>10.155326</ele>
        <time>2021-09-14T00:45:28.263Z</time>
      </trkpt>
      <trkpt lat="48.67774" lon="-4.1954">
        <ele>9.850914</ele>
        <time>2021-09-14T00:45:31.392Z</time>
      </trkpt>
      <trkpt lat="48.6775" lon="-4.19574">
        <ele>9.43835</ele>
        <time>2021-09-14T00:45:35.621Z</time>
      </trkpt>
      <trkpt lat="48.67748" lon="-4.19576">
        <ele>9.407301</ele>
        <time>2021-09-14T00:45:35.940Z</time>
      </trkpt>
      <trkpt lat="48.67723" lon="-4.19609">
        <ele>8.996934</ele>
        <time>2021-09-14T00:45:40.153Z</time>
      </trkpt>
      <trkpt lat="48.67685" lon="-4.1966">
        <ele>8.518375</ele>
        <time>2021-09-14T00:45:46.748Z</time>
      </trkpt>
      <trkpt lat="48.67668" lon="-4.19693">
        <ele>8.272821</ele>
        <time>2021-09-14T00:45:50.302Z</time>
      </trkpt>
      <trkpt lat="48.6762" lon="-4.19865">
        <ele>7.347768</ele>
        <time>2021-09-14T00:46:07.593Z</time>
      </trkpt>
      <trkpt lat="48.67618" lon="-4.19875">
        <ele>7.358811</ele>
        <time>2021-09-14T00:46:08.758Z</time>
      </trkpt>
      <trkpt lat="48.67601" lon="-4.19954">
        <ele>7.446997</ele>
        <time>2021-09-14T00:46:18.104Z</time>
      </trkpt>
      <trkpt lat="48.6759" lon="-4.20073">
        <ele>7.574514</ele>
        <time>2021-09-14T00:46:31.773Z</time>
      </trkpt>
      <trkpt lat="48.67593" lon="-4.20075">
        <ele>7.578798</ele>
        <time>2021-09-14T00:46:32.440Z</time>
      </trkpt>
      <trkpt lat="48.6759" lon="-4.20073">
        <ele>7.583082</ele>
        <time>2021-09-14T00:46:33.149Z</time>
      </trkpt>
      <trkpt lat="48.67576" lon="-4.20109">
        <ele>7.585191</ele>
        <time>2021-09-14T00:46:37.493Z</time>
      </trkpt>
      <trkpt lat="48.67528" lon="-4.20181">
        <ele>7.467076</ele>
        <time>2021-09-14T00:46:47.729Z</time>
      </trkpt>
      <trkpt lat="48.67498" lon="-4.20277">
        <ele>7.344491</ele>
        <time>2021-09-14T00:46:58.110Z</time>
      </trkpt>
      <trkpt lat="48.67484" lon="-4.20298">
        <ele>7.311016</ele>
        <time>2021-09-14T00:47:00.869Z</time>
      </trkpt>
      <trkpt lat="48.67428" lon="-4.2034">
        <ele>7.176813</ele>
        <time>2021-09-14T00:47:09.847Z</time>
      </trkpt>
      <trkpt lat="48.67379" lon="-4.20378">
        <ele>7.053189</ele>
        <time>2021-09-14T00:47:17.895Z</time>
      </trkpt>
      <trkpt lat="48.67366" lon="-4.20383">
        <ele>7.023928</ele>
        <time>2021-09-14T00:47:19.882Z</time>
      </trkpt>
      <trkpt lat="48.67338" lon="-4.20379">
        <ele>6.962137</ele>
        <time>2021-09-14T00:47:24.268Z</time>
      </trkpt>
      <trkpt lat="48.67317" lon="-4.20368">
        <ele>6.911648</ele>
        <time>2021-09-14T00:47:28.102Z</time>
      </trkpt>
      <trkpt lat="48.67262" lon="-4.20251">
        <ele>6.917398</ele>
        <time>2021-09-14T00:47:42.699Z</time>
      </trkpt>
      <trkpt lat="48.67238" lon="-4.2022">
        <ele>6.925992</ele>
        <time>2021-09-14T00:47:47.509Z</time>
      </trkpt>
      <trkpt lat="48.6722" lon="-4.20219">
        <ele>6.931038</ele>
        <time>2021-09-14T00:47:50.422Z</time>
      </trkpt>
      <trkpt lat="48.6716" lon="-4.20248">
        <ele>7.002022</ele>
        <time>2021-09-14T00:47:59.789Z</time>
      </trkpt>
      <trkpt lat="48.67147" lon="-4.20264">
        <ele>7.053862</ele>
        <time>2021-09-14T00:48:02.400Z</time>
      </trkpt>
      <trkpt lat="48.67113" lon="-4.2034">
        <ele>7.238059</ele>
        <time>2021-09-14T00:48:12.162Z</time>
      </trkpt>
      <trkpt lat="48.67082" lon="-4.20355">
        <ele>7.33655</ele>
        <time>2021-09-14T00:48:17.487Z</time>
      </trkpt>
      <trkpt lat="48.67082" lon="-4.20355">
        <ele>7.33655</ele>
        <time>2021-09-14T00:48:17.519Z</time>
      </trkpt>
      <trkpt lat="48.67066" lon="-4.20325">
        <ele>7.415258</ele>
        <time>2021-09-14T00:48:21.917Z</time>
      </trkpt>
      <trkpt lat="48.66978" lon="-4.20225">
        <ele>8.315997</ele>
        <time>2021-09-14T00:48:42.692Z</time>
      </trkpt>
      <trkpt lat="48.6697" lon="-4.20239">
        <ele>8.432393</ele>
        <time>2021-09-14T00:48:45.137Z</time>
      </trkpt>
      <trkpt lat="48.66875" lon="-4.20322">
        <ele>9.311777</ele>
        <time>2021-09-14T00:49:07.428Z</time>
      </trkpt>
      <trkpt lat="48.66781" lon="-4.20396">
        <ele>9.608692</ele>
        <time>2021-09-14T00:49:24.652Z</time>
      </trkpt>
      <trkpt lat="48.66777" lon="-4.20399">
        <ele>9.621808</ele>
        <time>2021-09-14T00:49:25.786Z</time>
      </trkpt>
      <trkpt lat="48.66737" lon="-4.20428">
        <ele>9.725994</ele>
        <time>2021-09-14T00:49:32.182Z</time>
      </trkpt>
      <trkpt lat="48.66727" lon="-4.20444">
        <ele>9.593431</ele>
        <time>2021-09-14T00:49:34.255Z</time>
      </trkpt>
      <trkpt lat="48.66727" lon="-4.20456">
        <ele>9.525265</ele>
        <time>2021-09-14T00:49:35.236Z</time>
      </trkpt>
      <trkpt lat="48.66747" lon="-4.2055">
        <ele>8.933619</ele>
        <time>2021-09-14T00:49:44.398Z</time>
      </trkpt>
      <trkpt lat="48.66763" lon="-4.20591">
        <ele>8.652539</ele>
        <time>2021-09-14T00:49:48.571Z</time>
      </trkpt>
      <trkpt lat="48.66766" lon="-4.206">
        <ele>8.590808</ele>
        <time>2021-09-14T00:49:49.453Z</time>
      </trkpt>
      <trkpt lat="48.66856" lon="-4.20761">
        <ele>7.258504</ele>
        <time>2021-09-14T00:50:07.834Z</time>
      </trkpt>
      <trkpt lat="48.66895" lon="-4.20874">
        <ele>6.42962</ele>
        <time>2021-09-14T00:50:19.370Z</time>
      </trkpt>
      <trkpt lat="48.66901" lon="-4.2089">
        <ele>6.351542</ele>
        <time>2021-09-14T00:50:21.043Z</time>
      </trkpt>
      <trkpt lat="48.66929" lon="-4.20976">
        <ele>6.455479</ele>
        <time>2021-09-14T00:50:30.320Z</time>
      </trkpt>
      <trkpt lat="48.6693" lon="-4.20982">
        <ele>6.462437</ele>
        <time>2021-09-14T00:50:30.914Z</time>
      </trkpt>
      <trkpt lat="48.66926" lon="-4.21017">
        <ele>6.501751</ele>
        <time>2021-09-14T00:50:34.733Z</time>
      </trkpt>
      <trkpt lat="48.66907" lon="-4.21038">
        <ele>6.540998</ele>
        <time>2021-09-14T00:50:38.810Z</time>
      </trkpt>
      <trkpt lat="48.66797" lon="-4.2109">
        <ele>7.003775</ele>
        <time>2021-09-14T00:50:59.778Z</time>
      </trkpt>
      <trkpt lat="48.66779" lon="-4.21098">
        <ele>7.131626</ele>
        <time>2021-09-14T00:51:03.612Z</time>
      </trkpt>
      <trkpt lat="48.66759" lon="-4.21097">
        <ele>7.268886</ele>
        <time>2021-09-14T00:51:07.146Z</time>
      </trkpt>
      <trkpt lat="48.66749" lon="-4.21109">
        <ele>7.356672</ele>
        <time>2021-09-14T00:51:09.812Z</time>
      </trkpt>
      <trkpt lat="48.6674" lon="-4.21102">
        <ele>7.424403</ele>
        <time>2021-09-14T00:51:11.524Z</time>
      </trkpt>
      <trkpt lat="48.66721" lon="-4.21121">
        <ele>7.575318</ele>
        <time>2021-09-14T00:51:15.622Z</time>
      </trkpt>
      <trkpt lat="48.66703" lon="-4.21133">
        <ele>7.711687</ele>
        <time>2021-09-14T00:51:19.003Z</time>
      </trkpt>
      <trkpt lat="48.6667" lon="-4.21143">
        <ele>7.89952</ele>
        <time>2021-09-14T00:51:24.748Z</time>
      </trkpt>
      <trkpt lat="48.66653" lon="-4.21153">
        <ele>7.963167</ele>
        <time>2021-09-14T00:51:28.061Z</time>
      </trkpt>
      <trkpt lat="48.66578" lon="-4.21199">
        <ele>8.245631</ele>
        <time>2021-09-14T00:51:41.149Z</time>
      </trkpt>
      <trkpt lat="48.66541" lon="-4.21222">
        <ele>8.385718</ele>
        <time>2021-09-14T00:51:47.660Z</time>
      </trkpt>
      <trkpt lat="48.66526" lon="-4.21231">
        <ele>8.442185</ele>
        <time>2021-09-14T00:51:50.457Z</time>
      </trkpt>
      <trkpt lat="48.66474" lon="-4.21266">
        <ele>8.577108</ele>
        <time>2021-09-14T00:52:00.233Z</time>
      </trkpt>
      <trkpt lat="48.66452" lon="-4.2128">
        <ele>8.624712</ele>
        <time>2021-09-14T00:52:04.343Z</time>
      </trkpt>
      <trkpt lat="48.66431" lon="-4.21286">
        <ele>8.668857</ele>
        <time>2021-09-14T00:52:07.881Z</time>
      </trkpt>
      <trkpt lat="48.66403" lon="-4.21282">
        <ele>8.727893</ele>
        <time>2021-09-14T00:52:12.544Z</time>
      </trkpt>
      <trkpt lat="48.66395" lon="-4.21278">
        <ele>8.744717</ele>
        <time>2021-09-14T00:52:13.937Z</time>
      </trkpt>
      <trkpt lat="48.66342" lon="-4.2124">
        <ele>8.837898</ele>
        <time>2021-09-14T00:52:22.872Z</time>
      </trkpt>
      <trkpt lat="48.66328" lon="-4.21229">
        <ele>8.776966</ele>
        <time>2021-09-14T00:52:25.154Z</time>
      </trkpt>
      <trkpt lat="48.66269" lon="-4.21187">
        <ele>8.521977</ele>
        <time>2021-09-14T00:52:34.456Z</time>
      </trkpt>
      <trkpt lat="48.66198" lon="-4.21135">
        <ele>8.209772</ele>
        <time>2021-09-14T00:52:45.791Z</time>
      </trkpt>
      <trkpt lat="48.66081" lon="-4.21047">
        <ele>8.129282</ele>
        <time>2021-09-14T00:53:05.191Z</time>
      </trkpt>
      <trkpt lat="48.65984" lon="-4.20942">
        <ele>8.313083</ele>
        <time>2021-09-14T00:53:24.912Z</time>
      </trkpt>
      <trkpt lat="48.65965" lon="-4.20926">
        <ele>8.393228</ele>
        <time>2021-09-14T00:53:28.587Z</time>
      </trkpt>
      <trkpt lat="48.65941" lon="-4.20881">
        <ele>8.529731</ele>
        <time>2021-09-14T00:53:34.964Z</time>
      </trkpt>
      <trkpt lat="48.65914" lon="-4.20787">
        <ele>8.776809</ele>
        <time>2021-09-14T00:53:46.596Z</time>
      </trkpt>
      <trkpt lat="48.65904" lon="-4.20609">
        <ele>9.287608</ele>
        <time>2021-09-14T00:54:06.478Z</time>
      </trkpt>
      <trkpt lat="48.65903" lon="-4.20604">
        <ele>9.301454</ele>
        <time>2021-09-14T00:54:07.031Z</time>
      </trkpt>
      <trkpt lat="48.65896" lon="-4.20402">
        <ele>9.928481</ele>
        <time>2021-09-14T00:54:30.494Z</time>
      </trkpt>
      <trkpt lat="48.65934" lon="-4.20121">
        <ele>10.247245</ele>
        <time>2021-09-14T00:55:02.669Z</time>
      </trkpt>
      <trkpt lat="48.65934" lon="-4.2008">
        <ele>10.189908</ele>
        <time>2021-09-14T00:55:06.658Z</time>
      </trkpt>
      <trkpt lat="48.65926" lon="-4.20035">
        <ele>10.124298</ele>
        <time>2021-09-14T00:55:10.957Z</time>
      </trkpt>
      <trkpt lat="48.65891" lon="-4.20026">
        <ele>10.045472</ele>
        <time>2021-09-14T00:55:15.760Z</time>
      </trkpt>
      <trkpt lat="48.65861" lon="-4.20008">
        <ele>9.751954</ele>
        <time>2021-09-14T00:55:19.856Z</time>
      </trkpt>
      <trkpt lat="48.65874" lon="-4.20013">
        <ele>9.633161</ele>
        <time>2021-09-14T00:55:21.948Z</time>
      </trkpt>
      <trkpt lat="48.65861" lon="-4.20008">
        <ele>9.514369</ele>
        <time>2021-09-14T00:55:23.591Z</time>
      </trkpt>
      <trkpt lat="48.65897" lon="-4.19901">
        <ele>8.784835</ele>
        <time>2021-09-14T00:55:34.043Z</time>
      </trkpt>
      <trkpt lat="48.65895" lon="-4.19897">
        <ele>8.751695</ele>
        <time>2021-09-14T00:55:34.474Z</time>
      </trkpt>
      <trkpt lat="48.65889" lon="-4.19787">
        <ele>8.514607</ele>
        <time>2021-09-14T00:55:44.979Z</time>
      </trkpt>
      <trkpt lat="48.65884" lon="-4.1965">
        <ele>8.895235</ele>
        <time>2021-09-14T00:56:00.375Z</time>
      </trkpt>
      <trkpt lat="48.65868" lon="-4.19545">
        <ele>9.249838</ele>
        <time>2021-09-14T00:56:14.583Z</time>
      </trkpt>
      <trkpt lat="48.65848" lon="-4.19327">
        <ele>10.430716</ele>
        <time>2021-09-14T00:56:42.340Z</time>
      </trkpt>
      <trkpt lat="48.65839" lon="-4.19245">
        <ele>10.402903</ele>
        <time>2021-09-14T00:56:51.273Z</time>
      </trkpt>
      <trkpt lat="48.65817" lon="-4.19194">
        <ele>10.18535</ele>
        <time>2021-09-14T00:56:57.168Z</time>
      </trkpt>
      <trkpt lat="48.65779" lon="-4.19159">
        <ele>9.942109</ele>
        <time>2021-09-14T00:57:03.450Z</time>
      </trkpt>
      <trkpt lat="48.65738" lon="-4.1915">
        <ele>9.721443</ele>
        <time>2021-09-14T00:57:08.929Z</time>
      </trkpt>
      <trkpt lat="48.65717" lon="-4.19149">
        <ele>9.581176</ele>
        <time>2021-09-14T00:57:11.813Z</time>
      </trkpt>
      <trkpt lat="48.65714" lon="-4.19139">
        <ele>9.472713</ele>
        <time>2021-09-14T00:57:12.697Z</time>
      </trkpt>
      <trkpt lat="48.657" lon="-4.19131">
        <ele>9.245585</ele>
        <time>2021-09-14T00:57:14.641Z</time>
      </trkpt>
      <trkpt lat="48.65691" lon="-4.19126">
        <ele>9.10924</ele>
        <time>2021-09-14T00:57:15.846Z</time>
      </trkpt>
      <trkpt lat="48.65657" lon="-4.19177">
        <ele>8.389643</ele>
        <time>2021-09-14T00:57:22.282Z</time>
      </trkpt>
      <trkpt lat="48.65604" lon="-4.19223">
        <ele>7.46732</ele>
        <time>2021-09-14T00:57:30.620Z</time>
      </trkpt>
      <trkpt lat="48.65592" lon="-4.19245">
        <ele>7.185148</ele>
        <time>2021-09-14T00:57:33.156Z</time>
      </trkpt>
      <trkpt lat="48.65581" lon="-4.19279">
        <ele>6.831405</ele>
        <time>2021-09-14T00:57:36.693Z</time>
      </trkpt>
      <trkpt lat="48.65543" lon="-4.19421">
        <ele>5.627599</ele>
        <time>2021-09-14T00:57:50.918Z</time>
      </trkpt>
      <trkpt lat="48.65533" lon="-4.19438">
        <ele>5.458139</ele>
        <time>2021-09-14T00:57:52.860Z</time>
      </trkpt>
      <trkpt lat="48.65483" lon="-4.19488">
        <ele>4.756321</ele>
        <time>2021-09-14T00:58:01.340Z</time>
      </trkpt>
      <trkpt lat="48.65398" lon="-4.19468">
        <ele>3.992736</ele>
        <time>2021-09-14T00:58:14.093Z</time>
      </trkpt>
      <trkpt lat="48.65385" lon="-4.1947">
        <ele>3.882188</ele>
        <time>2021-09-14T00:58:15.871Z</time>
      </trkpt>
      <trkpt lat="48.6534" lon="-4.19487">
        <ele>3.473129</ele>
        <time>2021-09-14T00:58:22.637Z</time>
      </trkpt>
      <trkpt lat="48.65326" lon="-4.1949">
        <ele>3.347331</ele>
        <time>2021-09-14T00:58:25.236Z</time>
      </trkpt>
      <trkpt lat="48.65318" lon="-4.19491">
        <ele>3.281206</ele>
        <time>2021-09-14T00:58:26.583Z</time>
      </trkpt>
      <trkpt lat="48.65311" lon="-4.19491">
        <ele>3.213395</ele>
        <time>2021-09-14T00:58:27.978Z</time>
      </trkpt>
      <trkpt lat="48.65302" lon="-4.19491">
        <ele>3.15898</ele>
        <time>2021-09-14T00:58:29.711Z</time>
      </trkpt>
      <trkpt lat="48.65295" lon="-4.19491">
        <ele>3.1252</ele>
        <time>2021-09-14T00:58:30.906Z</time>
      </trkpt>
      <trkpt lat="48.65266" lon="-4.19486">
        <ele>2.971556</ele>
        <time>2021-09-14T00:58:35.113Z</time>
      </trkpt>
      <trkpt lat="48.6524" lon="-4.19464">
        <ele>2.815487</ele>
        <time>2021-09-14T00:58:39.501Z</time>
      </trkpt>
      <trkpt lat="48.65223" lon="-4.19431">
        <ele>2.66898</ele>
        <time>2021-09-14T00:58:43.766Z</time>
      </trkpt>
      <trkpt lat="48.65221" lon="-4.19421">
        <ele>2.630905</ele>
        <time>2021-09-14T00:58:44.923Z</time>
      </trkpt>
      <trkpt lat="48.65212" lon="-4.1942">
        <ele>2.582169</ele>
        <time>2021-09-14T00:58:46.327Z</time>
      </trkpt>
      <trkpt lat="48.65188" lon="-4.19435">
        <ele>2.448186</ele>
        <time>2021-09-14T00:58:50.044Z</time>
      </trkpt>
      <trkpt lat="48.65181" lon="-4.19465">
        <ele>2.335936</ele>
        <time>2021-09-14T00:58:53.214Z</time>
      </trkpt>
      <trkpt lat="48.65179" lon="-4.19464">
        <ele>2.320829</ele>
        <time>2021-09-14T00:58:53.575Z</time>
      </trkpt>
      <trkpt lat="48.65181" lon="-4.19551">
        <ele>2.067393</ele>
        <time>2021-09-14T00:59:01.880Z</time>
      </trkpt>
      <trkpt lat="48.65191" lon="-4.19634">
        <ele>1.835811</ele>
        <time>2021-09-14T00:59:09.838Z</time>
      </trkpt>
      <trkpt lat="48.65227" lon="-4.19831">
        <ele>1.34984</ele>
        <time>2021-09-14T00:59:29.556Z</time>
      </trkpt>
      <trkpt lat="48.65229" lon="-4.19896">
        <ele>1.232759</ele>
        <time>2021-09-14T00:59:35.763Z</time>
      </trkpt>
      <trkpt lat="48.65219" lon="-4.19949">
        <ele>1.13492</ele>
        <time>2021-09-14T00:59:41.024Z</time>
      </trkpt>
      <trkpt lat="48.65198" lon="-4.20027">
        <ele>1.032265</ele>
        <time>2021-09-14T00:59:49.477Z</time>
      </trkpt>
      <trkpt lat="48.65135" lon="-4.20256">
        <ele>1.402246</ele>
        <time>2021-09-14T01:00:16.278Z</time>
      </trkpt>
      <trkpt lat="48.65108" lon="-4.20341">
        <ele>1.497123</ele>
        <time>2021-09-14T01:00:26.541Z</time>
      </trkpt>
      <trkpt lat="48.65099" lon="-4.20366">
        <ele>1.524745</ele>
        <time>2021-09-14T01:00:29.677Z</time>
      </trkpt>
      <trkpt lat="48.6509" lon="-4.20392">
        <ele>1.55307</ele>
        <time>2021-09-14T01:00:32.796Z</time>
      </trkpt>
      <trkpt lat="48.65049" lon="-4.20522">
        <ele>1.658314</ele>
        <time>2021-09-14T01:00:47.607Z</time>
      </trkpt>
      <trkpt lat="48.65045" lon="-4.20536">
        <ele>1.636475</ele>
        <time>2021-09-14T01:00:49.137Z</time>
      </trkpt>
      <trkpt lat="48.65039" lon="-4.20563">
        <ele>1.596818</ele>
        <time>2021-09-14T01:00:51.941Z</time>
      </trkpt>
      <trkpt lat="48.65028" lon="-4.20666">
        <ele>1.449369</ele>
        <time>2021-09-14T01:01:02.094Z</time>
      </trkpt>
      <trkpt lat="48.65021" lon="-4.20733">
        <ele>1.354919</ele>
        <time>2021-09-14T01:01:08.589Z</time>
      </trkpt>
      <trkpt lat="48.65013" lon="-4.20809">
        <ele>1.349491</ele>
        <time>2021-09-14T01:01:16.152Z</time>
      </trkpt>
      <trkpt lat="48.64989" lon="-4.2096">
        <ele>1.587797</ele>
        <time>2021-09-14T01:01:31.830Z</time>
      </trkpt>
      <trkpt lat="48.64986" lon="-4.20974">
        <ele>1.609983</ele>
        <time>2021-09-14T01:01:33.385Z</time>
      </trkpt>
      <trkpt lat="48.6492" lon="-4.21236">
        <ele>3.555289</ele>
        <time>2021-09-14T01:02:09.603Z</time>
      </trkpt>
      <trkpt lat="48.64919" lon="-4.21241">
        <ele>3.597448</ele>
        <time>2021-09-14T01:02:10.622Z</time>
      </trkpt>
      <trkpt lat="48.64898" lon="-4.21301">
        <ele>4.252323</ele>
        <time>2021-09-14T01:02:20.866Z</time>
      </trkpt>
      <trkpt lat="48.64849" lon="-4.21405">
        <ele>6.016626</ele>
        <time>2021-09-14T01:02:42.245Z</time>
      </trkpt>
      <trkpt lat="48.64829" lon="-4.21442">
        <ele>6.676198</ele>
        <time>2021-09-14T01:02:50.845Z</time>
      </trkpt>
      <trkpt lat="48.648" lon="-4.21495">
        <ele>7.612636</ele>
        <time>2021-09-14T01:03:01.295Z</time>
      </trkpt>
      <trkpt lat="48.64783" lon="-4.21526">
        <ele>7.851928</ele>
        <time>2021-09-14T01:03:06.721Z</time>
      </trkpt>
      <trkpt lat="48.64766" lon="-4.21595">
        <ele>7.984663</ele>
        <time>2021-09-14T01:03:15.260Z</time>
      </trkpt>
      <trkpt lat="48.64786" lon="-4.21593">
        <ele>8.040445</ele>
        <time>2021-09-14T01:03:18.490Z</time>
      </trkpt>
      <trkpt lat="48.64835" lon="-4.21582">
        <ele>8.17401</ele>
        <time>2021-09-14T01:03:26.495Z</time>
      </trkpt>
      <trkpt lat="48.64878" lon="-4.21578">
        <ele>8.290358</ele>
        <time>2021-09-14T01:03:37.258Z</time>
      </trkpt>
      <trkpt lat="48.64884" lon="-4.21582">
        <ele>8.263004</ele>
        <time>2021-09-14T01:03:38.903Z</time>
      </trkpt>
      <trkpt lat="48.64896" lon="-4.21603">
        <ele>8.160661</ele>
        <time>2021-09-14T01:03:43.506Z</time>
      </trkpt>
      <trkpt lat="48.64902" lon="-4.21695">
        <ele>7.815681</ele>
        <time>2021-09-14T01:03:57.649Z</time>
      </trkpt>
      <trkpt lat="48.64901" lon="-4.21709">
        <ele>7.766772</ele>
        <time>2021-09-14T01:04:00.054Z</time>
      </trkpt>
      <trkpt lat="48.6488" lon="-4.21742">
        <ele>7.596112</ele>
        <time>2021-09-14T01:04:07.174Z</time>
      </trkpt>
      <trkpt lat="48.64876" lon="-4.21763">
        <ele>7.512821</ele>
        <time>2021-09-14T01:04:10.920Z</time>
      </trkpt>
      <trkpt lat="48.64874" lon="-4.21838">
        <ele>7.24574</ele>
        <time>2021-09-14T01:04:23.161Z</time>
      </trkpt>
      <trkpt lat="48.64873" lon="-4.21912">
        <ele>7.014681</ele>
        <time>2021-09-14T01:04:36.079Z</time>
      </trkpt>
      <trkpt lat="48.64856" lon="-4.22051">
        <ele>6.578597</ele>
        <time>2021-09-14T01:04:58.524Z</time>
      </trkpt>
      <trkpt lat="48.6485" lon="-4.22063">
        <ele>6.534121</ele>
        <time>2021-09-14T01:05:00.756Z</time>
      </trkpt>
      <trkpt lat="48.6483" lon="-4.22084">
        <ele>6.39612</ele>
        <time>2021-09-14T01:05:06.694Z</time>
      </trkpt>
      <trkpt lat="48.64811" lon="-4.22132">
        <ele>6.087342</ele>
        <time>2021-09-14T01:05:15.413Z</time>
      </trkpt>
      <trkpt lat="48.64804" lon="-4.22128">
        <ele>6.026995</ele>
        <time>2021-09-14T01:05:16.385Z</time>
      </trkpt>
      <trkpt lat="48.64809" lon="-4.22302">
        <ele>5.061754</ele>
        <time>2021-09-14T01:05:32.056Z</time>
      </trkpt>
      <trkpt lat="48.64807" lon="-4.2238">
        <ele>4.739729</ele>
        <time>2021-09-14T01:05:39.207Z</time>
      </trkpt>
      <trkpt lat="48.64784" lon="-4.22783">
        <ele>3.530629</ele>
        <time>2021-09-14T01:06:17.634Z</time>
      </trkpt>
      <trkpt lat="48.64783" lon="-4.22811">
        <ele>3.465006</ele>
        <time>2021-09-14T01:06:20.388Z</time>
      </trkpt>
      <trkpt lat="48.6475" lon="-4.23037">
        <ele>3.441691</ele>
        <time>2021-09-14T01:06:43.794Z</time>
      </trkpt>
      <trkpt lat="48.64734" lon="-4.23127">
        <ele>3.496613</ele>
        <time>2021-09-14T01:06:53.936Z</time>
      </trkpt>
      <trkpt lat="48.64728" lon="-4.23166">
        <ele>3.509913</ele>
        <time>2021-09-14T01:06:58.401Z</time>
      </trkpt>
      <trkpt lat="48.64725" lon="-4.23177">
        <ele>3.51318</ele>
        <time>2021-09-14T01:06:59.549Z</time>
      </trkpt>
      <trkpt lat="48.64724" lon="-4.23183">
        <ele>3.515146</ele>
        <time>2021-09-14T01:07:00.258Z</time>
      </trkpt>
      <trkpt lat="48.64722" lon="-4.2319">
        <ele>3.517295</ele>
        <time>2021-09-14T01:07:01.030Z</time>
      </trkpt>
      <trkpt lat="48.64754" lon="-4.2321">
        <ele>3.532997</ele>
        <time>2021-09-14T01:07:07.029Z</time>
      </trkpt>
      <trkpt lat="48.64765" lon="-4.23217">
        <ele>3.538156</ele>
        <time>2021-09-14T01:07:08.950Z</time>
      </trkpt>
      <trkpt lat="48.64785" lon="-4.23232">
        <ele>3.548568</ele>
        <time>2021-09-14T01:07:12.694Z</time>
      </trkpt>
      <trkpt lat="48.64812" lon="-4.23251">
        <ele>3.561918</ele>
        <time>2021-09-14T01:07:17.295Z</time>
      </trkpt>
      <trkpt lat="48.64836" lon="-4.23267">
        <ele>3.573449</ele>
        <time>2021-09-14T01:07:21.396Z</time>
      </trkpt>
      <trkpt lat="48.64846" lon="-4.23274">
        <ele>3.578484</ele>
        <time>2021-09-14T01:07:23.136Z</time>
      </trkpt>
      <trkpt lat="48.64886" lon="-4.23305">
        <ele>3.609342</ele>
        <time>2021-09-14T01:07:30.248Z</time>
      </trkpt>
      <trkpt lat="48.64911" lon="-4.23335">
        <ele>3.631718</ele>
        <time>2021-09-14T01:07:35.407Z</time>
      </trkpt>
      <trkpt lat="48.64931" lon="-4.23364">
        <ele>3.651022</ele>
        <time>2021-09-14T01:07:39.867Z</time>
      </trkpt>
      <trkpt lat="48.6493" lon="-4.23417">
        <ele>3.675604</ele>
        <time>2021-09-14T01:08:04.220Z</time>
      </trkpt>
      <trkpt lat="48.64933" lon="-4.23454">
        <ele>3.692769</ele>
        <time>2021-09-14T01:08:21.266Z</time>
      </trkpt>
      <trkpt lat="48.64935" lon="-4.23496">
        <ele>3.747436</ele>
        <time>2021-09-14T01:08:40.509Z</time>
      </trkpt>
      <trkpt lat="48.6492" lon="-4.23514">
        <ele>3.842138</ele>
        <time>2021-09-14T01:08:54.418Z</time>
      </trkpt>
      <trkpt lat="48.64918" lon="-4.2354">
        <ele>3.921882</ele>
        <time>2021-09-14T01:09:06.149Z</time>
      </trkpt>
      <trkpt lat="48.64924" lon="-4.23595">
        <ele>4.096045</ele>
        <time>2021-09-14T01:09:31.728Z</time>
      </trkpt>
      <trkpt lat="48.64914" lon="-4.2367">
        <ele>4.334368</ele>
        <time>2021-09-14T01:10:06.723Z</time>
      </trkpt>
      <trkpt lat="48.64908" lon="-4.23739">
        <ele>4.553264</ele>
        <time>2021-09-14T01:10:38.904Z</time>
      </trkpt>
      <trkpt lat="48.64909" lon="-4.2376">
        <ele>4.605675</ele>
        <time>2021-09-14T01:10:48.232Z</time>
      </trkpt>
      <trkpt lat="48.64914" lon="-4.23888">
        <ele>4.933434</ele>
        <time>2021-09-14T01:11:47.388Z</time>
      </trkpt>
      <trkpt lat="48.64897" lon="-4.23996">
        <ele>5.215868</ele>
        <time>2021-09-14T01:12:38.344Z</time>
      </trkpt>
      <trkpt lat="48.64911" lon="-4.24075">
        <ele>5.235967</ele>
        <time>2021-09-14T01:13:15.973Z</time>
      </trkpt>
      <trkpt lat="48.64907" lon="-4.24112">
        <ele>5.228697</ele>
        <time>2021-09-14T01:13:32.928Z</time>
      </trkpt>
      <trkpt lat="48.64903" lon="-4.24144">
        <ele>5.222281</ele>
        <time>2021-09-14T01:13:47.888Z</time>
      </trkpt>
      <trkpt lat="48.64864" lon="-4.24252">
        <ele>5.19801</ele>
        <time>2021-09-14T01:14:44.566Z</time>
      </trkpt>
      <trkpt lat="48.64851" lon="-4.24286">
        <ele>5.21895</ele>
        <time>2021-09-14T01:15:02.530Z</time>
      </trkpt>
      <trkpt lat="48.64845" lon="-4.24351">
        <ele>5.271634</ele>
        <time>2021-09-14T01:15:32.523Z</time>
      </trkpt>
      <trkpt lat="48.64845" lon="-4.24397">
        <ele>5.308908</ele>
        <time>2021-09-14T01:15:53.723Z</time>
      </trkpt>
      <trkpt lat="48.64838" lon="-4.24432">
        <ele>5.338411</ele>
        <time>2021-09-14T01:16:10.524Z</time>
      </trkpt>
      <trkpt lat="48.64838" lon="-4.24469">
        <ele>5.367771</ele>
        <time>2021-09-14T01:16:27.232Z</time>
      </trkpt>
      <trkpt lat="48.64825" lon="-4.24513">
        <ele>5.407121</ele>
        <time>2021-09-14T01:16:49.645Z</time>
      </trkpt>
      <trkpt lat="48.64794" lon="-4.24623">
        <ele>5.555646</ele>
        <time>2021-09-14T01:17:44.348Z</time>
      </trkpt>
      <trkpt lat="48.64763" lon="-4.24733">
        <ele>5.70986</ele>
        <time>2021-09-14T01:18:39.307Z</time>
      </trkpt>
      <trkpt lat="48.64753" lon="-4.24786">
        <ele>5.733752</ele>
        <time>2021-09-14T01:19:04.768Z</time>
      </trkpt>
      <trkpt lat="48.64751" lon="-4.24815">
        <ele>5.6527</ele>
        <time>2021-09-14T01:19:18.077Z</time>
      </trkpt>
      <trkpt lat="48.64722" lon="-4.24937">
        <ele>5.28963</ele>
        <time>2021-09-14T01:20:17.654Z</time>
      </trkpt>
      <trkpt lat="48.64753" lon="-4.2508">
        <ele>4.845016</ele>
        <time>2021-09-14T01:21:26.820Z</time>
      </trkpt>
      <trkpt lat="48.64799" lon="-4.25295">
        <ele>4.10972</ele>
        <time>2021-09-14T01:23:10.371Z</time>
      </trkpt>
      <trkpt lat="48.64786" lon="-4.25319">
        <ele>4.04955</ele>
        <time>2021-09-14T01:23:24.565Z</time>
      </trkpt>
      <trkpt lat="48.64785" lon="-4.25341">
        <ele>4.007237</ele>
        <time>2021-09-14T01:23:34.507Z</time>
      </trkpt>
      <trkpt lat="48.64827" lon="-4.25537">
        <ele>3.604971</ele>
        <time>2021-09-14T01:25:09.408Z</time>
      </trkpt>
      <trkpt lat="48.64837" lon="-4.25608">
        <ele>3.565241</ele>
        <time>2021-09-14T01:25:42.429Z</time>
      </trkpt>
      <trkpt lat="48.64852" lon="-4.25659">
        <ele>3.548168</ele>
        <time>2021-09-14T01:26:08.236Z</time>
      </trkpt>
      <trkpt lat="48.64865" lon="-4.25703">
        <ele>3.533596</ele>
        <time>2021-09-14T01:26:30.270Z</time>
      </trkpt>
      <trkpt lat="48.64876" lon="-4.25794">
        <ele>3.505401</ele>
        <time>2021-09-14T01:27:12.868Z</time>
      </trkpt>
      <trkpt lat="48.64879" lon="-4.25826">
        <ele>3.540665</ele>
        <time>2021-09-14T01:27:27.625Z</time>
      </trkpt>
      <trkpt lat="48.64872" lon="-4.26003">
        <ele>3.932641</ele>
        <time>2021-09-14T01:28:49.257Z</time>
      </trkpt>
      <trkpt lat="48.64861" lon="-4.26109">
        <ele>4.303678</ele>
        <time>2021-09-14T01:29:38.444Z</time>
      </trkpt>
      <trkpt lat="48.64856" lon="-4.26166">
        <ele>4.682014</ele>
        <time>2021-09-14T01:30:04.684Z</time>
      </trkpt>
      <trkpt lat="48.64786" lon="-4.26081">
        <ele>5.580573</ele>
        <time>2021-09-14T01:30:23.291Z</time>
      </trkpt>
      <trkpt lat="48.64587" lon="-4.25844">
        <ele>8.418645</ele>
        <time>2021-09-14T01:31:16.652Z</time>
      </trkpt>
      <trkpt lat="48.64508" lon="-4.2574">
        <ele>9.29923</ele>
        <time>2021-09-14T01:31:37.191Z</time>
      </trkpt>
      <trkpt lat="48.64488" lon="-4.25717">
        <ele>9.512912</ele>
        <time>2021-09-14T01:31:41.872Z</time>
      </trkpt>
      <trkpt lat="48.64432" lon="-4.25652">
        <ele>9.49595</ele>
        <time>2021-09-14T01:31:53.900Z</time>
      </trkpt>
      <trkpt lat="48.64395" lon="-4.25631">
        <ele>9.439338</ele>
        <time>2021-09-14T01:32:00.391Z</time>
      </trkpt>
      <trkpt lat="48.64385" lon="-4.25629">
        <ele>9.425127</ele>
        <time>2021-09-14T01:32:02.011Z</time>
      </trkpt>
      <trkpt lat="48.64227" lon="-4.25577">
        <ele>8.380609</ele>
        <time>2021-09-14T01:32:25.878Z</time>
      </trkpt>
      <trkpt lat="48.64195" lon="-4.25788">
        <ele>7.109759</ele>
        <time>2021-09-14T01:32:44.546Z</time>
      </trkpt>
      <trkpt lat="48.64184" lon="-4.25866">
        <ele>6.737405</ele>
        <time>2021-09-14T01:32:51.760Z</time>
      </trkpt>
      <trkpt lat="48.64094" lon="-4.26462">
        <ele>6.262197</ele>
        <time>2021-09-14T01:33:54.386Z</time>
      </trkpt>
      <trkpt lat="48.64046" lon="-4.2677">
        <ele>5.560223</ele>
        <time>2021-09-14T01:34:24.680Z</time>
      </trkpt>
      <trkpt lat="48.63776" lon="-4.2682">
        <ele>4.131831</ele>
        <time>2021-09-14T01:35:05.741Z</time>
      </trkpt>
      <trkpt lat="48.63589" lon="-4.26855">
        <ele>3.405807</ele>
        <time>2021-09-14T01:35:34.256Z</time>
      </trkpt>
      <trkpt lat="48.63565" lon="-4.26859">
        <ele>3.336858</ele>
        <time>2021-09-14T01:35:38.102Z</time>
      </trkpt>
      <trkpt lat="48.63546" lon="-4.26854">
        <ele>3.282911</ele>
        <time>2021-09-14T01:35:41.123Z</time>
      </trkpt>
      <trkpt lat="48.63196" lon="-4.26588">
        <ele>3.83088</ele>
        <time>2021-09-14T01:36:46.909Z</time>
      </trkpt>
      <trkpt lat="48.63193" lon="-4.26586">
        <ele>3.856085</ele>
        <time>2021-09-14T01:36:47.514Z</time>
      </trkpt>
      <trkpt lat="48.63182" lon="-4.26577">
        <ele>3.948276</ele>
        <time>2021-09-14T01:36:49.836Z</time>
      </trkpt>
      <trkpt lat="48.63123" lon="-4.26532">
        <ele>4.437043</ele>
        <time>2021-09-14T01:37:02.209Z</time>
      </trkpt>
      <trkpt lat="48.63088" lon="-4.26507">
        <ele>4.721513</ele>
        <time>2021-09-14T01:37:09.551Z</time>
      </trkpt>
      <trkpt lat="48.6305" lon="-4.26475">
        <ele>5.0471</ele>
        <time>2021-09-14T01:37:18.161Z</time>
      </trkpt>
      <trkpt lat="48.62968" lon="-4.26411">
        <ele>6.102739</ele>
        <time>2021-09-14T01:37:37.416Z</time>
      </trkpt>
      <trkpt lat="48.62894" lon="-4.26355">
        <ele>7.118039</ele>
        <time>2021-09-14T01:37:54.851Z</time>
      </trkpt>
      <trkpt lat="48.62871" lon="-4.26289">
        <ele>8.178194</ele>
        <time>2021-09-14T01:38:05.660Z</time>
      </trkpt>
      <trkpt lat="48.62852" lon="-4.26257">
        <ele>8.99484</ele>
        <time>2021-09-14T01:38:12.315Z</time>
      </trkpt>
      <trkpt lat="48.62774" lon="-4.26243">
        <ele>11.234452</ele>
        <time>2021-09-14T01:38:32.243Z</time>
      </trkpt>
      <trkpt lat="48.62658" lon="-4.26175">
        <ele>17.664255</ele>
        <time>2021-09-14T01:39:18.195Z</time>
      </trkpt>
      <trkpt lat="48.62616" lon="-4.26163">
        <ele>20.397027</ele>
        <time>2021-09-14T01:39:37.439Z</time>
      </trkpt>
      <trkpt lat="48.62603" lon="-4.26159">
        <ele>21.2758</ele>
        <time>2021-09-14T01:39:44.357Z</time>
      </trkpt>
      <trkpt lat="48.626" lon="-4.2616">
        <ele>21.484357</ele>
        <time>2021-09-14T01:39:45.703Z</time>
      </trkpt>
      <trkpt lat="48.62535" lon="-4.26148">
        <ele>25.729256</ele>
        <time>2021-09-14T01:40:15.682Z</time>
      </trkpt>
      <trkpt lat="48.62531" lon="-4.26147">
        <ele>25.950104</ele>
        <time>2021-09-14T01:40:18.006Z</time>
      </trkpt>
      <trkpt lat="48.62464" lon="-4.26108">
        <ele>30.640814</ele>
        <time>2021-09-14T01:40:53.459Z</time>
      </trkpt>
      <trkpt lat="48.62427" lon="-4.26096">
        <ele>33.041712</ele>
        <time>2021-09-14T01:41:10.011Z</time>
      </trkpt>
      <trkpt lat="48.62384" lon="-4.26112">
        <ele>35.720043</ele>
        <time>2021-09-14T01:41:25.471Z</time>
      </trkpt>
      <trkpt lat="48.62372" lon="-4.26161">
        <ele>35.256945</ele>
        <time>2021-09-14T01:41:32.957Z</time>
      </trkpt>
      <trkpt lat="48.62366" lon="-4.26169">
        <ele>35.149179</ele>
        <time>2021-09-14T01:41:34.201Z</time>
      </trkpt>
      <trkpt lat="48.62354" lon="-4.2617">
        <ele>35.001587</ele>
        <time>2021-09-14T01:41:36.140Z</time>
      </trkpt>
      <trkpt lat="48.62329" lon="-4.26161">
        <ele>34.653312</ele>
        <time>2021-09-14T01:41:39.918Z</time>
      </trkpt>
      <trkpt lat="48.62316" lon="-4.26125">
        <ele>34.29623</ele>
        <time>2021-09-14T01:41:43.565Z</time>
      </trkpt>
      <trkpt lat="48.62316" lon="-4.26119">
        <ele>34.245257</ele>
        <time>2021-09-14T01:41:44.048Z</time>
      </trkpt>
      <trkpt lat="48.62316" lon="-4.26113">
        <ele>34.192531</ele>
        <time>2021-09-14T01:41:44.534Z</time>
      </trkpt>
      <trkpt lat="48.62295" lon="-4.26125">
        <ele>33.897174</ele>
        <time>2021-09-14T01:41:47.340Z</time>
      </trkpt>
      <trkpt lat="48.62289" lon="-4.26113">
        <ele>33.759117</ele>
        <time>2021-09-14T01:41:48.554Z</time>
      </trkpt>
      <trkpt lat="48.62245" lon="-4.26108">
        <ele>32.37849</ele>
        <time>2021-09-14T01:41:53.487Z</time>
      </trkpt>
      <trkpt lat="48.62198" lon="-4.26068">
        <ele>28.691565</ele>
        <time>2021-09-14T01:41:59.305Z</time>
      </trkpt>
      <trkpt lat="48.62094" lon="-4.25986">
        <ele>20.810191</ele>
        <time>2021-09-14T01:42:11.694Z</time>
      </trkpt>
      <trkpt lat="48.62093" lon="-4.25967">
        <ele>20.259588</ele>
        <time>2021-09-14T01:42:12.998Z</time>
      </trkpt>
      <trkpt lat="48.62049" lon="-4.25954">
        <ele>18.275389</ele>
        <time>2021-09-14T01:42:17.926Z</time>
      </trkpt>
      <trkpt lat="48.62033" lon="-4.25998">
        <ele>16.803318</ele>
        <time>2021-09-14T01:42:21.753Z</time>
      </trkpt>
      <trkpt lat="48.62031" lon="-4.26009">
        <ele>16.44873</ele>
        <time>2021-09-14T01:42:22.604Z</time>
      </trkpt>
      <trkpt lat="48.61955" lon="-4.26387">
        <ele>9.510469</ele>
        <time>2021-09-14T01:42:56.614Z</time>
      </trkpt>
      <trkpt lat="48.61877" lon="-4.26323">
        <ele>9.465488</ele>
        <time>2021-09-14T01:43:09.862Z</time>
      </trkpt>
      <trkpt lat="48.61862" lon="-4.26287">
        <ele>9.451316</ele>
        <time>2021-09-14T01:43:14.452Z</time>
      </trkpt>
      <trkpt lat="48.61845" lon="-4.26268">
        <ele>9.44058</ele>
        <time>2021-09-14T01:43:18.230Z</time>
      </trkpt>
      <trkpt lat="48.61773" lon="-4.26262">
        <ele>10.170502</ele>
        <time>2021-09-14T01:43:34.745Z</time>
      </trkpt>
      <trkpt lat="48.61732" lon="-4.26236">
        <ele>11.083751</ele>
        <time>2021-09-14T01:43:47.628Z</time>
      </trkpt>
      <trkpt lat="48.61698" lon="-4.26215">
        <ele>11.83687</ele>
        <time>2021-09-14T01:43:56.846Z</time>
      </trkpt>
      <trkpt lat="48.61596" lon="-4.26163">
        <ele>13.425933</ele>
        <time>2021-09-14T01:44:22.166Z</time>
      </trkpt>
      <trkpt lat="48.61599" lon="-4.26216">
        <ele>13.671564</ele>
        <time>2021-09-14T01:44:29.509Z</time>
      </trkpt>
      <trkpt lat="48.61593" lon="-4.26257">
        <ele>13.86853</ele>
        <time>2021-09-14T01:44:34.937Z</time>
      </trkpt>
      <trkpt lat="48.61555" lon="-4.26372">
        <ele>14.509749</ele>
        <time>2021-09-14T01:44:47.862Z</time>
      </trkpt>
      <trkpt lat="48.61504" lon="-4.26473">
        <ele>15.387272</ele>
        <time>2021-09-14T01:45:00.853Z</time>
      </trkpt>
      <trkpt lat="48.61499" lon="-4.26491">
        <ele>15.521472</ele>
        <time>2021-09-14T01:45:03.126Z</time>
      </trkpt>
      <trkpt lat="48.61496" lon="-4.265">
        <ele>15.588492</ele>
        <time>2021-09-14T01:45:04.466Z</time>
      </trkpt>
      <trkpt lat="48.61503" lon="-4.26521">
        <ele>15.745007</ele>
        <time>2021-09-14T01:45:07.724Z</time>
      </trkpt>
      <trkpt lat="48.61502" lon="-4.26539">
        <ele>15.870766</ele>
        <time>2021-09-14T01:45:10.003Z</time>
      </trkpt>
      <trkpt lat="48.61361" lon="-4.26599">
        <ele>22.324464</ele>
        <time>2021-09-14T01:46:12.751Z</time>
      </trkpt>
      <trkpt lat="48.61257" lon="-4.2639">
        <ele>33.093786</ele>
        <time>2021-09-14T01:47:49.824Z</time>
      </trkpt>
      <trkpt lat="48.6123" lon="-4.26431">
        <ele>35.643233</ele>
        <time>2021-09-14T01:48:06.208Z</time>
      </trkpt>
      <trkpt lat="48.61183" lon="-4.26287">
        <ele>40.575301</ele>
        <time>2021-09-14T01:48:42.712Z</time>
      </trkpt>
      <trkpt lat="48.61146" lon="-4.26207">
        <ele>42.833382</ele>
        <time>2021-09-14T01:48:59.535Z</time>
      </trkpt>
      <trkpt lat="48.6111" lon="-4.26156">
        <ele>44.549911</ele>
        <time>2021-09-14T01:49:13.424Z</time>
      </trkpt>
      <trkpt lat="48.61086" lon="-4.26129">
        <ele>45.371902</ele>
        <time>2021-09-14T01:49:21.828Z</time>
      </trkpt>
      <trkpt lat="48.61069" lon="-4.261">
        <ele>46.083769</ele>
        <time>2021-09-14T01:49:28.736Z</time>
      </trkpt>
      <trkpt lat="48.61026" lon="-4.25997">
        <ele>48.333417</ele>
        <time>2021-09-14T01:49:50.489Z</time>
      </trkpt>
      <trkpt lat="48.6102" lon="-4.25972">
        <ele>48.815497</ele>
        <time>2021-09-14T01:49:55.754Z</time>
      </trkpt>
      <trkpt lat="48.6102" lon="-4.25885">
        <ele>49.879596</ele>
        <time>2021-09-14T01:50:11.463Z</time>
      </trkpt>
      <trkpt lat="48.61016" lon="-4.25847">
        <ele>50.172771</ele>
        <time>2021-09-14T01:50:17.843Z</time>
      </trkpt>
      <trkpt lat="48.61008" lon="-4.25812">
        <ele>50.460231</ele>
        <time>2021-09-14T01:50:23.723Z</time>
      </trkpt>
      <trkpt lat="48.60994" lon="-4.25779">
        <ele>50.761923</ele>
        <time>2021-09-14T01:50:28.820Z</time>
      </trkpt>
      <trkpt lat="48.60935" lon="-4.25678">
        <ele>51.531816</ele>
        <time>2021-09-14T01:50:42.750Z</time>
      </trkpt>
      <trkpt lat="48.60887" lon="-4.25596">
        <ele>51.325966</ele>
        <time>2021-09-14T01:50:53.742Z</time>
      </trkpt>
      <trkpt lat="48.60833" lon="-4.25529">
        <ele>51.125936</ele>
        <time>2021-09-14T01:51:04.370Z</time>
      </trkpt>
      <trkpt lat="48.6077" lon="-4.25675">
        <ele>52.218575</ele>
        <time>2021-09-14T01:51:35.494Z</time>
      </trkpt>
      <trkpt lat="48.60759" lon="-4.25729">
        <ele>52.653926</ele>
        <time>2021-09-14T01:51:48.102Z</time>
      </trkpt>
      <trkpt lat="48.60753" lon="-4.25798">
        <ele>53.210188</ele>
        <time>2021-09-14T01:52:04.387Z</time>
      </trkpt>
      <trkpt lat="48.60747" lon="-4.2581">
        <ele>53.448674</ele>
        <time>2021-09-14T01:52:07.012Z</time>
      </trkpt>
      <trkpt lat="48.60669" lon="-4.25755">
        <ele>55.554998</ele>
        <time>2021-09-14T01:52:36.997Z</time>
      </trkpt>
      <trkpt lat="48.60672" lon="-4.25734">
        <ele>55.904219</ele>
        <time>2021-09-14T01:52:42.071Z</time>
      </trkpt>
      <trkpt lat="48.60659" lon="-4.25669">
        <ele>57.007459</ele>
        <time>2021-09-14T01:52:57.514Z</time>
      </trkpt>
      <trkpt lat="48.60656" lon="-4.25663">
        <ele>57.124865</ele>
        <time>2021-09-14T01:52:59.494Z</time>
      </trkpt>
      <trkpt lat="48.60644" lon="-4.25638">
        <ele>57.644867</ele>
        <time>2021-09-14T01:53:07.795Z</time>
      </trkpt>
      <trkpt lat="48.60611" lon="-4.25598">
        <ele>58.418099</ele>
        <time>2021-09-14T01:53:23.249Z</time>
      </trkpt>
      <trkpt lat="48.60591" lon="-4.25585">
        <ele>58.813319</ele>
        <time>2021-09-14T01:53:30.762Z</time>
      </trkpt>
      <trkpt lat="48.60477" lon="-4.25544">
        <ele>60.948612</ele>
        <time>2021-09-14T01:54:07.338Z</time>
      </trkpt>
      <trkpt lat="48.60437" lon="-4.25541">
        <ele>61.032695</ele>
        <time>2021-09-14T01:54:19.081Z</time>
      </trkpt>
      <trkpt lat="48.60387" lon="-4.25541">
        <ele>61.137005</ele>
        <time>2021-09-14T01:54:32.676Z</time>
      </trkpt>
      <trkpt lat="48.60352" lon="-4.25556">
        <ele>61.214402</ele>
        <time>2021-09-14T01:54:42.039Z</time>
      </trkpt>
      <trkpt lat="48.60331" lon="-4.25569">
        <ele>61.260175</ele>
        <time>2021-09-14T01:54:47.383Z</time>
      </trkpt>
      <trkpt lat="48.60199" lon="-4.25576">
        <ele>59.72358</ele>
        <time>2021-09-14T01:55:19.025Z</time>
      </trkpt>
      <trkpt lat="48.60107" lon="-4.25542">
        <ele>58.031643</ele>
        <time>2021-09-14T01:55:39.074Z</time>
      </trkpt>
      <trkpt lat="48.60093" lon="-4.25531">
        <ele>57.58337</ele>
        <time>2021-09-14T01:55:42.432Z</time>
      </trkpt>
      <trkpt lat="48.6003" lon="-4.25656">
        <ele>54.681432</ele>
        <time>2021-09-14T01:55:55.194Z</time>
      </trkpt>
      <trkpt lat="48.60011" lon="-4.257">
        <ele>53.703807</ele>
        <time>2021-09-14T01:55:59.545Z</time>
      </trkpt>
      <trkpt lat="48.59981" lon="-4.25804">
        <ele>53.022393</ele>
        <time>2021-09-14T01:56:09.198Z</time>
      </trkpt>
      <trkpt lat="48.5989" lon="-4.2588">
        <ele>52.325524</ele>
        <time>2021-09-14T01:56:25.998Z</time>
      </trkpt>
      <trkpt lat="48.59827" lon="-4.25947">
        <ele>53.335257</ele>
        <time>2021-09-14T01:56:43.845Z</time>
      </trkpt>
      <trkpt lat="48.59789" lon="-4.25975">
        <ele>53.997868</ele>
        <time>2021-09-14T01:56:53.469Z</time>
      </trkpt>
      <trkpt lat="48.59765" lon="-4.25995">
        <ele>54.443666</ele>
        <time>2021-09-14T01:57:00.194Z</time>
      </trkpt>
      <trkpt lat="48.59754" lon="-4.25973">
        <ele>54.723614</ele>
        <time>2021-09-14T01:57:03.933Z</time>
      </trkpt>
      <trkpt lat="48.59747" lon="-4.25968">
        <ele>54.843948</ele>
        <time>2021-09-14T01:57:06.250Z</time>
      </trkpt>
      <trkpt lat="48.5973" lon="-4.25972">
        <ele>55.119781</ele>
        <time>2021-09-14T01:57:10.195Z</time>
      </trkpt>
      <trkpt lat="48.59709" lon="-4.25993">
        <ele>55.433341</ele>
        <time>2021-09-14T01:57:16.069Z</time>
      </trkpt>
      <trkpt lat="48.597" lon="-4.26006">
        <ele>55.587253</ele>
        <time>2021-09-14T01:57:18.711Z</time>
      </trkpt>
      <trkpt lat="48.59679" lon="-4.26038">
        <ele>55.957392</ele>
        <time>2021-09-14T01:57:25.449Z</time>
      </trkpt>
      <trkpt lat="48.59658" lon="-4.26042">
        <ele>56.221625</ele>
        <time>2021-09-14T01:57:30.127Z</time>
      </trkpt>
      <trkpt lat="48.59601" lon="-4.26031">
        <ele>56.935228</ele>
        <time>2021-09-14T01:57:42.582Z</time>
      </trkpt>
      <trkpt lat="48.59587" lon="-4.26019">
        <ele>57.138784</ele>
        <time>2021-09-14T01:57:45.501Z</time>
      </trkpt>
      <trkpt lat="48.59535" lon="-4.2602">
        <ele>57.064866</ele>
        <time>2021-09-14T01:57:59.713Z</time>
      </trkpt>
      <trkpt lat="48.59426" lon="-4.2608">
        <ele>56.10124</ele>
        <time>2021-09-14T01:58:27.608Z</time>
      </trkpt>
      <trkpt lat="48.59388" lon="-4.26133">
        <ele>55.043213</ele>
        <time>2021-09-14T01:58:38.522Z</time>
      </trkpt>
      <trkpt lat="48.59373" lon="-4.26167">
        <ele>54.050811</ele>
        <time>2021-09-14T01:58:44.100Z</time>
      </trkpt>
      <trkpt lat="48.59298" lon="-4.264">
        <ele>47.812512</ele>
        <time>2021-09-14T01:59:18.014Z</time>
      </trkpt>
      <trkpt lat="48.59301" lon="-4.26409">
        <ele>47.576644</ele>
        <time>2021-09-14T01:59:19.350Z</time>
      </trkpt>
      <trkpt lat="48.59301" lon="-4.26415">
        <ele>47.436044</ele>
        <time>2021-09-14T01:59:20.149Z</time>
      </trkpt>
      <trkpt lat="48.59283" lon="-4.26506">
        <ele>45.222513</ele>
        <time>2021-09-14T01:59:32.814Z</time>
      </trkpt>
      <trkpt lat="48.59282" lon="-4.26536">
        <ele>44.533186</ele>
        <time>2021-09-14T01:59:36.890Z</time>
      </trkpt>
      <trkpt lat="48.59271" lon="-4.26579">
        <ele>43.459517</ele>
        <time>2021-09-14T01:59:43.217Z</time>
      </trkpt>
      <trkpt lat="48.59247" lon="-4.26583">
        <ele>42.765825</ele>
        <time>2021-09-14T01:59:46.157Z</time>
      </trkpt>
      <trkpt lat="48.59162" lon="-4.26591">
        <ele>41.214127</ele>
        <time>2021-09-14T01:59:57.325Z</time>
      </trkpt>
      <trkpt lat="48.59156" lon="-4.26592">
        <ele>41.089511</ele>
        <time>2021-09-14T01:59:58.185Z</time>
      </trkpt>
      <trkpt lat="48.59151" lon="-4.26593">
        <ele>41.010567</ele>
        <time>2021-09-14T01:59:58.794Z</time>
      </trkpt>
      <trkpt lat="48.59131" lon="-4.26601">
        <ele>40.622098</ele>
        <time>2021-09-14T02:00:01.719Z</time>
      </trkpt>
      <trkpt lat="48.5912" lon="-4.26609">
        <ele>40.412715</ele>
        <time>2021-09-14T02:00:03.190Z</time>
      </trkpt>
      <trkpt lat="48.59046" lon="-4.26668">
        <ele>39.302432</ele>
        <time>2021-09-14T02:00:15.391Z</time>
      </trkpt>
      <trkpt lat="48.59028" lon="-4.26683">
        <ele>39.135571</ele>
        <time>2021-09-14T02:00:18.628Z</time>
      </trkpt>
      <trkpt lat="48.59072" lon="-4.26799">
        <ele>38.416984</ele>
        <time>2021-09-14T02:00:31.880Z</time>
      </trkpt>
      <trkpt lat="48.59092" lon="-4.26832">
        <ele>38.169898</ele>
        <time>2021-09-14T02:00:36.349Z</time>
      </trkpt>
      <trkpt lat="48.59118" lon="-4.26856">
        <ele>37.274181</ele>
        <time>2021-09-14T02:00:40.681Z</time>
      </trkpt>
      <trkpt lat="48.59102" lon="-4.26871">
        <ele>36.705182</ele>
        <time>2021-09-14T02:00:44.873Z</time>
      </trkpt>
      <trkpt lat="48.59098" lon="-4.26871">
        <ele>36.609338</ele>
        <time>2021-09-14T02:00:45.590Z</time>
      </trkpt>
      <trkpt lat="48.59056" lon="-4.26862">
        <ele>35.382209</ele>
        <time>2021-09-14T02:00:54.667Z</time>
      </trkpt>
      <trkpt lat="48.59006" lon="-4.26873">
        <ele>33.937461</ele>
        <time>2021-09-14T02:01:04.893Z</time>
      </trkpt>
      <trkpt lat="48.58943" lon="-4.2687">
        <ele>31.679244</ele>
        <time>2021-09-14T02:01:17.282Z</time>
      </trkpt>
      <trkpt lat="48.58912" lon="-4.2687">
        <ele>30.371836</ele>
        <time>2021-09-14T02:01:23.357Z</time>
      </trkpt>
      <trkpt lat="48.58814" lon="-4.26895">
        <ele>26.174189</ele>
        <time>2021-09-14T02:01:42.569Z</time>
      </trkpt>
      <trkpt lat="48.58725" lon="-4.26906">
        <ele>23.969519</ele>
        <time>2021-09-14T02:02:01.719Z</time>
      </trkpt>
      <trkpt lat="48.58685" lon="-4.26903">
        <ele>23.172261</ele>
        <time>2021-09-14T02:02:10.709Z</time>
      </trkpt>
      <trkpt lat="48.5863" lon="-4.26894">
        <ele>22.055638</ele>
        <time>2021-09-14T02:02:23.709Z</time>
      </trkpt>
      <trkpt lat="48.58617" lon="-4.269">
        <ele>21.780045</ele>
        <time>2021-09-14T02:02:26.722Z</time>
      </trkpt>
      <trkpt lat="48.58599" lon="-4.26961">
        <ele>21.084299</ele>
        <time>2021-09-14T02:02:36.556Z</time>
      </trkpt>
      <trkpt lat="48.58596" lon="-4.2698">
        <ele>20.885024</ele>
        <time>2021-09-14T02:02:39.442Z</time>
      </trkpt>
      <trkpt lat="48.586" lon="-4.27039">
        <ele>20.266629</ele>
        <time>2021-09-14T02:02:48.378Z</time>
      </trkpt>
      <trkpt lat="48.58595" lon="-4.27059">
        <ele>20.046514</ele>
        <time>2021-09-14T02:02:51.553Z</time>
      </trkpt>
      <trkpt lat="48.58575" lon="-4.27079">
        <ele>19.658895</ele>
        <time>2021-09-14T02:02:57.258Z</time>
      </trkpt>
      <trkpt lat="48.58547" lon="-4.2709">
        <ele>19.218621</ele>
        <time>2021-09-14T02:03:03.403Z</time>
      </trkpt>
      <trkpt lat="48.58535" lon="-4.27101">
        <ele>18.997071</ele>
        <time>2021-09-14T02:03:06.576Z</time>
      </trkpt>
      <trkpt lat="48.58536" lon="-4.27112">
        <ele>18.894455</ele>
        <time>2021-09-14T02:03:07.559Z</time>
      </trkpt>
      <trkpt lat="48.58538" lon="-4.27195">
        <ele>18.197292</ele>
        <time>2021-09-14T02:03:14.805Z</time>
      </trkpt>
      <trkpt lat="48.58532" lon="-4.27208">
        <ele>18.066704</ele>
        <time>2021-09-14T02:03:16.174Z</time>
      </trkpt>
      <trkpt lat="48.58493" lon="-4.2722">
        <ele>17.554853</ele>
        <time>2021-09-14T02:03:21.533Z</time>
      </trkpt>
      <trkpt lat="48.58391" lon="-4.27232">
        <ele>16.604102</ele>
        <time>2021-09-14T02:03:36.792Z</time>
      </trkpt>
      <trkpt lat="48.5831" lon="-4.27207">
        <ele>16.473709</ele>
        <time>2021-09-14T02:03:50.072Z</time>
      </trkpt>
      <trkpt lat="48.58304" lon="-4.272">
        <ele>16.460917</ele>
        <time>2021-09-14T02:03:51.308Z</time>
      </trkpt>
      <trkpt lat="48.58252" lon="-4.27109">
        <ele>16.668947</ele>
        <time>2021-09-14T02:04:03.857Z</time>
      </trkpt>
      <trkpt lat="48.58178" lon="-4.27035">
        <ele>17.878356</ele>
        <time>2021-09-14T02:04:21.525Z</time>
      </trkpt>
      <trkpt lat="48.58146" lon="-4.27011">
        <ele>18.357241</ele>
        <time>2021-09-14T02:04:30.257Z</time>
      </trkpt>
      <trkpt lat="48.58107" lon="-4.27005">
        <ele>19.009799</ele>
        <time>2021-09-14T02:04:40.652Z</time>
      </trkpt>
      <trkpt lat="48.58015" lon="-4.27014">
        <ele>21.980681</ele>
        <time>2021-09-14T02:05:07.266Z</time>
      </trkpt>
      <trkpt lat="48.57935" lon="-4.27142">
        <ele>25.774513</ele>
        <time>2021-09-14T02:05:43.081Z</time>
      </trkpt>
      <trkpt lat="48.57879" lon="-4.27176">
        <ele>27.790829</ele>
        <time>2021-09-14T02:05:59.602Z</time>
      </trkpt>
      <trkpt lat="48.57854" lon="-4.27191">
        <ele>28.657248</ele>
        <time>2021-09-14T02:06:08.216Z</time>
      </trkpt>
      <trkpt lat="48.5785" lon="-4.27196">
        <ele>28.838179</ele>
        <time>2021-09-14T02:06:09.571Z</time>
      </trkpt>
      <trkpt lat="48.57841" lon="-4.27214">
        <ele>29.350774</ele>
        <time>2021-09-14T02:06:13.732Z</time>
      </trkpt>
      <trkpt lat="48.5784" lon="-4.27243">
        <ele>29.987126</ele>
        <time>2021-09-14T02:06:20.083Z</time>
      </trkpt>
      <trkpt lat="48.57865" lon="-4.27316">
        <ele>32.044443</ele>
        <time>2021-09-14T02:06:35.340Z</time>
      </trkpt>
      <trkpt lat="48.57875" lon="-4.27371">
        <ele>33.569475</ele>
        <time>2021-09-14T02:06:46.805Z</time>
      </trkpt>
      <trkpt lat="48.57874" lon="-4.2739">
        <ele>34.066661</ele>
        <time>2021-09-14T02:06:51.710Z</time>
      </trkpt>
      <trkpt lat="48.57863" lon="-4.27411">
        <ele>34.790382</ele>
        <time>2021-09-14T02:06:56.617Z</time>
      </trkpt>
      <trkpt lat="48.57783" lon="-4.27453">
        <ele>38.263757</ele>
        <time>2021-09-14T02:07:25.767Z</time>
      </trkpt>
      <trkpt lat="48.57728" lon="-4.27539">
        <ele>42.054826</ele>
        <time>2021-09-14T02:07:54.733Z</time>
      </trkpt>
      <trkpt lat="48.5762" lon="-4.2765">
        <ele>47.680375</ele>
        <time>2021-09-14T02:08:40.746Z</time>
      </trkpt>
      <trkpt lat="48.57634" lon="-4.27666">
        <ele>48.228291</ele>
        <time>2021-09-14T02:08:45.752Z</time>
      </trkpt>
      <trkpt lat="48.57613" lon="-4.27726">
        <ele>49.622081</ele>
        <time>2021-09-14T02:08:59.495Z</time>
      </trkpt>
      <trkpt lat="48.57587" lon="-4.27829">
        <ele>51.897697</ele>
        <time>2021-09-14T02:09:18.378Z</time>
      </trkpt>
      <trkpt lat="48.57579" lon="-4.27838">
        <ele>52.068192</ele>
        <time>2021-09-14T02:09:21.280Z</time>
      </trkpt>
      <trkpt lat="48.57567" lon="-4.27833">
        <ele>51.984793</ele>
        <time>2021-09-14T02:09:23.344Z</time>
      </trkpt>
      <trkpt lat="48.57521" lon="-4.27751">
        <ele>51.502704</ele>
        <time>2021-09-14T02:09:35.062Z</time>
      </trkpt>
      <trkpt lat="48.57506" lon="-4.27738">
        <ele>51.384197</ele>
        <time>2021-09-14T02:09:37.484Z</time>
      </trkpt>
      <trkpt lat="48.57482" lon="-4.27729">
        <ele>51.215335</ele>
        <time>2021-09-14T02:09:40.980Z</time>
      </trkpt>
      <trkpt lat="48.5747" lon="-4.27742">
        <ele>51.110679</ele>
        <time>2021-09-14T02:09:43.250Z</time>
      </trkpt>
      <trkpt lat="48.57456" lon="-4.27775">
        <ele>50.938525</ele>
        <time>2021-09-14T02:09:46.539Z</time>
      </trkpt>
      <trkpt lat="48.57448" lon="-4.27792">
        <ele>50.714693</ele>
        <time>2021-09-14T02:09:48.425Z</time>
      </trkpt>
      <trkpt lat="48.5743" lon="-4.27814">
        <ele>49.688214</ele>
        <time>2021-09-14T02:09:51.210Z</time>
      </trkpt>
      <trkpt lat="48.5732" lon="-4.27901">
        <ele>44.304848</ele>
        <time>2021-09-14T02:10:05.426Z</time>
      </trkpt>
      <trkpt lat="48.57285" lon="-4.27922">
        <ele>42.718636</ele>
        <time>2021-09-14T02:10:09.623Z</time>
      </trkpt>
      <trkpt lat="48.57283" lon="-4.28061">
        <ele>39.352217</ele>
        <time>2021-09-14T02:10:19.601Z</time>
      </trkpt>
      <trkpt lat="48.57278" lon="-4.28067">
        <ele>39.111909</ele>
        <time>2021-09-14T02:10:20.761Z</time>
      </trkpt>
      <trkpt lat="48.57271" lon="-4.28044">
        <ele>38.511389</ele>
        <time>2021-09-14T02:10:24.243Z</time>
      </trkpt>
      <trkpt lat="48.57266" lon="-4.28042">
        <ele>38.294726</ele>
        <time>2021-09-14T02:10:25.515Z</time>
      </trkpt>
      <trkpt lat="48.57235" lon="-4.28054">
        <ele>37.136453</ele>
        <time>2021-09-14T02:10:32.171Z</time>
      </trkpt>
      <trkpt lat="48.57224" lon="-4.28071">
        <ele>36.536912</ele>
        <time>2021-09-14T02:10:35.770Z</time>
      </trkpt>
      <trkpt lat="48.57209" lon="-4.28108">
        <ele>36.370806</ele>
        <time>2021-09-14T02:10:42.588Z</time>
      </trkpt>
      <trkpt lat="48.57177" lon="-4.28146">
        <ele>36.250681</ele>
        <time>2021-09-14T02:10:52.250Z</time>
      </trkpt>
      <trkpt lat="48.5714" lon="-4.28173">
        <ele>36.132427</ele>
        <time>2021-09-14T02:11:02.777Z</time>
      </trkpt>
      <trkpt lat="48.57126" lon="-4.2819">
        <ele>36.07918</ele>
        <time>2021-09-14T02:11:07.993Z</time>
      </trkpt>
      <trkpt lat="48.57086" lon="-4.28237">
        <ele>35.931997</ele>
        <time>2021-09-14T02:11:21.866Z</time>
      </trkpt>
      <trkpt lat="48.57051" lon="-4.28265">
        <ele>36.931015</ele>
        <time>2021-09-14T02:11:32.153Z</time>
      </trkpt>
      <trkpt lat="48.57029" lon="-4.28291">
        <ele>37.710045</ele>
        <time>2021-09-14T02:11:39.876Z</time>
      </trkpt>
      <trkpt lat="48.56991" lon="-4.28294">
        <ele>38.771975</ele>
        <time>2021-09-14T02:11:52.278Z</time>
      </trkpt>
      <trkpt lat="48.56989" lon="-4.28303">
        <ele>38.949867</ele>
        <time>2021-09-14T02:11:54.563Z</time>
      </trkpt>
      <trkpt lat="48.5699" lon="-4.28317">
        <ele>39.197773</ele>
        <time>2021-09-14T02:11:57.778Z</time>
      </trkpt>
      <trkpt lat="48.56993" lon="-4.28425">
        <ele>41.570341</ele>
        <time>2021-09-14T02:12:31.311Z</time>
      </trkpt>
      <trkpt lat="48.56989" lon="-4.28442">
        <ele>42.393403</ele>
        <time>2021-09-14T02:12:37.345Z</time>
      </trkpt>
      <trkpt lat="48.56983" lon="-4.28462">
        <ele>43.393491</ele>
        <time>2021-09-14T02:12:45.005Z</time>
      </trkpt>
      <trkpt lat="48.56982" lon="-4.28479">
        <ele>44.178024</ele>
        <time>2021-09-14T02:12:51.095Z</time>
      </trkpt>
      <trkpt lat="48.57013" lon="-4.28633">
        <ele>51.464902</ele>
        <time>2021-09-14T02:13:50.464Z</time>
      </trkpt>
      <trkpt lat="48.57016" lon="-4.2865">
        <ele>52.250654</ele>
        <time>2021-09-14T02:13:57.116Z</time>
      </trkpt>
      <trkpt lat="48.57025" lon="-4.28819">
        <ele>56.789706</ele>
        <time>2021-09-14T02:14:53.231Z</time>
      </trkpt>
      <trkpt lat="48.57046" lon="-4.28911">
        <ele>59.087842</ele>
        <time>2021-09-14T02:15:11.693Z</time>
      </trkpt>
      <trkpt lat="48.57054" lon="-4.28955">
        <ele>59.6211</ele>
        <time>2021-09-14T02:15:19.353Z</time>
      </trkpt>
      <trkpt lat="48.57049" lon="-4.29011">
        <ele>59.210271</ele>
        <time>2021-09-14T02:15:28.407Z</time>
      </trkpt>
      <trkpt lat="48.57052" lon="-4.29126">
        <ele>58.378541</ele>
        <time>2021-09-14T02:15:45.830Z</time>
      </trkpt>
      <trkpt lat="48.57049" lon="-4.29169">
        <ele>58.060905</ele>
        <time>2021-09-14T02:15:52.154Z</time>
      </trkpt>
      <trkpt lat="48.57043" lon="-4.29189">
        <ele>57.905466</ele>
        <time>2021-09-14T02:15:55.249Z</time>
      </trkpt>
      <trkpt lat="48.5704" lon="-4.29201">
        <ele>57.80877</ele>
        <time>2021-09-14T02:15:57.151Z</time>
      </trkpt>
      <trkpt lat="48.57003" lon="-4.29269">
        <ele>56.680967</ele>
        <time>2021-09-14T02:16:10.379Z</time>
      </trkpt>
      <trkpt lat="48.56994" lon="-4.29266">
        <ele>56.491667</ele>
        <time>2021-09-14T02:16:12.475Z</time>
      </trkpt>
      <trkpt lat="48.56965" lon="-4.29234">
        <ele>55.781344</ele>
        <time>2021-09-14T02:16:20.555Z</time>
      </trkpt>
      <trkpt lat="48.56946" lon="-4.29222">
        <ele>55.383821</ele>
        <time>2021-09-14T02:16:25.080Z</time>
      </trkpt>
      <trkpt lat="48.56839" lon="-4.29187">
        <ele>52.595722</ele>
        <time>2021-09-14T02:16:48.462Z</time>
      </trkpt>
      <trkpt lat="48.56772" lon="-4.2916">
        <ele>50.409329</ele>
        <time>2021-09-14T02:17:02.352Z</time>
      </trkpt>
      <trkpt lat="48.56707" lon="-4.29129">
        <ele>48.498954</ele>
        <time>2021-09-14T02:17:10.507Z</time>
      </trkpt>
      <trkpt lat="48.56645" lon="-4.291">
        <ele>48.291984</ele>
        <time>2021-09-14T02:17:19.366Z</time>
      </trkpt>
      <trkpt lat="48.56622" lon="-4.29057">
        <ele>48.17616</ele>
        <time>2021-09-14T02:17:25.008Z</time>
      </trkpt>
      <trkpt lat="48.56617" lon="-4.29047">
        <ele>48.151676</ele>
        <time>2021-09-14T02:17:26.399Z</time>
      </trkpt>
      <trkpt lat="48.5658" lon="-4.29009">
        <ele>48.009222</ele>
        <time>2021-09-14T02:17:35.665Z</time>
      </trkpt>
      <trkpt lat="48.56562" lon="-4.29001">
        <ele>48.049982</ele>
        <time>2021-09-14T02:17:40.128Z</time>
      </trkpt>
      <trkpt lat="48.56543" lon="-4.29002">
        <ele>48.730506</ele>
        <time>2021-09-14T02:17:45.544Z</time>
      </trkpt>
      <trkpt lat="48.56478" lon="-4.29014">
        <ele>50.997618</ele>
        <time>2021-09-14T02:18:05.724Z</time>
      </trkpt>
      <trkpt lat="48.56422" lon="-4.29023">
        <ele>52.965249</ele>
        <time>2021-09-14T02:18:25.005Z</time>
      </trkpt>
      <trkpt lat="48.56399" lon="-4.29029">
        <ele>53.804759</ele>
        <time>2021-09-14T02:18:32.593Z</time>
      </trkpt>
      <trkpt lat="48.56332" lon="-4.29038">
        <ele>55.780431</ele>
        <time>2021-09-14T02:18:52.206Z</time>
      </trkpt>
      <trkpt lat="48.56258" lon="-4.29064">
        <ele>57.91928</ele>
        <time>2021-09-14T02:19:13.031Z</time>
      </trkpt>
      <trkpt lat="48.56203" lon="-4.29068">
        <ele>59.38559</ele>
        <time>2021-09-14T02:19:26.683Z</time>
      </trkpt>
      <trkpt lat="48.5617" lon="-4.29075">
        <ele>59.884458</ele>
        <time>2021-09-14T02:19:34.698Z</time>
      </trkpt>
      <trkpt lat="48.5607" lon="-4.29121">
        <ele>61.476272</ele>
        <time>2021-09-14T02:19:58.626Z</time>
      </trkpt>
      <trkpt lat="48.5597" lon="-4.29167">
        <ele>62.281627</ele>
        <time>2021-09-14T02:20:17.858Z</time>
      </trkpt>
      <trkpt lat="48.55944" lon="-4.29172">
        <ele>62.381447</ele>
        <time>2021-09-14T02:20:22.436Z</time>
      </trkpt>
      <trkpt lat="48.55944" lon="-4.29278">
        <ele>62.650656</ele>
        <time>2021-09-14T02:20:33.779Z</time>
      </trkpt>
      <trkpt lat="48.55895" lon="-4.29292">
        <ele>62.802171</ele>
        <time>2021-09-14T02:20:42.121Z</time>
      </trkpt>
      <trkpt lat="48.55836" lon="-4.29296">
        <ele>62.960488</ele>
        <time>2021-09-14T02:20:51.592Z</time>
      </trkpt>
      <trkpt lat="48.55791" lon="-4.2931">
        <ele>63.082777</ele>
        <time>2021-09-14T02:20:59.550Z</time>
      </trkpt>
      <trkpt lat="48.5568" lon="-4.2937">
        <ele>63.906024</ele>
        <time>2021-09-14T02:21:21.975Z</time>
      </trkpt>
      <trkpt lat="48.55654" lon="-4.29415">
        <ele>64.272909</ele>
        <time>2021-09-14T02:21:29.940Z</time>
      </trkpt>
      <trkpt lat="48.5564" lon="-4.2944">
        <ele>64.473029</ele>
        <time>2021-09-14T02:21:34.056Z</time>
      </trkpt>
      <trkpt lat="48.55618" lon="-4.29453">
        <ele>64.691188</ele>
        <time>2021-09-14T02:21:39.217Z</time>
      </trkpt>
      <trkpt lat="48.55499" lon="-4.29467">
        <ele>66.607592</ele>
        <time>2021-09-14T02:22:04.971Z</time>
      </trkpt>
      <trkpt lat="48.55387" lon="-4.2944">
        <ele>68.757678</ele>
        <time>2021-09-14T02:22:33.367Z</time>
      </trkpt>
      <trkpt lat="48.55364" lon="-4.2943">
        <ele>69.306401</ele>
        <time>2021-09-14T02:22:39.533Z</time>
      </trkpt>
      <trkpt lat="48.55314" lon="-4.2941">
        <ele>70.505869</ele>
        <time>2021-09-14T02:22:53.178Z</time>
      </trkpt>
      <trkpt lat="48.55282" lon="-4.29397">
        <ele>71.263463</ele>
        <time>2021-09-14T02:23:01.248Z</time>
      </trkpt>
      <trkpt lat="48.55202" lon="-4.29374">
        <ele>72.912251</ele>
        <time>2021-09-14T02:23:21.581Z</time>
      </trkpt>
      <trkpt lat="48.55167" lon="-4.29381">
        <ele>73.565001</ele>
        <time>2021-09-14T02:23:30.136Z</time>
      </trkpt>
      <trkpt lat="48.55151" lon="-4.29408">
        <ele>74.003306</ele>
        <time>2021-09-14T02:23:35.555Z</time>
      </trkpt>
      <trkpt lat="48.5509" lon="-4.29386">
        <ele>75.151154</ele>
        <time>2021-09-14T02:23:49.564Z</time>
      </trkpt>
      <trkpt lat="48.55082" lon="-4.29388">
        <ele>75.302663</ele>
        <time>2021-09-14T02:23:51.380Z</time>
      </trkpt>
      <trkpt lat="48.55067" lon="-4.29409">
        <ele>75.638213</ele>
        <time>2021-09-14T02:23:56.074Z</time>
      </trkpt>
      <trkpt lat="48.55001" lon="-4.29417">
        <ele>76.70431</ele>
        <time>2021-09-14T02:24:11.748Z</time>
      </trkpt>
      <trkpt lat="48.54942" lon="-4.29444">
        <ele>77.69071</ele>
        <time>2021-09-14T02:24:25.902Z</time>
      </trkpt>
      <trkpt lat="48.54876" lon="-4.29477">
        <ele>78.612806</ele>
        <time>2021-09-14T02:24:40.146Z</time>
      </trkpt>
      <trkpt lat="48.54783" lon="-4.29537">
        <ele>79.709315</ele>
        <time>2021-09-14T02:25:01.250Z</time>
      </trkpt>
      <trkpt lat="48.54758" lon="-4.2954">
        <ele>79.988395</ele>
        <time>2021-09-14T02:25:06.401Z</time>
      </trkpt>
      <trkpt lat="48.54658" lon="-4.29491">
        <ele>80.694691</ele>
        <time>2021-09-14T02:25:26.705Z</time>
      </trkpt>
      <trkpt lat="48.54582" lon="-4.29498">
        <ele>81.138744</ele>
        <time>2021-09-14T02:25:40.478Z</time>
      </trkpt>
      <trkpt lat="48.5453" lon="-4.2949">
        <ele>81.055332</ele>
        <time>2021-09-14T02:25:49.373Z</time>
      </trkpt>
      <trkpt lat="48.54487" lon="-4.29472">
        <ele>80.813997</ele>
        <time>2021-09-14T02:25:56.232Z</time>
      </trkpt>
      <trkpt lat="48.54477" lon="-4.29475">
        <ele>80.757985</ele>
        <time>2021-09-14T02:25:57.619Z</time>
      </trkpt>
      <trkpt lat="48.54458" lon="-4.29518">
        <ele>80.570166</ele>
        <time>2021-09-14T02:26:02.763Z</time>
      </trkpt>
      <trkpt lat="48.54451" lon="-4.29558">
        <ele>80.420909</ele>
        <time>2021-09-14T02:26:06.868Z</time>
      </trkpt>
      <trkpt lat="48.54431" lon="-4.29687">
        <ele>79.841729</ele>
        <time>2021-09-14T02:26:19.015Z</time>
      </trkpt>
      <trkpt lat="48.54423" lon="-4.29703">
        <ele>79.746858</ele>
        <time>2021-09-14T02:26:21.000Z</time>
      </trkpt>
      <trkpt lat="48.5437" lon="-4.29695">
        <ele>79.362218</ele>
        <time>2021-09-14T02:26:28.991Z</time>
      </trkpt>
      <trkpt lat="48.54358" lon="-4.29702">
        <ele>79.271649</ele>
        <time>2021-09-14T02:26:30.925Z</time>
      </trkpt>
      <trkpt lat="48.54346" lon="-4.2972">
        <ele>79.150508</ele>
        <time>2021-09-14T02:26:33.504Z</time>
      </trkpt>
      <trkpt lat="48.54329" lon="-4.29767">
        <ele>78.949682</ele>
        <time>2021-09-14T02:26:38.927Z</time>
      </trkpt>
      <trkpt lat="48.54309" lon="-4.29926">
        <ele>78.733999</ele>
        <time>2021-09-14T02:26:55.801Z</time>
      </trkpt>
      <trkpt lat="48.54311" lon="-4.30018">
        <ele>78.61132</ele>
        <time>2021-09-14T02:27:05.774Z</time>
      </trkpt>
      <trkpt lat="48.54312" lon="-4.30136">
        <ele>77.705098</ele>
        <time>2021-09-14T02:27:17.698Z</time>
      </trkpt>
      <trkpt lat="48.54282" lon="-4.30311">
        <ele>76.180594</ele>
        <time>2021-09-14T02:27:33.800Z</time>
      </trkpt>
      <trkpt lat="48.54278" lon="-4.30321">
        <ele>76.024654</ele>
        <time>2021-09-14T02:27:34.808Z</time>
      </trkpt>
      <trkpt lat="48.54268" lon="-4.30345">
        <ele>75.679036</ele>
        <time>2021-09-14T02:27:37.135Z</time>
      </trkpt>
      <trkpt lat="48.54239" lon="-4.30361">
        <ele>75.08719</ele>
        <time>2021-09-14T02:27:41.112Z</time>
      </trkpt>
      <trkpt lat="48.54188" lon="-4.30372">
        <ele>74.091327</ele>
        <time>2021-09-14T02:27:47.921Z</time>
      </trkpt>
      <trkpt lat="48.54175" lon="-4.3038">
        <ele>73.840752</ele>
        <time>2021-09-14T02:27:49.613Z</time>
      </trkpt>
      <trkpt lat="48.54165" lon="-4.30397">
        <ele>73.53953</ele>
        <time>2021-09-14T02:27:51.709Z</time>
      </trkpt>
      <trkpt lat="48.54161" lon="-4.30409">
        <ele>73.369345</ele>
        <time>2021-09-14T02:27:52.956Z</time>
      </trkpt>
      <trkpt lat="48.54157" lon="-4.30437">
        <ele>73.053021</ele>
        <time>2021-09-14T02:27:55.410Z</time>
      </trkpt>
      <trkpt lat="48.54158" lon="-4.30484">
        <ele>72.932927</ele>
        <time>2021-09-14T02:28:00.012Z</time>
      </trkpt>
      <trkpt lat="48.54159" lon="-4.30538">
        <ele>72.793976</ele>
        <time>2021-09-14T02:28:05.601Z</time>
      </trkpt>
      <trkpt lat="48.54159" lon="-4.3062">
        <ele>72.585728</ele>
        <time>2021-09-14T02:28:14.022Z</time>
      </trkpt>
      <trkpt lat="48.54169" lon="-4.30709">
        <ele>72.362039</ele>
        <time>2021-09-14T02:28:24.096Z</time>
      </trkpt>
      <trkpt lat="48.54167" lon="-4.30753">
        <ele>72.293845</ele>
        <time>2021-09-14T02:28:28.997Z</time>
      </trkpt>
      <trkpt lat="48.54163" lon="-4.30871">
        <ele>72.108897</ele>
        <time>2021-09-14T02:28:41.750Z</time>
      </trkpt>
      <trkpt lat="48.54155" lon="-4.30875">
        <ele>72.090329</ele>
        <time>2021-09-14T02:28:42.852Z</time>
      </trkpt>
      <trkpt lat="48.54156" lon="-4.30882">
        <ele>72.078554</ele>
        <time>2021-09-14T02:28:44.001Z</time>
      </trkpt>
      <trkpt lat="48.54153" lon="-4.30882">
        <ele>72.0708</ele>
        <time>2021-09-14T02:28:44.470Z</time>
      </trkpt>
      <trkpt lat="48.54098" lon="-4.30894">
        <ele>71.954282</ele>
        <time>2021-09-14T02:28:52.126Z</time>
      </trkpt>
      <trkpt lat="48.54092" lon="-4.30895">
        <ele>71.965458</ele>
        <time>2021-09-14T02:28:52.950Z</time>
      </trkpt>
      <trkpt lat="48.5403" lon="-4.30937">
        <ele>72.090849</ele>
        <time>2021-09-14T02:29:03.069Z</time>
      </trkpt>
      <trkpt lat="48.54023" lon="-4.30942">
        <ele>72.105129</ele>
        <time>2021-09-14T02:29:04.224Z</time>
      </trkpt>
      <trkpt lat="48.53992" lon="-4.30977">
        <ele>72.175974</ele>
        <time>2021-09-14T02:29:10.534Z</time>
      </trkpt>
      <trkpt lat="48.53969" lon="-4.31014">
        <ele>72.238082</ele>
        <time>2021-09-14T02:29:16.391Z</time>
      </trkpt>
      <trkpt lat="48.53904" lon="-4.3109">
        <ele>73.24423</ele>
        <time>2021-09-14T02:29:32.918Z</time>
      </trkpt>
      <trkpt lat="48.53889" lon="-4.31102">
        <ele>73.517428</ele>
        <time>2021-09-14T02:29:36.572Z</time>
      </trkpt>
      <trkpt lat="48.53862" lon="-4.31122">
        <ele>74.006188</ele>
        <time>2021-09-14T02:29:43.486Z</time>
      </trkpt>
      <trkpt lat="48.53823" lon="-4.31138">
        <ele>74.671824</ele>
        <time>2021-09-14T02:29:53.517Z</time>
      </trkpt>
      <trkpt lat="48.53762" lon="-4.31137">
        <ele>75.206078</ele>
        <time>2021-09-14T02:30:07.431Z</time>
      </trkpt>
      <trkpt lat="48.53714" lon="-4.31135">
        <ele>75.206078</ele>
        <time>2021-09-14T02:30:17.361Z</time>
      </trkpt>
      <trkpt lat="48.53701" lon="-4.31134">
        <ele>75.206078</ele>
        <time>2021-09-14T02:30:20.209Z</time>
      </trkpt>
      <trkpt lat="48.53695" lon="-4.31134">
        <ele>75.206078</ele>
        <time>2021-09-14T02:30:21.383Z</time>
      </trkpt>
      <trkpt lat="48.5369" lon="-4.31133">
        <ele>75.206078</ele>
        <time>2021-09-14T02:30:22.480Z</time>
      </trkpt>
    </trkseg>
  </trk>
</gpx>